GFSMA_sfc_rhum_000.txt.gz
RH
53 52 52 52 52 52 51 51 51 49 49 49 48 48 48 47 46 46 46 72 78 72 76 72 69 65 60 62 63 67 71 74 75 76 74 74 75 75 74 71 70 70 69
56 57 56 54 53 52 51 52 51 52 52 51 52 50 50 48 48 49 48 49 78 78 76 78 73 70 67 63 60 66 69 71 74 77 78 75 74 75 75 75 74 74 74
57 58 58 57 54 53 54 54 54 54 54 52 53 51 50 48 48 47 48 49 51 78 80 76 77 73 70 69 66 66 69 70 70 73 75 78 77 75 75 75 76 76 76
56 58 58 58 56 56 55 55 55 56 55 55 56 56 54 52 49 48 48 46 47 46 62 79 76 76 75 72 70 68 71 70 71 71 72 73 78 79 77 76 76 76 77
59 58 56 51 47 50 49 51 50 53 59 56 58 55 52 53 50 47 48 48 48 49 48 60 80 80 79 76 74 71 72 73 72 72 71 70 70 76 79 79 78 77 77
38 39 36 35 35 37 36 36 38 37 39 41 40 42 47 42 43 44 44 42 46 50 50 52 51 53 82 78 76 75 74 76 76 75 73 73 72 71 72 77 79 79 79
31 34 33 32 33 34 35 34 36 38 36 34 38 39 36 34 33 32 51 38 37 40 45 46 50 56 52 78 79 75 74 76 76 79 78 78 76 74 74 72 73 78 79
31 30 33 33 35 35 36 37 39 42 37 35 41 44 42 37 29 34 33 30 31 31 38 51 53 54 57 60 67 79 76 74 75 76 78 81 80 80 79 77 75 74 74
28 30 31 30 30 32 34 35 35 39 40 35 36 39 48 49 47 37 36 31 32 32 32 36 38 37 39 45 61 68 80 80 76 76 76 75 79 80 82 82 81 79 77
25 24 25 26 27 27 31 31 27 34 38 39 36 31 36 38 50 53 35 36 31 34 34 35 34 35 36 38 49 69 80 80 77 76 76 78 78 77 77 79 83 83 82
24 22 22 25 24 25 28 29 30 33 34 33 35 40 39 39 39 48 54 39 34 29 28 30 31 32 35 40 45 60 74 75 74 76 75 75 78 77 73 81 86 84 84
20 21 22 23 24 26 27 28 29 36 36 30 32 35 40 44 42 38 37 40 38 33 26 30 34 35 36 39 51 75 70 62 56 56 62 69 74 75 84 84 75 79 88
20 22 23 22 22 24 24 26 28 34 32 32 36 38 36 31 29 29 34 43 44 42 41 36 32 33 33 37 37 64 54 57 56 55 66 66 67 77 78 80 82 82 78
18 21 22 21 21 21 22 22 24 26 26 28 30 35 35 30 31 34 46 56 64 53 43 38 30 30 26 29 40 60 36 52 56 56 54 52 59 72 73 70 73 74 74
17 19 20 21 21 21 21 22 20 22 23 25 29 33 32 31 34 36 38 46 51 65 52 40 36 26 25 26 35 36 34 47 60 62 58 61 59 74 75 74 71 76 81
19 20 20 20 20 19 19 20 21 21 22 24 26 29 33 31 34 30 32 33 37 46 54 37 36 35 31 32 39 35 36 55 58 52 55 62 65 57 62 70 79 83 86
19 20 19 19 18 18 18 19 20 20 23 26 27 29 32 32 32 29 32 34 36 38 52 46 40 37 36 37 34 35 40 39 36 54 60 67 62 66 69 74 74 74 79
18 20 20 19 17 18 19 19 20 21 24 26 28 30 31 26 35 32 33 36 40 39 51 60 45 42 42 41 41 40 33 31 37 44 52 58 65 68 70 71 78 74 76
20 19 19 20 19 22 21 20 19 23 25 27 29 31 32 33 37 36 37 38 42 40 53 57 57 51 49 44 48 47 46 40 35 52 51 51 58 62 70 75 70 73 78
21 21 21 20 22 22 22 19 25 29 30 29 32 35 34 36 37 44 42 46 46 53 51 60 66 60 55 51 47 50 50 50 54 44 52 57 62 68 66 69 73 75 86
23 23 23 23 23 24 17 32 37 37 37 36 36 34 36 43 52 49 44 53 58 58 64 68 69 63 57 55 56 55 60 59 64 60 68 64 64 65 65 63 66 70 74
25 25 24 26 30 20 37 48 51 44 41 40 39 37 34 43 42 55 58 61 56 67 80 90 71 63 59 57 52 62 73 78 84 70 63 68 61 67 60 58 68 76 76
26 26 25 24 24 24 41 53 59 47 44 39 38 37 35 32 49 51 55 55 68 73 60 57 65 64 64 62 67 81 84 81 78 64 71 84 68 78 66 61 66 73 80
26 26 25 25 26 25 44 54 62 46 40 38 36 37 38 46 52 47 48 86 62 49 48 42 51 64 74 67 64 66 82 84 80 74 73 96 77 78 71 84 85 79 80
28 27 25 27 28 28 46 57 56 43 38 38 37 38 49 52 52 55 92 85 60 52 45 58 62 60 60 63 65 74 90 93 86 80 75 88 86 92 89 80 75 78 84
27 26 27 26 35 31 47 57 54 42 42 43 44 49 56 47 59 71 57 55 70 57 61 62 53 55 59 61 64 71 88 96 93 90 80 97 86 91 85 82 93 84 84

GFSMA_sfc_rhum_003.txt.gz
RH
51 51 51 51 52 52 54 53 53 50 49 48 48 47 47 47 47 48 50 71 80 75 68 68 70 73 70 68 65 69 72 73 75 76 77 78 76 76 77 75 74 73 73
55 56 56 54 55 53 54 54 56 54 51 49 50 48 47 46 45 47 48 51 75 81 76 71 71 73 76 71 69 70 70 73 74 74 76 77 78 77 77 78 76 75 75
54 56 56 57 63 58 53 52 48 48 48 46 46 45 47 46 47 44 45 48 52 76 82 74 72 72 74 77 74 74 73 72 72 73 74 75 78 80 78 78 78 78 76
56 56 58 56 45 44 43 42 41 42 43 43 42 45 45 44 42 42 44 44 48 48 60 83 79 74 73 73 74 74 75 75 74 73 74 74 75 77 80 80 78 78 78
42 40 36 34 30 35 34 35 34 35 38 38 37 36 36 40 42 36 38 42 44 49 50 62 79 86 84 77 71 71 73 78 77 77 77 75 75 75 76 77 79 79 79
30 32 31 30 30 34 35 36 36 37 38 38 32 34 38 36 36 36 37 34 35 35 35 39 50 58 84 83 77 73 71 72 77 80 80 80 79 77 76 76 75 78 80
27 31 32 31 33 34 34 32 33 37 38 35 39 40 39 33 32 34 32 31 34 34 32 35 38 50 62 75 69 74 75 77 74 78 80 82 80 80 80 79 78 76 80
26 26 29 29 29 32 31 32 33 36 34 33 38 42 45 37 34 33 32 31 30 33 32 34 38 39 43 48 56 68 69 66 68 67 72 76 76 76 76 82 83 81 80
21 22 24 24 26 30 33 33 32 38 41 36 34 34 46 47 42 38 33 30 29 29 32 32 31 32 34 34 41 43 59 68 63 63 64 68 72 73 72 73 77 85 84
21 19 21 24 24 25 30 33 26 35 39 40 36 25 31 33 45 44 34 34 29 25 28 30 26 26 26 32 46 51 59 75 67 68 67 66 69 70 73 79 76 75 84
20 21 20 24 24 26 28 31 34 34 37 33 34 37 33 37 33 38 40 36 30 27 28 27 27 28 30 33 40 63 73 62 61 63 62 63 63 74 76 79 74 92 78
20 21 21 23 24 26 28 30 32 36 37 34 32 32 30 34 36 34 35 37 38 38 36 34 36 36 34 36 42 57 57 51 50 54 57 60 61 66 65 64 71 68 84
20 22 22 22 22 26 26 28 30 33 31 33 35 30 29 32 31 32 35 42 45 42 40 34 31 32 27 31 29 46 47 49 54 52 56 58 59 58 59 62 56 64 72
18 19 21 20 20 20 21 23 27 28 28 31 36 35 32 33 31 33 39 45 51 44 39 38 32 28 27 29 37 53 34 52 55 50 54 53 51 58 58 55 62 64 59
15 18 20 20 20 20 20 21 22 24 25 28 31 34 33 31 34 35 38 40 44 52 45 36 38 30 35 32 40 35 33 45 50 49 52 58 60 61 58 61 64 57 55
17 19 19 18 19 18 18 20 23 23 24 25 26 30 31 31 32 34 37 37 38 44 50 39 38 38 37 34 38 38 39 55 51 49 48 54 59 60 65 63 62 61 61
17 18 18 18 18 18 18 19 21 22 22 26 28 29 32 31 33 33 36 38 41 42 50 44 40 40 43 43 42 43 46 43 41 49 48 49 56 60 63 65 64 66 70
17 18 18 18 18 18 19 20 21 22 22 25 27 30 31 26 39 38 38 41 42 42 48 54 49 48 48 48 47 47 41 35 41 46 48 49 52 56 60 62 65 66 72
18 19 19 20 20 23 23 21 21 20 24 27 30 32 34 35 42 42 42 43 46 41 52 58 59 52 54 53 54 47 44 45 38 51 50 49 52 56 58 64 65 70 72
21 22 22 22 24 23 24 24 22 29 32 32 36 37 36 38 40 47 46 50 47 59 61 64 64 67 60 60 56 55 53 49 50 39 50 55 56 57 64 62 59 64 69
23 24 24 25 25 25 21 28 35 39 43 42 40 37 37 45 47 45 39 51 61 69 65 70 76 74 70 62 63 54 56 58 60 59 65 64 67 64 57 56 57 65 68
25 24 26 29 36 23 36 41 44 46 46 45 44 38 36 45 40 47 53 55 55 59 79 82 94 88 69 59 50 65 74 83 85 58 68 67 60 63 60 62 60 64 67
25 27 26 26 25 25 38 43 50 48 50 45 41 39 36 31 44 50 57 57 62 65 63 61 79 66 59 66 76 89 86 75 74 66 75 80 75 79 70 55 60 62 70
26 26 26 25 26 26 39 45 52 49 45 42 38 38 40 45 53 54 55 76 78 72 53 50 50 55 67 68 74 62 72 91 84 79 72 94 81 94 71 73 65 68 62
28 27 25 26 26 25 40 45 52 48 44 42 39 41 46 51 55 67 70 77 52 50 50 57 58 59 58 58 59 66 92 94 90 81 76 83 88 88 87 82 72 72 96
27 25 26 24 30 26 40 49 49 47 48 48 46 52 57 51 60 69 60 51 65 64 68 66 58 55 56 59 63 69 81 96 95 91 78 89 89 91 94 80 90 81 77

GFSMA_sfc_rhum_006.txt.gz
RH
73 74 75 75 68 67 67 67 65 63 59 57 62 58 55 64 65 66 69 74 77 78 72 66 66 67 68 68 74 78 77 74 75 75 76 77 78 79 77 77 76 76 75
78 78 72 70 71 69 66 66 64 59 58 59 57 61 65 64 60 59 58 64 73 78 77 72 68 68 68 69 68 73 78 78 76 75 76 76 77 78 79 79 78 77 76
75 69 70 69 65 68 62 60 57 60 62 59 64 61 62 65 64 64 58 55 59 71 79 75 73 71 71 69 69 70 73 76 77 78 76 76 77 77 77 78 79 79 79
68 50 58 52 51 52 52 52 53 54 56 55 50 48 54 40 41 52 46 46 52 46 64 77 70 70 68 66 66 67 71 75 77 78 79 79 77 77 76 76 77 78 80
44 50 50 49 47 55 55 53 53 59 53 50 43 37 42 51 38 36 41 34 32 36 40 53 70 75 72 65 63 66 74 71 75 77 78 80 82 82 80 78 78 78 79
41 49 49 47 48 52 54 47 46 45 52 55 33 42 40 38 42 45 37 30 36 34 36 38 39 51 67 71 64 56 55 59 66 72 76 78 79 78 78 83 83 81 80
39 43 48 44 44 48 45 39 44 47 51 49 54 41 50 45 42 32 32 40 31 34 31 32 37 33 34 53 56 55 52 45 53 56 62 64 72 71 76 79 72 85 84
32 29 38 40 38 47 43 44 46 55 53 51 54 53 59 40 39 40 42 30 39 31 30 29 24 22 30 29 36 50 53 51 52 56 59 63 65 66 68 68 74 76 77
29 31 34 36 38 44 49 47 48 50 62 53 47 49 59 62 43 47 36 41 28 35 28 28 26 26 26 31 40 38 49 62 60 62 63 65 64 64 64 65 66 75 81
29 29 32 36 38 44 44 46 38 49 55 59 54 35 47 45 50 50 47 34 33 28 30 34 30 33 29 27 45 52 63 58 51 54 56 55 62 62 65 64 68 79 70
31 30 32 35 37 44 42 42 43 46 54 54 54 53 46 49 41 45 51 41 34 33 39 33 38 34 28 27 31 40 54 47 50 51 52 56 61 61 62 62 67 64 66
37 32 30 33 34 38 40 43 40 43 47 48 49 47 46 43 40 43 45 41 42 37 38 35 39 30 29 29 33 48 50 48 48 50 56 55 57 61 62 59 57 56 61
35 32 32 31 34 34 36 36 40 42 44 44 48 43 42 41 37 41 41 45 47 41 40 35 32 35 29 27 33 53 52 48 50 53 54 52 51 52 51 54 56 56 57
29 28 30 29 28 29 31 32 39 42 34 45 42 44 42 38 39 40 42 52 52 47 40 40 34 32 30 35 43 52 41 48 49 50 57 54 51 51 53 51 53 56 55
19 26 28 27 28 28 28 29 34 34 35 38 43 46 40 38 39 41 46 44 52 57 53 41 40 35 38 37 41 39 36 47 51 52 51 52 50 51 52 51 49 52 53
25 26 26 26 27 27 27 28 34 34 31 31 31 35 33 35 38 40 43 48 48 52 57 42 44 40 37 37 42 40 42 51 54 53 50 48 49 50 50 51 53 50 58
24 25 25 26 26 27 26 28 30 28 29 29 32 30 34 35 37 41 44 49 51 51 60 51 44 41 48 48 45 46 50 48 46 50 51 50 49 50 50 51 50 52 60
24 25 26 27 27 28 29 30 30 30 29 32 34 37 38 32 44 43 50 50 56 51 54 57 55 56 53 51 52 55 48 45 46 47 50 50 49 50 51 53 52 54 57
27 28 29 31 31 33 32 32 31 30 37 38 41 45 46 45 47 50 52 52 50 45 57 67 67 61 60 58 60 57 57 52 41 45 49 53 54 57 57 57 56 59 63
30 32 33 33 36 33 32 32 32 40 42 44 50 52 50 48 48 53 49 51 47 59 65 70 80 85 69 64 86 70 62 52 50 44 52 58 58 58 59 58 56 59 59
33 35 34 36 37 34 27 33 37 44 50 52 54 51 50 52 55 47 41 49 58 61 76 94 86 88 79 76 70 61 61 64 61 60 69 56 62 60 61 61 61 61 61
36 35 36 40 47 28 38 41 41 44 50 54 58 54 46 48 47 51 53 55 53 72 84 95 87 68 62 61 70 67 74 80 90 63 66 70 65 68 66 73 63 69 70
35 37 38 37 36 36 40 42 44 42 54 56 54 52 44 38 52 53 59 63 88 84 67 55 61 60 73 86 78 89 94 92 81 69 77 84 76 84 66 58 68 69 79
37 39 38 37 36 31 39 41 44 49 54 56 53 50 50 51 54 57 59 95 87 64 55 49 52 62 72 67 62 60 68 83 84 78 74 93 82 75 66 73 73 69 75
42 42 35 34 34 30 40 41 44 49 52 54 52 52 55 56 60 59 69 90 78 60 52 58 73 70 58 58 58 62 92 93 87 80 76 89 82 83 81 81 81 77 90
40 35 34 32 37 30 42 45 45 45 52 54 56 60 65 56 56 65 67 63 70 60 62 86 59 57 60 64 65 70 85 96 93 90 78 91 90 91 93 80 89 76 78

GFSMA_sfc_rhum_009.txt.gz
RH
72 77 81 79 73 71 70 69 65 65 67 68 65 65 66 69 68 66 75 78 77 72 66 63 66 66 67 69 70 73 74 78 78 80 78 78 78 78 78 79 79 78 76
84 78 72 69 64 58 56 61 59 61 63 64 52 52 64 66 65 64 55 66 74 72 72 60 62 64 60 61 64 72 74 74 75 77 80 81 79 79 79 78 78 79 79
75 62 45 47 56 59 54 53 50 58 56 51 54 56 49 47 50 52 53 53 62 63 58 51 54 54 62 56 58 63 66 72 75 74 77 77 81 82 81 81 80 79 79
49 47 50 54 57 59 55 54 58 56 58 60 61 48 48 52 46 45 48 36 39 43 50 56 51 56 48 49 50 52 55 64 66 66 69 73 76 78 79 82 83 82 80
46 51 54 52 52 58 53 49 50 54 57 55 41 46 44 48 50 40 44 35 43 34 40 46 60 53 49 41 46 47 46 47 54 56 58 61 62 68 68 75 74 80 85
41 48 49 44 49 51 49 46 45 48 56 55 40 38 43 52 48 39 30 34 34 40 34 33 34 29 45 44 44 46 48 46 43 46 51 55 59 61 64 63 68 69 71
38 40 46 42 47 48 47 44 48 53 56 56 60 39 57 51 42 28 32 47 33 28 34 27 27 27 32 42 46 46 46 47 54 55 56 58 61 61 61 64 67 68 68
33 33 40 41 44 49 47 48 51 58 62 59 59 61 58 51 41 31 43 30 39 31 29 26 29 31 30 42 40 41 48 50 55 54 56 57 58 57 56 62 64 65 67
33 36 38 40 46 51 52 49 51 53 65 61 56 52 61 66 44 48 27 42 26 41 31 37 33 29 39 36 36 43 43 46 50 53 54 54 54 55 57 64 64 70 68
32 35 37 39 42 48 45 47 40 51 55 58 59 44 52 55 62 53 49 32 44 31 36 39 33 41 30 35 36 42 44 46 51 54 53 54 55 57 60 63 71 68 71
33 34 35 38 39 45 43 42 42 46 52 54 58 60 52 55 51 54 50 47 38 37 36 37 50 34 34 29 39 39 42 49 54 55 56 57 55 54 54 56 60 64 62
40 34 32 35 36 39 41 44 42 42 43 49 50 53 51 46 42 47 42 42 46 38 40 39 38 39 35 40 34 43 48 51 50 54 59 59 56 53 55 56 55 56 56
36 34 34 33 36 35 37 38 39 40 42 46 46 48 47 41 48 39 44 48 44 41 40 35 39 42 33 34 35 46 48 47 52 56 59 59 54 53 53 55 56 54 54
31 31 31 31 30 30 32 33 40 42 36 46 44 46 38 43 48 42 46 50 54 46 42 43 38 37 35 48 43 46 38 52 51 52 56 56 53 54 52 53 53 52 51
23 28 29 29 29 30 31 32 36 37 39 43 47 48 51 42 39 44 51 52 55 66 57 44 46 40 44 40 41 41 41 49 52 54 54 54 53 54 52 55 52 51 51
26 28 28 28 29 30 31 32 38 39 38 41 34 42 42 37 39 43 48 56 60 58 67 49 47 45 41 37 46 43 44 53 55 57 55 54 53 51 53 52 54 51 52
26 27 28 30 31 32 32 34 36 35 36 38 41 42 44 44 46 47 51 52 58 63 65 54 47 44 48 52 48 50 53 50 51 58 59 53 52 52 52 52 54 56 54
28 29 31 32 32 34 35 37 39 39 40 44 47 50 51 44 56 54 54 55 60 58 60 61 53 57 60 55 57 62 51 49 59 58 55 53 52 52 54 54 54 59 63
31 32 33 35 36 39 41 40 40 39 42 48 53 57 57 56 61 59 57 59 56 49 58 64 82 65 63 70 76 70 70 64 44 50 53 53 54 56 60 58 56 56 56
33 35 36 37 41 40 40 40 39 44 50 51 58 61 56 60 60 62 55 54 50 59 62 65 68 90 85 75 64 59 56 56 61 47 51 58 63 66 57 59 60 59 62
35 38 38 40 43 40 28 37 39 46 55 58 61 55 55 58 58 51 48 54 56 61 71 92 96 87 72 61 60 58 70 76 69 63 69 83 60 60 61 65 63 65 63
37 38 40 45 50 31 42 44 42 42 50 58 63 55 56 56 53 56 58 59 59 66 96 97 95 77 65 61 60 73 89 93 88 63 68 71 65 68 67 64 69 64 59
40 42 43 44 42 40 43 44 45 39 55 64 58 60 56 46 58 59 64 63 70 78 78 72 70 69 66 65 92 94 79 76 78 69 76 86 72 76 64 63 64 62 66
43 46 46 44 43 35 44 44 46 44 54 59 62 61 60 60 65 60 59 68 83 94 73 58 60 61 78 76 58 58 69 84 84 73 70 90 74 76 67 64 68 67 68
50 49 45 44 44 40 44 48 48 49 50 52 54 56 63 64 65 59 61 96 87 70 54 59 72 68 60 59 61 65 92 94 88 78 73 83 85 86 82 79 72 73 70
48 45 41 43 45 39 52 55 55 54 58 59 59 68 70 61 58 62 85 70 73 59 69 82 56 57 61 64 67 71 89 96 93 92 75 90 91 91 94 81 86 88 79

GFSMA_sfc_rhum_012.txt.gz
RH
82 81 83 75 66 55 51 51 60 60 59 58 52 56 62 62 64 59 71 71 70 53 51 52 54 58 60 62 62 68 70 70 72 73 75 75 76 80 80 79 78 78 78
88 63 49 53 50 49 50 56 58 59 59 58 53 55 51 53 57 54 58 59 60 52 52 50 50 56 53 54 55 58 62 62 63 59 58 64 71 74 77 80 81 81 80
43 45 47 52 58 57 52 52 50 53 55 50 53 48 47 52 52 51 51 44 50 55 49 45 49 45 44 45 49 51 51 51 52 52 52 53 56 62 63 63 71 78 82
44 46 54 58 57 52 51 49 54 51 55 56 55 49 48 51 52 42 42 42 51 42 44 44 41 39 41 44 48 49 50 52 51 49 51 51 54 58 61 63 66 70 70
46 47 50 54 51 50 50 47 47 55 56 56 49 46 44 52 56 30 33 40 47 45 39 38 40 38 43 45 46 49 48 48 49 50 55 56 56 58 60 59 59 60 63
42 46 45 49 48 48 50 47 47 52 57 60 46 39 46 57 49 27 39 36 38 35 43 28 40 32 45 44 48 51 51 50 50 51 53 55 57 57 56 57 59 60 64
38 42 46 46 50 49 50 46 52 56 60 63 60 53 60 53 40 25 42 31 45 27 39 30 36 32 40 47 46 46 46 46 48 50 52 54 57 56 55 56 56 55 54
36 36 43 47 48 50 47 49 54 56 64 65 60 67 62 56 42 28 38 34 28 33 39 29 39 39 34 50 46 46 46 47 48 51 52 53 54 55 54 53 58 61 61
38 40 41 45 49 51 51 51 52 52 60 62 56 51 59 64 45 49 34 42 30 46 33 45 38 36 44 38 46 42 47 46 50 49 54 57 56 54 54 53 55 54 58
37 38 40 42 44 48 44 47 41 51 53 54 62 45 54 55 59 57 52 34 45 30 44 46 42 47 37 45 42 46 44 45 49 55 58 57 55 55 54 53 52 52 51
36 36 37 38 40 46 43 42 43 43 51 50 58 60 56 57 57 65 50 49 34 35 38 37 52 41 40 40 51 44 45 51 56 57 58 58 58 57 56 55 53 54 54
41 35 33 36 37 40 41 44 42 41 43 46 48 50 53 53 43 47 46 44 40 39 41 39 44 37 46 50 39 44 49 52 54 57 60 62 60 58 57 56 56 54 56
37 34 34 33 36 36 38 40 40 40 42 45 46 49 50 52 49 52 47 42 44 42 42 42 44 50 41 45 42 49 48 51 51 56 60 62 58 56 56 56 56 62 60
34 32 32 31 31 32 34 36 43 44 39 47 45 47 50 53 56 53 47 51 56 48 45 48 45 48 48 52 49 48 41 49 52 54 58 58 55 54 54 55 54 55 58
25 29 30 30 32 32 34 35 40 40 42 45 49 51 53 51 52 50 50 54 63 70 64 48 52 47 53 47 46 40 42 52 55 57 56 56 55 56 56 59 63 60 59
28 29 30 32 33 34 35 37 42 44 43 46 42 46 49 51 52 52 56 58 62 66 72 55 53 47 45 40 46 46 48 55 59 59 57 54 53 53 58 57 53 55 61
29 30 31 34 35 36 37 39 41 41 41 45 46 50 55 57 56 57 62 63 65 64 73 62 52 50 52 54 53 55 56 58 62 59 57 56 55 55 56 57 54 54 54
30 32 34 36 37 39 40 43 45 45 46 47 50 57 61 48 60 63 66 67 66 63 68 72 65 68 64 62 58 73 74 52 54 54 56 55 55 53 53 55 56 56 56
33 35 37 38 40 44 45 45 46 46 47 49 55 62 65 61 64 66 67 67 66 58 64 67 67 59 59 63 95 63 55 49 40 49 54 58 59 59 61 68 66 68 56
35 38 39 40 44 45 44 45 45 50 52 52 59 65 66 64 65 68 61 60 55 62 62 67 74 82 88 75 64 60 57 54 55 47 70 67 60 62 62 61 60 60 62
38 38 39 43 46 43 29 43 46 52 56 58 61 61 61 59 60 57 52 58 60 71 90 94 79 78 90 66 65 61 64 62 81 67 60 59 62 61 61 64 63 64 64
38 40 44 49 54 33 46 47 46 46 50 56 58 59 58 59 60 61 63 62 60 64 75 80 96 81 72 68 66 69 84 88 80 58 67 68 64 66 65 64 66 66 64
41 45 47 48 48 47 46 49 52 49 55 59 62 60 57 50 64 67 71 66 66 65 88 71 74 73 71 76 95 87 80 79 81 71 74 80 67 70 64 56 65 67 67
45 49 50 49 49 40 48 53 58 58 63 62 62 63 66 69 70 59 57 73 92 88 69 55 57 66 78 64 59 61 75 90 86 73 68 91 73 76 67 65 70 71 70
52 53 51 50 50 49 49 55 57 60 61 64 61 64 71 70 66 61 86 88 66 58 50 65 70 62 60 62 64 79 93 93 87 76 70 83 84 86 83 79 70 73 72
54 52 48 47 49 47 53 57 56 56 64 64 65 78 75 62 65 75 60 60 69 61 78 71 57 58 62 63 69 72 94 96 93 91 73 90 90 89 94 80 86 83 75

GFSMA_sfc_rhum_015.txt.gz
RH
83 80 64 52 51 50 48 55 56 53 53 52 51 51 52 53 56 57 61 65 54 52 50 51 56 54 54 54 56 56 57 58 59 58 58 57 58 61 69 74 74 76 78
66 50 50 50 49 49 53 52 52 55 52 52 46 48 47 52 58 48 53 55 51 49 49 51 48 48 49 50 55 53 55 56 56 55 53 55 56 60 60 60 60 61 68
44 48 50 51 51 52 46 46 48 50 49 47 49 48 43 54 57 40 45 49 54 48 48 44 44 45 47 50 51 54 52 52 52 53 53 57 56 54 53 56 58 61 63
42 46 55 56 49 49 47 46 54 52 51 55 54 52 46 50 44 33 39 47 50 42 47 42 42 42 47 49 49 51 52 51 51 54 52 57 58 59 60 62 62 62 61
38 41 50 52 48 49 50 47 50 59 56 50 46 50 47 56 45 27 42 36 46 40 46 38 44 42 44 44 48 51 50 47 47 48 50 53 55 57 58 58 57 56 58
41 48 51 48 47 50 51 47 49 53 62 61 47 43 51 60 45 37 45 31 42 34 47 36 48 44 46 44 49 49 50 48 48 48 51 53 55 55 56 57 56 54 56
41 45 51 50 50 50 51 47 53 56 60 63 60 56 59 54 46 34 46 39 36 35 44 33 42 42 48 46 47 45 46 49 50 50 52 52 54 56 57 56 56 55 53
39 40 48 50 47 47 47 48 54 54 58 65 62 69 60 52 47 26 41 42 38 41 44 29 44 42 45 55 48 45 46 49 52 52 52 53 52 56 57 57 55 55 54
42 42 44 47 48 50 51 50 52 50 55 54 58 45 47 60 59 50 33 45 31 47 36 44 44 38 46 48 48 52 47 47 50 55 56 58 58 58 58 58 56 54 53
39 41 42 42 45 48 45 46 43 51 54 52 61 44 54 57 60 60 53 34 46 34 42 52 48 46 49 50 48 49 46 47 52 55 60 60 61 60 59 57 57 56 54
37 38 38 39 41 47 44 42 44 43 51 51 57 59 57 59 61 70 46 50 37 34 33 37 49 46 44 41 56 52 45 49 53 57 61 62 61 61 60 60 58 57 55
42 36 35 38 38 41 42 45 42 41 43 46 49 49 53 51 52 54 54 46 44 35 41 38 37 50 44 55 48 46 48 50 54 58 60 62 61 60 60 60 59 58 56
38 35 35 34 36 36 38 40 41 42 43 46 48 48 51 53 54 58 52 49 49 43 42 50 45 50 45 42 50 48 49 52 53 56 61 64 60 58 58 59 60 59 57
35 33 32 32 31 33 36 38 45 46 42 50 47 49 52 54 56 55 54 60 64 51 48 54 53 52 49 54 53 50 44 52 53 56 60 60 57 56 56 57 57 56 58
27 30 31 31 33 35 37 39 43 44 46 48 52 53 53 53 57 61 63 63 70 78 71 59 60 52 54 54 51 46 45 52 55 57 57 56 56 55 55 55 56 56 56
29 30 32 34 36 38 39 41 46 48 47 50 46 50 53 57 61 67 69 66 69 76 86 62 60 55 52 46 50 48 49 55 59 62 61 57 56 54 54 55 57 60 61
30 31 34 37 38 40 41 45 46 44 47 50 51 52 58 61 68 63 66 70 75 75 84 70 61 58 63 62 56 55 57 62 88 73 62 56 54 53 54 54 60 64 61
33 35 37 39 40 43 46 47 48 49 50 53 53 58 62 49 69 68 71 74 74 71 77 85 77 62 56 54 55 59 82 58 62 55 57 55 54 56 57 64 61 61 65
36 38 40 42 43 48 48 47 47 49 52 54 58 62 63 68 71 69 69 71 73 62 74 70 70 62 64 70 73 93 58 53 43 50 55 57 60 62 61 59 57 61 67
39 41 42 43 47 47 46 44 50 55 58 55 60 64 66 69 70 70 68 66 66 69 68 75 83 86 73 76 86 60 58 55 57 48 59 66 62 58 60 62 61 59 60
39 42 44 46 50 44 31 52 56 58 60 60 61 63 61 63 60 56 52 59 60 68 87 94 79 91 80 62 65 62 65 67 80 83 61 58 58 59 60 64 62 63 64
41 46 48 52 54 35 47 51 53 64 62 63 67 63 64 61 63 62 64 62 61 67 82 97 92 69 68 66 64 75 93 80 86 60 64 75 66 65 62 63 66 66 66
48 50 50 51 50 50 48 52 55 65 68 71 69 66 63 53 66 72 74 68 89 84 67 66 70 67 67 79 93 91 88 88 83 70 76 87 67 70 62 56 66 68 68
49 53 52 51 52 44 53 54 57 66 72 72 70 69 70 69 78 64 74 96 77 74 61 53 59 70 74 64 61 70 87 92 84 69 64 93 73 75 66 65 71 72 71
54 53 54 52 52 54 55 57 58 65 66 71 68 68 70 73 67 67 74 76 65 61 54 65 72 64 63 65 67 80 92 93 86 74 68 81 82 85 80 78 70 73 71
54 53 49 51 55 55 58 59 57 58 66 64 78 77 68 60 64 69 61 60 74 63 88 82 60 61 64 66 70 71 94 96 93 90 73 90 90 90 93 78 84 77 74

GFSMA_sfc_rhum_018.txt.gz
RH
88 79 52 50 49 46 47 52 52 46 47 45 48 48 40 57 52 50 59 62 53 52 54 52 51 52 50 58 55 57 58 59 58 57 56 57 58 60 61 62 61 62 63
63 53 49 48 46 43 41 49 49 47 47 46 44 47 43 62 47 42 53 58 49 52 48 48 49 49 51 53 53 53 54 55 55 55 55 56 59 58 56 55 57 60 63
48 51 48 45 44 46 42 47 48 46 44 41 43 50 43 58 36 42 44 52 52 49 46 47 46 46 49 50 51 54 54 53 53 54 55 55 57 57 60 61 62 64 64
45 46 46 44 43 47 46 49 56 50 47 50 47 52 47 56 33 38 38 50 48 42 47 43 44 44 46 47 50 52 53 52 50 50 50 51 53 55 57 59 60 60 59
40 42 42 48 48 48 49 46 50 60 54 49 41 50 50 59 39 30 40 42 38 41 48 39 43 44 43 45 48 51 50 50 50 50 50 51 53 55 56 56 57 58 58
39 44 48 47 47 48 48 45 47 52 65 62 45 40 55 65 46 40 45 34 36 37 48 38 48 48 44 43 47 49 49 49 50 50 51 53 54 55 55 57 58 57 57
44 49 52 48 49 48 47 45 50 52 57 64 53 52 56 54 54 47 44 41 41 38 46 37 44 50 51 44 49 46 48 49 51 52 52 54 56 56 56 55 58 57 57
43 44 48 48 44 47 46 48 50 49 52 63 55 68 55 44 45 34 45 40 39 39 46 30 40 43 48 55 59 45 46 50 52 52 54 56 58 58 59 58 58 58 58
43 45 45 46 46 50 52 51 50 48 52 51 62 41 42 48 65 52 43 50 36 45 44 43 42 42 44 54 52 54 50 49 51 54 56 57 58 59 60 60 59 58 56
43 42 42 43 45 49 45 45 42 51 51 52 57 44 52 57 58 59 51 39 45 34 43 47 39 44 48 53 51 50 50 48 51 56 59 59 60 61 60 59 58 58 56
40 40 39 40 43 49 45 42 43 43 52 50 56 57 56 59 64 72 49 53 38 36 38 38 48 49 39 46 56 58 50 49 54 58 60 62 62 61 61 60 58 57 54
44 38 37 39 40 42 42 45 42 41 44 47 50 51 54 51 53 57 60 48 48 43 40 38 41 48 54 55 52 49 51 52 55 59 62 63 62 61 61 60 58 57 57
41 37 34 34 37 39 41 42 42 43 45 47 49 50 53 56 57 59 61 58 58 50 48 50 50 52 44 52 46 50 52 55 56 58 62 64 60 59 59 59 59 59 58
38 34 34 33 34 36 38 40 48 48 45 52 50 51 54 56 56 57 63 66 68 58 46 56 53 55 55 56 54 54 49 55 56 59 61 60 58 56 59 59 60 58 57
30 32 33 34 36 38 39 42 47 47 50 52 54 56 57 55 60 64 68 72 75 77 62 61 68 55 56 57 56 49 49 56 58 58 56 57 59 62 63 62 58 57 55
32 33 35 36 38 40 42 45 49 50 50 53 50 54 55 59 62 69 75 74 75 78 86 59 61 60 58 52 56 54 54 59 60 61 61 63 64 60 61 57 54 54 55
33 35 37 39 40 43 45 47 48 46 51 54 55 57 58 61 69 72 75 74 76 78 86 72 63 59 65 61 52 54 56 54 60 84 77 66 59 54 54 56 57 61 65
36 38 40 41 43 46 48 48 48 51 54 58 59 61 63 49 68 72 74 73 76 73 81 86 74 69 61 59 61 68 66 65 80 57 58 56 55 55 55 59 66 68 65
39 40 42 44 46 49 47 46 48 54 58 61 63 66 67 70 74 74 73 74 74 69 78 82 74 65 66 70 83 78 64 55 44 52 55 58 59 60 61 66 62 63 63
40 43 45 46 48 47 44 43 56 62 64 61 64 67 68 69 72 73 73 72 61 66 66 72 75 85 93 78 62 58 59 58 58 50 62 63 62 61 62 61 61 60 60
42 46 46 48 50 44 31 56 62 66 70 68 68 65 65 67 64 60 56 63 64 70 80 96 89 79 71 62 64 62 66 68 72 63 60 60 61 61 60 65 64 65 65
46 48 49 52 53 36 48 51 54 70 68 68 72 67 69 67 68 65 67 66 64 97 93 86 83 72 67 66 64 76 91 82 87 62 64 80 69 67 63 61 65 67 66
49 52 52 52 51 52 51 54 55 66 70 75 73 71 66 57 70 72 77 72 94 70 65 65 69 69 69 73 96 93 88 87 83 72 76 88 67 69 60 54 66 67 68
53 55 54 53 55 47 57 55 58 69 73 74 73 74 76 74 78 65 66 97 78 73 62 56 62 69 87 69 64 68 89 92 84 68 63 93 72 74 64 61 69 70 69
56 57 55 54 58 61 59 59 60 71 71 71 68 74 78 71 65 64 78 81 66 64 56 63 73 67 65 67 69 79 92 93 86 73 67 79 79 83 78 75 66 72 67
55 53 51 57 62 64 62 61 58 64 76 66 68 77 68 62 64 77 62 62 75 65 81 86 60 62 66 68 71 70 85 96 93 91 71 91 89 88 93 74 81 74 71

GFSMA_sfc_rhum_021.txt.gz
RH
66 62 46 48 46 40 38 34 29 25 25 25 29 24 34 30 24 32 37 60 56 54 52 53 52 54 56 56 56 56 56 58 58 58 58 57 60 60 59 58 60 63 64
62 53 48 46 40 37 37 30 26 25 24 23 28 27 31 29 25 32 29 38 53 50 51 50 50 50 52 52 53 55 55 56 55 56 56 58 59 60 62 63 63 64 63
50 50 46 43 39 35 29 30 28 25 24 22 23 29 26 23 26 23 31 30 31 49 46 47 46 46 48 49 50 52 54 54 54 53 53 53 53 56 57 59 61 62 61
48 44 43 41 36 32 30 29 32 30 26 26 24 28 26 31 22 24 29 25 31 28 37 44 42 44 46 47 48 50 52 50 51 52 53 53 52 55 56 58 58 59 60
41 39 40 37 30 31 31 27 30 34 28 28 24 26 28 36 26 24 23 28 30 31 30 34 41 41 42 44 47 50 51 50 51 52 54 54 53 55 56 57 58 58 58
38 35 35 32 29 31 29 29 27 33 33 33 26 22 36 42 31 28 26 21 27 30 28 31 28 26 40 43 45 49 50 49 51 51 52 54 55 56 57 58 58 57 58
36 34 34 32 32 31 30 26 31 30 33 34 27 28 30 32 33 33 27 24 30 27 30 28 23 23 23 41 43 46 48 50 51 52 53 54 55 57 58 59 57 57 57
34 33 33 33 32 32 32 31 31 31 32 38 30 36 30 22 26 20 27 27 26 26 23 23 23 24 26 27 36 47 48 50 53 55 54 54 56 58 58 58 58 57 57
33 33 33 32 34 35 35 36 35 35 32 36 37 22 27 27 32 28 24 26 24 24 25 26 25 24 25 27 36 38 48 50 54 56 56 57 58 59 59 58 58 58 57
33 32 33 32 34 34 34 33 31 35 33 35 35 29 30 29 31 30 29 25 26 23 27 27 25 25 26 28 37 45 49 51 54 57 59 60 61 60 60 60 59 58 57
32 32 31 34 33 34 33 32 33 33 35 30 35 35 34 33 35 40 32 29 27 26 28 28 28 27 26 29 34 38 49 52 57 59 62 62 62 61 61 60 59 57 56
33 32 32 32 32 32 33 34 35 36 34 34 33 34 32 30 28 33 33 32 36 31 31 31 30 27 28 31 37 48 52 56 60 62 64 64 62 61 60 60 60 61 60
31 30 29 27 30 34 35 35 35 35 35 35 37 32 34 35 35 36 39 41 41 37 33 29 29 30 30 33 35 51 55 56 58 62 65 66 61 59 58 59 59 58 59
29 28 28 28 28 30 32 32 36 36 36 37 40 38 36 36 37 37 42 48 50 37 33 32 30 32 35 36 46 56 43 55 57 60 62 61 58 56 56 57 58 67 70
26 27 27 29 30 32 32 33 31 33 35 38 40 42 41 38 40 41 45 47 50 54 48 36 39 35 40 42 45 41 41 54 59 59 58 58 57 57 63 62 63 59 64
26 28 29 30 31 32 33 33 33 36 36 38 38 41 42 41 42 44 47 49 51 55 62 43 45 44 44 41 46 46 43 57 60 63 62 60 59 62 58 60 63 59 57
27 28 30 30 32 32 32 31 32 35 39 42 43 44 46 45 45 45 48 51 53 53 61 55 48 48 48 48 43 44 51 53 53 63 61 60 59 57 56 56 57 58 58
29 30 30 32 32 33 32 30 35 40 43 46 47 48 48 43 51 48 50 52 55 54 61 67 59 56 49 46 49 61 54 44 42 49 56 58 59 60 60 61 61 63 64
31 32 33 33 33 35 32 31 37 43 47 49 49 51 49 49 50 50 53 56 57 55 62 69 63 52 55 63 62 49 43 40 36 51 58 60 62 63 63 64 63 62 63
33 35 34 34 36 34 32 34 44 48 50 50 52 51 50 52 53 58 59 60 60 60 57 60 69 84 66 55 52 50 50 48 49 46 57 59 62 61 62 63 63 62 62
36 36 35 37 37 33 28 44 49 51 54 54 53 50 50 57 64 61 54 58 57 63 68 93 79 70 65 53 53 52 56 60 64 55 54 51 49 50 53 62 61 64 65
38 37 38 40 41 31 48 52 52 50 53 54 53 50 51 61 61 66 65 64 63 75 97 86 80 62 54 52 54 63 84 77 81 52 54 60 54 54 51 50 61 64 65
39 39 38 38 38 40 52 55 54 50 54 54 52 52 52 50 61 61 67 70 74 81 68 62 58 57 59 60 92 91 80 74 73 62 65 73 55 57 50 45 63 66 67
39 38 38 39 41 41 58 56 57 52 54 53 53 54 56 59 62 64 58 92 75 64 52 49 55 60 77 71 60 62 73 83 74 59 55 83 58 61 54 53 66 68 69
40 40 39 43 45 49 59 59 56 53 52 53 52 54 58 57 63 62 74 84 59 52 52 61 70 70 65 66 67 71 86 88 82 65 59 69 67 74 69 67 59 66 66
39 39 42 46 55 49 61 60 56 51 55 54 53 51 62 61 63 71 63 58 66 55 71 80 51 52 57 58 69 62 83 95 90 88 59 85 83 81 87 60 69 65 61

GFSMA_sfc_rhum_024.txt.gz
RH
49 51 44 40 40 38 32 28 25 20 18 17 18 17 19 20 18 22 29 66 56 55 54 54 54 55 56 55 56 58 58 59 59 59 60 60 62 64 65 66 65 64 63
55 49 44 40 36 32 29 22 18 18 16 16 18 18 17 20 20 24 23 36 53 52 50 49 49 48 49 50 51 53 55 56 56 57 57 57 58 57 60 60 62 63 64
50 46 42 38 32 28 21 20 19 18 18 16 17 18 17 17 19 19 23 23 29 49 47 46 45 44 46 47 48 50 50 52 53 53 54 56 55 55 56 58 60 61 61
46 43 41 36 28 25 21 21 22 22 20 19 18 18 18 20 18 18 20 18 22 19 29 42 43 43 43 44 46 48 49 52 51 52 54 55 55 55 54 56 57 58 58
42 39 36 30 22 23 23 20 22 21 20 21 18 16 19 21 21 18 19 22 24 24 22 25 34 32 38 45 47 48 50 50 51 51 54 54 55 56 57 57 58 59 60
36 36 29 22 22 24 22 22 21 22 23 22 18 17 25 27 24 23 22 15 19 24 23 26 25 21 30 36 43 46 49 51 52 52 54 55 55 55 56 58 58 59 59
34 32 28 23 24 24 23 20 22 24 25 23 22 20 22 22 24 26 23 17 23 21 22 20 18 18 19 32 35 42 51 51 52 53 55 56 56 56 57 58 59 59 57
32 28 26 25 25 25 25 23 24 25 25 25 23 27 24 19 18 20 19 20 16 19 18 18 20 21 22 22 29 43 44 50 54 56 56 57 57 58 59 59 59 58 57
26 29 26 25 26 26 28 27 27 26 26 27 25 17 23 24 22 19 20 17 19 18 19 22 22 21 22 22 28 32 41 50 55 58 59 59 60 60 60 59 59 58 57
31 24 25 24 26 26 27 26 23 25 24 28 26 20 21 20 24 24 19 19 18 19 21 22 22 22 23 23 31 37 43 49 56 60 61 62 62 61 60 60 58 58 56
29 24 24 25 25 24 26 25 26 25 25 21 26 27 23 25 22 28 29 23 20 20 21 23 23 22 21 23 27 33 45 52 60 63 64 64 64 63 61 60 58 57 56
26 25 24 25 24 26 27 27 28 29 27 26 24 24 23 23 21 23 24 25 26 24 23 24 24 23 23 24 30 41 49 56 60 63 65 65 64 62 62 61 59 60 61
26 26 24 22 24 28 28 27 28 29 28 27 29 24 24 25 24 26 28 31 31 27 25 24 22 23 23 26 29 42 52 57 57 59 65 66 62 60 60 61 61 61 60
24 24 22 22 22 23 24 25 27 28 29 28 32 31 28 27 28 28 33 38 38 30 26 25 21 23 26 27 37 49 36 49 53 57 61 62 59 58 58 59 61 68 69
22 22 22 22 23 24 24 25 22 24 26 28 31 34 33 30 32 33 34 36 41 43 37 27 26 25 27 30 36 34 34 48 54 57 59 59 59 60 60 58 64 63 70
21 22 22 22 23 23 24 25 25 26 26 27 29 33 34 32 33 33 35 36 38 42 45 31 30 30 31 31 37 36 36 49 54 57 58 57 58 58 58 59 59 59 59
21 22 21 22 22 23 23 22 24 26 29 32 34 36 37 36 36 33 34 36 39 39 44 41 36 35 38 39 36 36 40 44 42 51 52 54 56 58 60 61 61 62 65
20 21 21 21 22 23 22 21 24 28 32 35 36 38 38 32 39 35 35 39 40 42 46 51 46 45 42 40 42 46 38 31 32 41 52 56 59 60 61 62 62 64 65
22 22 23 24 24 26 23 22 26 30 34 36 38 41 40 36 40 39 40 42 45 41 48 56 55 45 46 54 54 43 38 35 31 46 51 55 59 61 63 63 62 62 62
23 24 24 25 26 24 25 26 32 36 37 37 40 42 41 39 41 46 47 48 42 49 48 52 58 66 75 51 47 42 42 42 43 39 50 53 56 57 60 60 60 60 61
25 26 26 28 27 26 22 37 38 39 39 39 38 39 38 44 58 59 51 50 50 55 66 80 76 79 62 48 43 43 49 51 59 51 48 47 45 47 50 56 56 58 59
29 28 28 33 36 24 44 51 50 41 39 40 40 38 37 46 46 57 59 60 61 82 94 90 87 61 48 42 45 55 73 82 76 50 50 56 51 50 48 47 56 58 62
30 30 29 29 28 29 48 54 54 43 41 40 41 41 39 37 48 45 57 62 66 71 74 61 59 48 49 52 79 90 79 69 66 57 62 69 50 51 46 41 59 61 64
29 28 28 29 30 30 54 55 57 43 40 40 40 41 43 44 46 53 54 77 76 58 45 41 46 50 60 68 71 60 68 76 69 58 53 78 56 59 52 50 63 65 66
30 29 28 31 31 31 48 58 55 42 38 39 40 40 44 46 57 60 68 93 54 43 43 51 59 68 69 62 61 66 85 86 82 66 58 66 62 71 68 66 56 56 59
28 27 30 31 38 33 43 57 54 41 40 41 39 39 49 50 58 66 65 52 55 44 55 74 55 46 48 49 60 58 76 96 89 88 59 80 81 78 84 61 70 63 59

GFSMA_sfc_rhum_027.txt.gz
RH
43 42 48 43 42 38 34 33 30 26 20 18 17 18 16 19 18 22 41 67 58 55 54 54 53 52 53 53 52 54 56 57 58 58 58 59 59 60 60 62 63 64 65
44 48 45 42 37 36 30 26 22 20 18 18 18 17 17 18 18 23 25 48 54 51 50 49 47 46 46 46 47 48 50 52 53 54 54 56 56 56 57 56 59 60 62
51 49 42 39 36 29 24 23 20 21 22 19 18 18 18 18 20 18 25 29 46 49 44 44 44 43 44 45 45 46 48 48 52 52 52 54 55 56 56 56 56 57 58
49 46 43 40 30 32 24 23 24 24 23 23 20 20 20 20 18 18 23 22 28 22 42 38 37 38 39 45 48 48 48 49 50 51 53 54 55 55 56 56 57 58 58
45 42 40 36 26 25 25 22 24 23 24 27 24 21 23 26 24 18 20 23 26 29 29 32 29 34 30 35 42 48 49 52 52 51 55 54 55 56 56 57 57 58 59
42 42 36 30 25 28 26 25 24 25 26 25 19 21 30 30 30 27 22 21 20 26 28 32 33 28 32 30 36 40 47 53 52 52 54 55 57 58 57 58 58 58 58
38 35 35 28 26 28 26 23 24 27 30 27 30 32 28 24 24 27 29 24 22 25 24 25 25 25 25 31 33 36 47 48 52 54 57 56 57 58 59 58 58 58 58
33 32 31 28 28 30 28 27 28 31 30 28 27 34 33 25 22 24 22 21 21 23 23 22 23 26 29 30 36 37 38 45 56 56 58 58 58 60 60 60 59 58 57
30 34 33 28 30 33 35 33 34 32 34 33 27 21 33 34 27 26 25 23 21 23 24 26 25 25 27 28 32 34 37 45 53 58 60 61 61 61 61 60 59 58 57
32 34 34 29 30 32 33 33 27 30 30 34 31 21 23 23 29 30 27 25 22 20 24 26 25 26 26 30 33 36 38 43 54 59 63 63 62 62 61 60 59 58 56
32 36 32 29 29 31 29 29 31 28 28 24 29 31 24 29 25 32 36 31 25 24 25 24 26 25 25 29 33 35 37 46 55 61 65 65 63 62 62 60 58 57 59
36 31 30 29 29 31 32 32 31 31 27 27 26 25 25 25 25 26 29 31 30 28 27 27 27 28 28 29 30 37 41 48 56 61 63 64 64 62 62 61 59 60 59
40 36 31 27 29 33 32 31 31 32 30 30 32 27 24 25 25 27 31 36 37 33 31 26 26 26 22 29 31 38 44 50 51 56 62 64 61 60 60 61 61 61 61
34 35 27 26 26 26 26 28 31 30 30 32 36 36 32 30 29 30 37 43 46 40 33 31 26 24 28 30 34 42 36 46 50 54 58 59 58 57 58 59 60 61 60
29 26 26 24 24 24 24 25 24 26 27 30 35 39 36 33 34 37 38 40 47 51 45 34 32 29 30 31 35 34 36 46 50 52 54 55 56 56 57 58 59 61 61
24 26 25 24 24 24 24 24 26 26 26 29 31 33 36 35 36 37 40 40 41 46 51 38 36 33 33 32 38 37 38 47 49 52 54 54 53 53 56 57 60 62 63
25 24 24 23 23 23 22 22 23 25 28 31 33 36 37 37 38 37 39 40 43 43 49 44 42 40 41 43 40 40 45 44 43 49 50 50 52 55 57 59 59 61 64
24 22 22 21 21 22 21 21 23 25 29 32 34 37 38 32 44 39 39 42 43 42 50 54 48 50 49 45 44 51 46 40 39 42 48 51 54 55 57 59 59 60 62
24 22 22 23 22 24 23 21 23 26 30 33 36 38 39 40 45 42 42 44 49 44 50 53 55 50 51 52 64 59 46 43 33 44 49 52 55 58 59 58 58 59 59
24 24 23 23 25 24 24 24 29 34 36 35 36 39 39 41 42 49 51 55 48 53 53 58 63 70 69 68 58 52 48 46 49 40 50 57 55 56 57 56 58 59 60
25 25 25 27 27 25 22 36 38 39 39 38 37 36 38 44 49 51 50 56 57 60 68 81 80 77 80 59 56 49 53 58 60 62 58 54 53 53 55 58 56 57 57
28 26 28 35 42 23 45 50 52 45 40 38 40 37 36 44 42 48 54 54 56 69 84 86 91 82 64 58 50 61 75 79 89 57 60 62 57 59 57 54 56 57 59
29 29 28 28 27 28 43 52 54 48 43 40 40 41 39 34 46 46 50 54 62 64 66 69 65 60 57 56 75 82 84 82 73 64 66 81 67 63 56 47 59 60 62
29 27 28 28 29 30 46 52 56 48 40 39 38 40 43 43 46 49 53 72 72 72 62 46 50 52 58 61 77 93 78 76 72 65 63 88 67 67 60 58 64 65 66
29 28 28 30 30 28 44 50 54 45 38 38 37 39 41 45 48 53 59 80 72 55 47 50 54 60 64 61 56 60 83 89 85 72 66 75 74 78 73 72 65 60 60
28 28 30 29 30 33 32 44 52 45 42 43 40 41 47 45 51 55 58 62 66 56 57 67 63 58 52 51 56 57 76 97 94 90 70 86 88 88 91 70 77 69 68

GFSMA_sfc_rhum_030.txt.gz
RH
65 64 66 57 59 54 55 52 43 35 28 26 25 26 25 30 28 54 80 70 60 56 54 53 52 50 48 48 48 49 51 52 54 55 54 54 56 56 56 57 57 60 61
63 69 62 58 52 49 43 38 30 30 32 29 28 25 27 28 28 36 66 70 56 52 49 47 45 44 44 44 44 45 47 50 50 52 53 53 55 55 56 55 55 56 57
67 66 61 56 50 43 37 33 32 34 35 30 31 28 27 28 28 29 43 57 58 51 41 39 39 40 41 44 47 49 49 49 51 52 53 55 54 56 56 57 57 56 57
64 61 59 53 43 35 37 38 38 40 38 38 36 32 32 30 28 27 28 34 46 44 44 37 33 35 35 37 43 48 50 51 53 54 53 56 56 57 58 56 58 57 58
62 61 57 49 39 42 41 35 39 39 40 41 33 29 38 38 35 24 30 30 35 36 38 36 31 37 32 34 38 43 46 51 54 55 54 56 57 59 58 59 58 59 58
60 56 49 41 41 44 41 40 38 40 41 41 28 29 40 42 40 37 34 29 30 33 35 34 40 38 35 34 38 40 43 50 51 54 56 57 58 58 58 59 58 57 57
51 48 48 40 41 44 43 36 39 42 45 44 46 44 44 34 38 42 41 41 32 31 33 34 36 37 38 33 35 37 42 44 50 56 56 59 58 61 59 60 59 58 58
46 41 42 42 43 43 39 39 42 46 46 44 40 47 47 42 34 33 39 28 29 30 30 27 30 31 37 43 43 36 37 43 50 55 58 59 61 61 61 60 59 58 58
44 41 41 41 43 50 52 48 44 43 51 46 37 35 44 49 41 38 32 36 28 34 33 32 31 31 34 37 41 41 36 41 47 54 58 60 61 61 61 60 59 58 57
43 43 41 39 47 48 48 46 42 43 44 48 46 29 34 35 44 46 42 38 36 26 34 38 35 34 33 39 41 39 36 40 46 54 59 62 63 61 60 59 58 57 57
44 38 36 37 39 46 40 40 41 40 40 42 44 44 37 42 40 47 51 46 39 37 37 37 39 38 34 35 43 40 36 41 49 55 61 62 62 61 60 59 62 62 61
60 39 37 39 38 40 44 46 43 40 40 40 40 38 38 39 39 41 46 46 45 41 42 40 39 41 39 42 38 35 38 42 48 54 59 60 60 61 60 60 59 59 62
49 40 40 40 45 47 46 45 46 42 42 45 42 44 40 39 39 41 46 55 56 50 47 44 42 41 33 41 41 41 43 45 47 53 58 62 59 58 58 59 60 59 60
56 39 35 36 42 40 41 43 47 46 43 47 43 47 48 47 45 45 52 60 59 61 51 50 41 40 43 43 45 42 45 46 49 53 57 58 55 55 57 58 59 61 59
41 36 35 33 33 37 37 38 42 40 37 43 45 47 51 50 50 52 55 57 66 63 56 55 51 41 46 43 48 42 44 48 50 52 54 54 54 55 55 56 56 56 59
31 31 33 33 36 35 34 36 37 35 35 42 43 43 48 50 52 54 57 59 60 67 61 52 48 51 49 40 46 44 44 50 52 54 54 54 53 54 54 55 56 60 63
30 31 34 32 35 34 32 34 33 34 36 40 43 46 49 49 55 56 56 58 62 63 62 52 49 51 60 58 47 52 50 51 52 56 55 53 51 52 55 56 56 58 61
28 31 28 28 32 31 29 29 30 30 37 41 44 48 50 39 56 57 58 59 62 62 65 65 59 58 62 59 55 56 51 55 54 48 53 50 53 54 56 58 58 60 59
27 26 27 28 32 34 30 28 29 34 38 42 47 50 52 54 59 62 59 64 69 56 68 68 68 63 61 62 69 67 77 56 42 47 50 53 55 58 61 59 59 58 58
27 28 29 31 35 32 29 29 35 42 46 45 49 52 52 54 57 62 62 70 62 73 71 73 74 80 79 74 76 73 62 57 55 48 53 59 65 61 60 59 59 60 61
29 30 32 35 35 31 29 48 51 54 52 51 50 48 49 54 48 50 50 69 73 75 79 89 84 77 80 92 70 66 64 63 64 64 67 69 60 60 60 62 60 62 62
31 33 36 47 49 25 46 48 53 58 56 54 55 53 49 51 51 48 50 53 54 70 83 83 90 92 74 70 63 67 75 77 85 67 77 68 63 64 62 65 64 62 62
36 37 37 36 34 46 48 49 51 59 62 62 58 54 51 39 53 58 58 53 58 59 62 66 75 74 66 62 79 84 84 88 92 74 72 78 67 70 64 55 64 65 65
39 37 35 32 35 39 46 47 52 62 61 57 54 52 55 57 58 56 61 85 82 84 78 67 60 58 63 64 68 90 88 81 74 70 71 88 70 72 64 65 67 67 68
37 34 33 35 36 41 47 44 53 64 58 56 50 53 55 59 55 51 66 86 77 75 56 58 58 61 65 64 60 61 81 88 85 75 70 79 78 82 78 74 67 70 63
34 35 37 36 41 42 36 40 51 62 66 65 62 60 57 51 54 55 60 64 75 69 68 72 72 72 64 65 60 65 78 94 94 91 73 90 91 90 90 72 79 71 72

GFSMA_sfc_rhum_033.txt.gz
RH
75 80 85 88 78 70 62 60 45 33 29 28 28 28 28 33 67 79 89 73 62 57 54 51 48 46 45 45 45 46 47 49 50 52 54 54 55 56 56 56 57 56 59
72 79 69 66 62 54 47 38 32 33 34 32 30 28 28 32 49 75 78 76 60 54 48 44 42 42 43 44 46 48 49 50 52 54 52 54 56 56 56 56 57 58 56
75 65 63 62 55 48 38 34 36 36 38 33 34 33 30 30 31 62 68 68 62 55 41 38 37 38 39 40 43 48 49 51 54 55 55 55 56 57 58 58 56 58 57
64 62 61 59 49 46 43 41 42 43 43 41 37 35 36 33 30 38 52 60 58 52 46 36 33 35 35 36 40 44 45 51 54 54 55 56 58 58 59 58 60 58 59
59 58 59 54 43 45 44 37 42 42 42 41 35 33 42 40 37 29 34 38 40 47 48 38 33 39 33 36 39 44 43 47 51 53 56 58 58 58 59 59 58 58 58
62 61 57 45 46 47 44 42 40 46 44 43 30 36 44 46 42 36 35 32 39 37 38 36 44 37 34 33 36 40 42 46 48 53 55 57 59 59 59 59 58 58 58
58 54 51 45 49 43 41 39 46 43 46 46 44 44 50 39 43 43 45 45 37 34 36 39 38 39 38 34 33 37 40 42 46 50 54 58 59 60 60 59 59 58 58
54 51 46 47 46 46 42 40 42 50 48 47 40 54 46 42 38 36 46 34 32 35 32 30 31 32 39 44 44 36 36 39 45 49 53 57 58 59 60 59 58 57 57
56 46 43 45 44 46 48 46 48 47 52 47 38 37 46 47 44 43 37 38 32 38 36 38 35 33 36 39 41 42 37 38 43 48 52 56 58 59 59 58 58 57 56
46 45 46 41 45 54 51 49 44 49 50 49 47 34 37 37 41 36 42 41 40 33 39 41 41 39 37 42 43 46 39 37 42 49 53 56 59 59 59 58 56 58 63
52 48 48 44 42 46 48 44 39 41 46 47 51 47 40 46 43 49 48 47 42 39 40 44 44 42 40 41 47 47 42 38 43 48 54 57 58 59 59 58 58 58 60
61 50 46 42 42 40 39 43 40 37 40 42 42 40 40 39 42 43 49 51 48 46 46 44 46 47 47 49 42 43 41 42 46 50 55 57 58 58 58 59 58 57 60
54 48 46 44 45 43 46 44 44 44 44 47 44 45 43 42 43 45 49 56 58 58 52 51 48 48 36 48 49 45 47 47 49 53 57 60 58 57 58 58 58 57 57
48 46 46 47 48 41 44 47 51 52 48 52 47 50 50 50 49 48 54 60 68 66 60 54 50 50 50 52 48 47 53 51 52 54 57 58 56 56 56 57 58 60 60
50 46 47 46 45 43 41 43 47 42 44 50 50 52 53 54 55 57 59 62 66 72 63 63 57 51 53 53 52 48 54 52 54 54 54 56 57 56 56 56 56 56 58
40 42 44 45 45 37 40 41 44 41 41 48 50 47 50 54 55 58 59 62 66 71 70 60 55 59 54 46 52 51 49 55 55 57 58 58 56 56 55 55 55 56 60
40 42 43 48 41 33 34 40 42 39 39 42 47 48 51 52 56 59 61 62 64 69 71 64 62 63 68 67 59 60 58 52 55 60 60 57 55 54 55 56 57 58 58
39 43 39 34 32 32 34 35 34 35 40 43 45 47 51 42 56 60 63 62 67 68 77 72 67 71 70 69 65 62 58 53 60 62 58 55 54 56 57 59 61 61 59
40 40 37 40 32 33 30 32 34 37 40 41 44 49 52 55 60 65 65 67 72 59 77 82 75 70 71 71 75 73 75 74 52 55 54 55 57 61 64 62 61 60 60
36 37 34 31 33 31 31 32 38 44 47 46 50 53 53 55 60 65 63 69 65 78 83 83 81 84 83 70 75 90 70 64 63 48 54 58 63 64 63 62 62 62 64
40 42 45 41 34 33 35 53 55 54 54 52 51 48 51 54 50 52 53 70 76 82 89 94 93 87 79 80 78 71 72 67 65 63 66 68 72 70 63 65 63 64 67
49 48 49 50 45 44 62 62 57 57 56 57 57 58 55 55 53 48 49 50 53 78 96 98 89 83 78 77 70 71 76 80 84 67 88 76 67 68 65 67 66 65 65
80 78 73 73 79 67 51 52 52 58 60 63 62 60 55 43 57 62 60 54 59 56 59 67 81 82 85 72 78 86 88 93 93 79 75 81 69 73 66 58 65 66 67
87 84 71 43 40 46 50 49 53 61 64 61 57 58 60 62 64 60 67 82 80 81 79 74 76 71 70 66 73 87 82 78 74 70 70 88 70 73 66 66 68 69 69
66 39 35 38 41 56 48 45 58 65 64 65 60 63 65 67 60 55 66 86 81 79 65 61 60 63 65 66 62 67 85 89 87 76 70 80 78 83 80 76 68 70 65
34 36 38 39 44 42 40 39 50 65 71 69 72 68 65 56 57 57 64 72 77 71 73 77 75 76 66 69 65 68 83 95 93 91 76 94 89 89 91 87 79 80 69

GFSMA_sfc_rhum_036.txt.gz
RH
94 92 96 98 97 91 70 67 51 33 30 29 30 29 35 64 85 88 94 74 65 57 53 50 47 46 46 46 47 49 50 51 53 54 53 54 59 56 58 57 58 59 58
85 88 91 95 88 75 66 49 35 35 35 33 31 30 34 50 82 87 85 82 63 54 48 44 41 40 40 41 45 48 51 52 54 55 56 55 56 58 59 59 58 58 59
80 83 85 83 69 55 39 36 38 39 38 35 35 34 32 37 71 77 76 72 67 58 42 38 36 38 36 38 42 46 47 52 55 55 56 57 59 58 58 59 60 60 59
74 75 75 71 60 50 43 44 44 44 44 41 37 36 38 36 40 69 65 66 59 55 46 36 33 33 33 38 41 45 45 48 52 54 56 58 58 59 59 60 59 59 58
70 68 67 66 52 50 46 41 44 42 42 42 36 37 44 42 37 37 56 57 52 57 53 40 39 34 32 34 37 41 43 43 48 51 56 58 58 58 59 59 58 58 58
66 66 66 54 48 50 46 42 42 47 45 43 31 40 48 52 44 41 40 36 45 43 42 39 44 38 31 30 32 36 41 42 44 47 51 54 57 58 58 58 58 57 57
65 65 59 47 50 43 45 39 46 41 46 48 45 48 52 44 46 46 47 45 41 38 40 41 40 40 40 32 31 34 37 39 42 45 49 53 56 57 57 57 57 57 56
74 66 53 47 45 46 43 44 47 51 49 47 44 56 47 40 42 39 50 43 40 40 36 33 34 35 40 46 45 36 35 35 40 44 48 51 56 56 57 57 57 56 56
74 72 55 48 45 44 45 46 48 48 52 48 40 42 53 47 44 41 40 39 36 42 40 41 36 38 39 43 45 46 42 35 39 44 49 52 54 55 57 57 56 56 54
80 64 53 56 46 48 46 49 48 54 50 48 48 36 39 39 39 34 40 43 39 34 38 43 45 42 41 48 47 49 46 40 42 46 50 52 54 56 57 57 57 55 55
80 67 56 53 43 48 42 41 46 50 49 46 52 49 43 48 46 46 41 45 43 41 41 44 45 48 46 48 56 53 46 44 47 49 53 56 57 58 59 58 58 56 54
85 69 58 57 47 44 45 45 44 40 41 42 43 42 42 41 44 47 50 50 50 46 46 46 47 50 51 50 41 47 48 49 51 54 57 59 59 59 59 58 58 57 57
76 71 67 62 54 48 48 48 44 41 39 40 40 45 45 43 45 46 49 54 56 58 53 52 51 52 39 53 54 48 49 51 52 55 60 62 60 58 58 59 59 57 58
70 71 71 66 56 48 48 49 51 48 44 48 45 50 52 52 50 49 55 59 64 67 64 52 55 53 53 55 52 51 57 55 55 57 60 60 58 58 58 58 58 57 58
72 67 65 62 51 45 45 44 48 48 42 49 52 55 54 57 58 60 62 64 64 68 70 62 58 56 56 58 58 54 61 58 56 56 57 58 58 59 58 57 56 56 57
60 63 58 50 47 46 47 47 47 42 42 49 55 53 54 57 58 61 63 64 71 70 73 66 62 62 59 52 59 54 59 58 60 61 61 60 59 59 58 57 58 58 58
53 48 45 44 44 43 42 50 54 46 40 44 52 50 52 54 57 59 64 64 67 72 75 67 68 66 74 72 64 68 66 61 62 64 62 62 61 58 58 57 58 58 58
47 45 43 44 51 62 72 76 60 36 40 44 49 51 51 42 55 58 62 65 68 70 76 74 74 79 79 75 76 75 64 57 64 65 67 61 60 58 59 60 61 61 60
47 44 47 55 61 66 65 51 46 40 41 45 46 49 49 52 56 61 66 68 71 59 76 82 77 82 84 82 81 79 79 76 69 64 60 60 60 61 64 64 63 62 61
48 50 52 53 54 51 45 37 43 50 53 56 60 63 59 56 57 61 62 66 62 73 79 84 83 92 96 84 82 90 78 67 67 54 58 61 64 64 65 64 65 64 65
48 51 52 56 63 62 57 65 70 79 82 79 64 51 52 55 57 56 56 70 74 78 83 94 91 98 92 83 78 74 77 72 69 68 68 69 73 77 74 69 66 66 67
66 69 68 68 76 73 81 86 84 81 62 56 58 58 57 56 57 52 50 51 52 82 95 98 98 92 86 80 78 80 82 84 88 72 89 76 69 69 68 68 69 68 67
80 85 88 92 95 92 90 81 63 57 58 60 60 60 55 45 63 65 63 58 60 60 59 66 76 81 86 82 84 89 87 91 92 75 76 80 69 71 66 60 67 67 67
91 92 97 98 94 73 57 54 59 59 61 63 64 66 69 71 71 66 70 84 80 79 74 71 84 83 81 75 82 96 86 82 79 72 70 88 70 73 66 67 69 70 70
95 95 77 63 62 71 57 49 61 67 64 66 66 68 73 75 64 58 70 87 83 78 66 62 60 61 64 66 63 68 88 92 88 76 70 80 82 82 76 74 68 71 67
68 51 44 39 49 56 50 45 57 65 70 65 71 71 66 61 59 58 68 78 82 75 72 77 79 70 64 69 66 71 86 96 94 93 84 97 86 89 90 90 79 81 69

GFSMA_sfc_rhum_039.txt.gz
RH
98 99 98 99 98 94 81 74 53 34 31 32 32 34 51 85 89 94 96 76 66 57 54 50 48 47 45 45 48 51 52 53 55 56 57 55 57 58 59 60 59 58 58
98 97 98 98 98 93 74 65 42 36 36 34 32 33 44 83 88 89 90 85 67 55 49 45 41 41 40 42 45 48 49 53 56 56 56 57 58 58 58 59 60 60 59
95 95 96 98 97 85 65 41 39 40 39 35 37 34 37 68 82 85 83 77 72 59 45 39 38 39 37 40 43 45 47 51 53 55 56 58 58 59 59 59 58 58 58
88 95 94 96 82 58 46 44 45 44 43 40 38 38 40 40 74 78 73 71 61 59 46 37 33 33 36 36 38 42 45 44 48 51 56 57 57 58 58 58 58 58 58
83 86 88 89 66 52 48 46 47 43 42 42 37 40 46 44 50 61 67 60 58 62 53 38 38 35 31 31 35 37 40 43 45 48 52 54 56 57 57 57 57 57 57
79 80 83 75 57 53 50 46 44 47 44 43 34 43 52 55 47 51 57 48 50 51 46 44 48 40 36 31 29 34 39 40 42 46 46 51 55 56 56 56 56 56 56
80 76 74 64 54 47 43 41 44 41 45 48 48 51 53 47 48 46 47 46 45 44 44 44 43 42 41 42 36 35 37 40 39 42 46 48 52 56 56 56 55 55 55
85 80 68 59 50 52 45 44 46 51 49 50 47 57 50 43 44 41 54 49 45 44 39 35 35 36 41 47 51 44 44 39 39 42 46 49 52 55 55 55 55 56 55
81 76 72 56 48 45 44 42 48 47 51 50 44 48 56 50 50 43 45 42 38 46 42 40 38 39 40 44 48 52 52 48 44 45 48 50 53 54 55 56 56 56 56
86 80 71 60 56 50 47 52 48 54 49 48 49 36 41 46 44 37 42 46 42 37 41 44 45 44 44 51 51 54 47 46 46 49 52 53 55 56 57 57 57 57 56
88 87 78 71 64 70 70 60 53 48 52 47 54 51 44 45 45 44 40 44 46 45 44 46 48 50 46 51 54 53 48 50 53 55 56 57 58 59 60 59 59 58 57
92 85 76 75 74 71 72 62 46 44 45 46 47 43 40 40 41 44 46 50 49 47 50 50 51 52 53 52 43 50 50 52 53 56 57 58 60 61 61 60 60 58 57
91 86 78 79 76 72 64 63 59 56 49 45 43 41 42 39 45 45 47 54 52 58 56 54 54 54 42 56 58 50 52 54 56 59 61 64 62 60 60 62 61 60 57
87 82 77 76 75 65 62 65 66 70 56 47 41 45 46 47 45 49 55 58 60 66 65 51 53 54 56 59 56 52 63 57 57 59 62 63 60 60 60 60 60 59 57
84 79 78 76 71 67 59 53 56 59 52 56 55 54 53 53 54 57 62 62 60 62 66 58 54 54 58 60 60 61 64 61 60 60 61 62 61 61 60 59 59 59 57
79 82 78 73 66 55 49 51 54 51 51 58 58 49 51 55 55 59 67 67 68 66 69 66 61 62 60 52 62 62 64 61 62 64 64 63 61 61 60 60 59 59 61
75 73 69 66 52 46 44 48 54 61 67 67 67 62 50 52 56 59 67 68 69 71 74 68 68 66 72 72 68 72 72 72 69 65 64 64 64 63 61 59 59 59 59
78 69 57 45 45 52 57 64 73 79 78 76 74 69 50 44 57 58 59 60 62 69 74 75 76 77 77 75 77 82 66 59 66 66 69 67 64 61 61 61 61 60 61
59 53 51 55 61 67 69 67 65 62 63 60 54 49 50 51 56 60 62 64 70 58 72 78 77 83 84 84 88 86 84 80 70 66 63 63 63 63 65 64 62 62 61
57 56 60 66 65 64 66 64 64 67 68 70 73 75 78 81 76 67 61 63 60 68 77 82 80 88 95 88 94 89 78 74 71 58 62 64 66 65 65 65 66 66 67
55 57 61 64 64 65 69 82 85 92 96 97 98 94 78 67 63 60 57 66 74 78 83 93 91 98 96 94 86 76 83 77 77 74 71 72 79 77 76 72 67 66 68
63 66 68 73 82 79 84 87 92 95 99 98 93 68 56 54 57 56 57 57 59 83 94 97 97 90 93 92 88 84 85 92 90 81 88 76 72 72 67 68 69 69 69
81 86 90 92 96 94 90 96 100 94 87 62 56 57 55 50 68 67 64 61 64 61 60 71 82 84 81 80 86 92 91 92 92 80 77 83 70 73 66 60 67 68 68
92 94 96 97 98 98 96 94 84 69 59 58 61 64 69 71 72 67 72 86 81 82 78 73 82 79 84 82 82 96 94 87 79 74 74 90 70 73 66 67 70 70 70
97 97 98 98 94 91 74 70 61 61 60 62 65 70 73 75 67 59 72 87 85 81 67 62 61 63 65 65 63 67 86 92 88 78 70 81 84 83 76 73 67 72 68
98 95 81 64 78 74 54 50 63 65 68 63 69 68 66 62 59 60 74 79 84 76 73 81 75 65 63 68 67 72 88 96 95 93 86 98 88 88 92 91 83 83 72

GFSMA_sfc_rhum_042.txt.gz
RH
99 99 98 99 99 98 92 75 54 35 34 33 34 43 76 89 91 96 96 76 68 58 54 50 50 47 46 47 51 53 54 57 58 58 57 58 59 60 60 60 60 60 60
98 98 99 99 99 97 85 74 46 36 36 34 34 40 70 87 89 90 94 87 68 57 51 46 43 42 42 44 47 48 52 55 56 56 57 58 59 59 59 59 58 58 58
98 97 98 99 98 97 75 55 40 40 40 36 36 37 51 85 88 87 90 84 74 63 48 41 42 39 39 43 44 47 48 48 50 53 56 58 58 59 58 58 58 58 58
94 98 98 98 98 91 64 47 46 45 44 40 38 40 41 62 83 85 80 76 65 61 50 39 35 36 37 36 38 41 42 44 45 49 54 55 56 57 56 56 56 56 56
91 94 97 97 92 75 57 46 49 45 44 43 38 43 47 44 64 67 74 64 62 65 55 39 39 37 32 32 33 35 38 42 42 44 48 50 53 56 56 55 55 55 56
89 92 96 96 81 65 56 50 46 48 46 44 32 43 55 57 50 71 68 57 56 56 49 51 49 42 42 34 30 33 37 39 40 41 45 48 50 53 56 55 54 55 55
86 88 88 89 77 63 48 43 47 44 48 50 51 54 55 51 48 49 54 54 47 48 46 45 44 43 42 42 45 39 39 41 40 40 43 46 49 52 54 55 54 54 54
86 86 85 86 75 66 52 44 46 51 49 54 49 58 50 46 48 47 57 48 49 49 43 38 38 40 45 48 52 45 47 44 43 42 44 47 50 53 54 55 54 54 54
88 88 84 81 72 69 57 44 43 46 51 52 49 50 58 53 52 47 48 51 45 50 45 42 41 42 43 48 52 54 50 45 45 47 48 50 52 54 54 55 55 56 55
90 87 86 82 74 72 64 57 64 76 63 52 48 39 42 51 50 43 45 48 44 41 46 46 45 45 45 54 55 53 49 50 50 53 55 57 56 57 57 57 57 57 57
91 90 88 86 78 74 74 71 71 62 65 56 54 49 42 48 43 45 41 46 48 48 46 45 49 50 47 52 56 55 48 50 52 54 57 57 58 59 60 59 59 59 58
96 93 89 82 81 75 77 78 73 65 59 55 50 41 42 43 43 41 38 42 41 45 51 53 53 53 53 53 45 50 52 52 56 57 61 62 61 61 62 62 61 60 60
98 97 94 88 82 78 78 78 74 73 70 64 56 49 44 40 43 42 43 49 44 53 54 57 56 57 46 57 59 50 54 54 56 60 63 66 64 63 63 63 63 62 60
92 90 90 87 84 82 82 80 77 74 68 71 60 53 48 46 45 43 48 54 57 58 62 52 58 59 57 59 57 51 63 57 58 60 63 63 62 63 63 63 62 61 60
96 94 91 90 90 85 76 72 73 64 58 64 60 57 64 64 54 56 57 54 50 54 53 53 55 53 57 60 58 64 68 63 60 59 60 62 62 63 62 62 61 60 59
94 94 92 90 86 79 73 66 60 53 54 59 60 55 55 60 63 66 67 62 58 59 60 61 57 52 52 48 59 65 68 62 63 62 62 62 62 63 62 62 60 59 60
93 91 85 80 73 69 61 57 52 54 62 66 69 68 69 68 73 69 67 71 68 66 66 60 65 64 67 66 64 71 73 77 76 67 64 63 64 65 63 61 59 59 59
84 78 72 64 55 52 54 58 61 68 73 78 80 83 84 80 83 78 76 73 70 70 73 64 73 74 74 69 73 80 66 59 69 65 67 67 64 63 63 63 62 60 61
69 62 54 55 58 65 72 72 73 76 77 80 78 70 74 76 87 96 96 95 84 60 70 76 76 80 83 83 88 86 86 85 72 69 65 65 65 66 66 66 63 61 62
60 60 62 63 65 66 66 66 66 70 76 82 86 87 91 96 99 100 97 88 67 74 74 77 79 86 92 83 94 93 87 84 74 61 65 68 68 66 64 64 65 66 67
68 68 65 68 71 74 75 81 84 89 94 96 97 99 100 99 94 91 79 68 69 71 81 95 96 97 94 92 91 80 84 80 81 79 77 76 79 78 76 72 68 68 68
74 74 76 79 80 78 81 83 90 95 98 100 98 96 92 86 77 66 58 55 59 84 90 96 96 89 91 92 92 89 88 92 89 82 89 74 78 70 68 69 70 69 69
86 90 89 89 92 90 88 93 96 98 97 96 90 70 64 55 78 71 67 60 65 62 62 78 89 90 85 84 88 91 93 93 92 81 88 83 71 75 67 61 67 68 68
93 95 97 97 98 97 95 95 92 92 79 63 62 62 71 76 76 69 72 87 80 80 78 75 85 84 88 85 87 90 89 85 76 73 78 91 70 72 65 66 70 70 70
97 100 100 100 99 98 92 87 73 59 57 60 65 70 75 78 67 58 72 91 84 81 65 62 61 65 66 65 62 71 90 93 88 78 72 82 85 86 75 72 65 70 67
99 98 99 99 92 98 84 74 61 63 69 63 73 69 64 63 59 60 76 81 81 77 76 83 75 67 65 70 69 76 92 98 96 94 88 95 94 88 94 91 94 82 66

GFSMA_sfc_rhum_045.txt.gz
RH
76 76 77 76 78 77 68 59 42 31 27 24 27 35 45 50 57 61 58 75 70 60 54 52 51 47 47 50 52 53 56 57 57 57 58 60 60 60 60 59 59 59 59
75 80 79 78 78 76 68 54 39 29 27 25 25 30 44 50 55 61 57 55 70 62 53 48 44 42 44 47 47 50 54 53 55 56 58 58 58 59 59 58 59 59 58
76 79 78 80 76 75 66 54 34 28 29 25 25 27 44 48 53 56 58 54 52 65 53 44 43 39 42 43 44 47 46 46 49 52 56 57 57 57 56 56 56 56 56
75 79 80 79 75 75 64 51 38 33 30 28 27 27 32 48 50 52 56 50 46 40 48 42 38 39 38 36 38 39 39 42 43 46 49 52 54 55 55 54 54 54 54
74 75 78 77 76 76 62 48 39 33 33 32 29 30 30 34 48 49 49 48 46 44 38 43 47 42 34 32 33 34 37 39 40 42 46 47 50 53 56 54 54 54 54
76 76 76 77 77 77 67 48 40 36 33 33 22 28 36 34 34 49 46 41 41 45 38 44 40 37 41 34 30 32 35 39 40 39 43 45 49 50 53 56 54 54 54
78 80 76 75 78 76 68 51 39 38 38 34 37 38 39 37 35 38 46 41 40 40 35 36 30 27 27 41 42 39 38 44 44 42 42 45 47 50 53 54 56 54 54
77 80 78 78 76 74 67 53 42 41 40 38 36 42 40 35 35 34 36 38 36 36 34 32 29 30 32 31 38 45 46 43 44 44 45 47 49 51 53 54 54 54 54
76 79 78 76 77 72 66 57 47 46 45 43 40 34 47 42 37 37 37 38 35 36 34 32 29 31 31 31 37 41 48 45 46 47 50 52 54 55 55 55 55 55 55
80 80 78 76 78 77 71 63 54 55 54 49 49 38 36 36 41 38 34 37 35 33 35 34 30 32 32 37 49 49 46 46 47 50 53 55 57 57 58 57 57 57 56
83 84 80 79 77 78 78 75 64 54 54 53 51 43 37 41 36 42 39 38 37 34 33 30 32 30 34 36 40 44 47 48 50 53 56 58 60 60 60 59 59 58 58
90 86 84 81 78 77 76 75 71 67 61 58 51 42 35 35 40 31 38 36 36 36 36 36 34 34 34 35 39 47 47 49 51 55 58 61 61 62 62 63 62 61 60
95 91 88 87 83 80 77 77 77 75 69 66 62 49 40 44 46 39 44 46 46 44 37 37 38 38 34 36 38 46 50 50 53 57 62 65 63 62 63 64 64 63 61
86 85 88 86 82 79 78 79 81 78 73 68 64 53 51 42 45 50 63 73 71 58 49 39 45 40 37 38 42 47 38 54 56 60 61 61 61 61 62 64 64 63 62
85 82 86 89 85 80 78 78 81 79 71 68 67 63 59 68 71 68 64 52 50 54 46 47 46 40 40 41 44 38 41 54 59 58 59 60 60 61 62 62 62 61 61
85 86 85 85 85 82 80 79 78 71 71 66 61 57 59 60 66 70 74 71 66 48 50 50 52 47 46 42 47 46 46 59 58 61 61 60 61 62 62 62 61 61 60
85 86 84 82 79 78 74 73 69 62 64 62 61 62 68 69 74 77 83 82 86 86 87 81 78 78 81 67 54 48 49 49 47 62 63 62 62 63 63 62 61 61 60
83 81 78 77 72 69 64 62 61 62 64 71 76 77 82 80 92 92 88 86 89 94 91 90 81 77 69 60 53 52 50 46 48 56 64 64 62 63 64 64 63 63 61
74 69 67 62 58 60 60 61 63 68 73 76 81 83 78 79 89 94 96 99 99 98 95 89 79 73 65 57 57 55 56 55 52 62 63 63 65 66 67 66 64 62 62
61 57 59 61 65 66 67 70 72 78 80 80 85 88 89 92 98 100 100 100 97 90 84 84 80 72 66 60 64 65 61 53 52 47 56 62 67 65 64 64 63 64 66
68 69 73 72 71 71 71 78 80 85 90 95 97 99 100 100 100 100 92 86 89 85 80 81 76 70 67 63 62 58 62 56 58 58 58 54 54 53 54 62 64 66 67
78 79 81 84 87 83 86 86 88 93 97 99 99 99 97 96 91 91 88 82 75 78 84 79 78 70 64 64 62 63 70 71 78 51 59 58 53 54 51 51 61 67 68
88 91 92 90 93 90 87 90 94 98 99 99 95 91 86 80 89 87 71 57 63 61 60 64 70 65 65 61 80 84 79 77 79 61 60 65 52 54 51 47 63 66 67
95 96 97 98 97 96 96 96 95 95 92 88 73 76 76 70 70 61 59 73 65 64 63 63 63 60 60 63 70 86 82 69 60 56 55 80 54 55 49 49 62 66 68
98 99 99 100 100 98 92 74 68 59 61 66 71 67 66 62 60 57 59 78 70 68 57 61 60 65 65 64 60 61 77 80 79 62 55 64 63 63 60 59 51 62 64
100 98 100 100 97 95 82 83 58 50 56 56 59 56 60 56 60 60 69 76 68 59 59 66 58 54 53 54 68 60 73 93 89 84 60 76 71 72 81 55 60 55 52

GFSMA_sfc_rhum_048.txt.gz
RH
50 50 52 49 46 47 48 50 47 36 30 26 25 26 27 28 31 37 40 75 72 61 56 52 52 50 50 53 53 55 57 56 57 58 59 60 60 60 60 60 59 59 58
49 52 52 54 51 49 48 47 45 35 30 25 24 24 25 26 29 35 34 50 73 65 54 52 46 45 48 49 49 53 52 52 55 56 58 58 59 60 58 58 58 58 58
49 50 51 53 55 52 48 49 43 34 29 24 24 22 26 26 29 34 37 36 50 69 58 47 44 42 44 46 47 47 45 44 48 51 55 55 56 57 56 56 56 56 56
51 51 53 53 53 54 51 51 45 38 32 28 25 24 24 29 28 30 36 37 37 34 50 48 44 41 42 39 41 40 39 41 41 44 47 50 52 55 56 55 55 55 55
54 53 52 52 54 57 55 52 48 41 36 32 28 25 24 27 30 30 33 37 37 34 32 49 51 49 38 36 37 35 37 38 39 40 44 47 48 51 53 56 56 54 54
57 58 53 52 53 60 59 54 48 42 37 34 24 24 27 24 27 31 30 32 32 36 33 32 34 34 40 34 32 32 34 37 40 40 41 44 46 50 52 54 56 56 54
59 62 57 53 54 58 61 57 50 46 41 33 31 33 30 28 26 27 32 32 32 33 31 32 29 25 29 42 43 38 36 42 44 44 42 44 47 49 52 54 55 55 55
64 63 63 56 56 59 61 62 55 50 44 35 39 40 42 33 29 27 28 31 30 29 29 28 26 25 25 24 32 44 41 39 41 44 46 48 49 51 54 55 54 54 55
66 67 69 63 64 60 62 64 60 55 52 40 35 40 49 50 35 31 30 31 30 29 29 28 27 26 26 25 36 38 44 44 46 48 50 53 55 56 57 57 57 56 56
77 69 71 70 68 72 64 64 59 57 55 51 40 33 34 33 38 44 33 33 29 27 29 29 27 28 28 28 39 49 47 45 45 48 51 54 55 58 58 58 58 58 57
80 80 73 76 72 72 74 67 65 59 58 50 48 42 37 36 31 37 40 38 34 31 30 30 28 27 27 30 34 40 46 44 48 51 53 55 57 60 60 60 60 60 59
78 84 81 79 77 73 73 71 72 67 64 61 49 43 40 42 37 32 33 39 40 33 33 35 33 29 30 28 32 46 46 46 47 52 56 58 61 62 63 64 63 62 61
83 87 84 82 79 76 74 75 74 74 72 72 64 57 52 52 42 40 46 45 40 44 39 41 33 35 32 31 31 48 50 46 49 52 57 61 61 61 62 63 65 64 64
65 68 79 84 82 79 76 74 78 78 76 80 72 62 52 51 44 43 63 68 64 57 64 64 56 49 36 31 36 48 33 43 53 54 58 61 60 61 61 62 64 64 64
62 64 68 82 84 84 82 80 82 81 80 80 78 68 56 54 62 65 66 69 70 77 68 61 54 45 44 40 42 41 39 46 55 58 58 59 60 61 61 62 63 63 62
53 63 72 75 85 86 84 83 85 82 82 81 75 65 57 55 63 70 67 69 64 65 74 69 75 71 65 62 77 79 68 64 62 56 59 60 61 61 61 62 63 62 62
69 72 71 77 85 85 82 84 83 82 81 76 70 67 74 73 80 84 81 80 84 87 86 93 89 91 95 96 91 79 66 52 44 53 56 60 60 62 63 62 62 62 61
77 78 79 80 80 80 79 80 76 72 70 70 73 75 79 78 91 89 87 93 93 96 94 95 99 97 98 94 77 70 55 43 43 48 57 61 64 62 63 63 64 64 62
72 69 71 73 72 70 66 62 61 62 67 73 76 80 86 87 94 96 94 97 99 100 99 94 94 92 75 66 66 56 49 46 42 53 55 53 56 59 63 65 65 64 63
57 59 56 58 58 58 61 64 71 77 79 80 82 83 87 89 96 100 100 100 100 99 96 89 80 76 73 65 61 58 50 45 44 36 45 51 57 60 63 65 65 66 67
72 74 70 70 69 67 70 78 82 85 89 93 97 98 100 99 97 99 98 98 98 97 83 84 77 69 62 54 50 48 51 48 49 47 45 45 44 44 46 51 54 58 60
88 90 86 87 89 82 83 84 86 89 94 99 99 99 100 100 98 94 92 84 74 74 84 77 76 64 53 48 47 50 60 60 66 47 49 51 46 45 44 43 51 57 61
94 94 93 92 93 91 89 90 92 97 99 99 98 96 88 76 82 77 77 66 64 67 67 63 59 50 51 51 71 78 68 67 69 54 52 57 46 48 44 38 52 56 60
99 97 96 96 98 96 97 98 98 95 89 84 80 80 70 64 60 60 56 65 61 55 52 51 55 52 51 50 53 75 77 64 54 49 48 72 50 50 45 44 55 58 60
98 100 99 99 99 97 96 94 81 67 68 66 61 61 59 57 54 58 56 69 59 57 54 56 58 60 63 64 61 56 70 74 72 58 52 60 57 61 59 59 51 59 60
100 98 100 100 96 80 75 61 48 43 49 52 50 46 54 53 60 60 61 67 62 52 49 53 48 46 46 44 57 58 66 87 84 81 55 72 70 74 81 56 59 53 52

GFSMA_sfc_rhum_051.txt.gz
RH
45 46 44 44 44 43 44 51 47 41 38 33 30 30 29 28 28 35 53 75 75 64 58 55 53 53 53 54 55 57 57 58 58 60 61 60 61 61 60 61 61 61 61
45 47 46 46 45 43 43 43 45 43 36 31 30 27 28 27 26 33 42 60 75 68 57 54 50 48 51 52 53 56 52 54 55 58 59 59 60 59 58 58 58 58 58
45 46 48 48 48 45 44 44 44 41 37 31 29 27 29 28 29 30 36 48 60 71 65 54 48 46 48 48 50 51 47 46 49 51 53 54 56 57 57 57 56 56 56
47 47 49 49 46 48 50 47 48 46 40 35 32 30 28 30 28 28 35 36 48 46 61 57 49 45 46 44 45 44 41 42 42 43 46 47 49 52 55 56 56 55 55
47 48 48 48 45 51 59 52 50 46 45 41 36 32 30 33 31 27 31 38 41 42 45 62 60 56 48 41 42 39 39 39 39 39 41 45 46 49 50 53 55 56 55
51 53 51 49 46 52 58 55 53 50 46 44 33 31 35 32 34 34 32 31 37 44 43 45 48 47 51 40 40 37 36 37 39 40 41 42 44 48 50 52 54 54 56
56 57 56 53 51 52 56 56 55 55 53 45 45 40 39 34 30 32 34 34 38 40 39 39 38 36 42 43 40 39 37 38 43 42 44 44 46 48 50 52 54 55 55
58 58 60 60 55 57 57 58 59 60 54 48 47 52 56 44 36 32 31 33 35 37 38 35 35 36 38 40 50 42 44 40 38 42 44 46 48 50 54 56 56 55 55
66 63 64 63 62 59 62 62 63 64 62 52 46 50 66 64 47 39 34 34 35 37 37 36 33 33 32 34 50 47 42 41 43 45 48 50 52 54 56 57 58 57 57
69 72 73 70 68 67 63 64 63 70 64 61 54 43 47 44 57 53 44 38 36 33 36 38 32 33 35 41 49 51 54 48 43 44 46 50 52 54 56 58 58 58 58
64 73 73 75 77 76 76 68 68 70 64 59 60 64 52 49 42 51 52 47 39 37 35 35 37 35 35 40 51 53 50 46 44 47 48 50 53 56 59 60 60 60 61
63 68 78 80 81 83 80 79 73 78 70 71 56 61 56 55 51 48 53 49 45 42 39 40 38 35 36 37 42 53 52 47 46 46 49 52 54 58 61 63 62 62 61
64 71 80 83 84 83 83 82 85 83 79 77 76 63 60 58 67 53 61 58 53 45 44 44 44 44 33 42 48 51 50 46 45 49 53 56 56 58 60 63 63 63 63
52 54 75 82 84 84 85 86 89 86 82 81 80 73 64 60 61 55 67 73 76 72 68 60 57 53 50 45 47 51 46 51 46 52 56 57 57 58 59 62 61 63 63
46 50 58 73 84 86 88 90 92 92 90 86 86 84 78 78 78 80 84 87 82 86 69 62 65 50 51 50 51 49 63 64 61 64 63 59 58 59 60 62 62 62 63
49 48 53 64 80 88 92 95 96 95 94 93 94 91 84 72 78 84 84 83 88 89 94 90 90 82 68 63 76 83 81 82 78 70 63 57 58 61 63 63 62 63 63
66 68 64 65 68 88 86 92 94 95 96 95 92 83 81 80 88 90 91 90 92 92 92 93 91 93 94 94 93 94 89 78 64 59 56 55 56 58 61 63 63 62 62
69 73 77 78 79 82 82 89 89 90 88 85 83 84 85 81 90 88 91 94 95 99 97 99 99 100 100 100 99 99 79 56 51 48 51 56 60 63 62 60 61 62 62
58 62 67 72 74 75 73 70 70 74 78 80 83 82 84 84 92 95 96 98 99 98 99 98 99 99 99 96 85 68 62 55 44 48 52 51 50 52 57 61 64 64 64
65 62 61 60 61 63 65 67 73 79 82 83 84 85 86 90 96 100 100 100 99 99 99 99 98 96 89 78 74 69 63 57 54 39 43 48 52 52 56 57 57 58 60
75 76 74 71 69 69 71 78 81 86 91 95 97 98 100 95 92 95 96 99 99 99 99 98 86 80 75 70 66 60 60 60 60 56 56 54 58 58 55 54 52 53 53
88 89 90 90 91 87 84 85 89 94 97 98 99 98 98 98 96 96 96 96 90 85 88 85 86 74 63 60 57 64 81 74 76 61 63 61 58 57 55 54 52 53 56
93 94 96 96 97 93 92 97 94 97 99 99 99 98 93 81 79 75 76 70 66 65 66 70 70 63 60 62 88 89 80 79 78 64 66 68 59 60 56 44 52 55 58
98 97 96 97 98 96 97 98 99 98 98 97 86 77 69 62 61 59 57 70 68 65 62 53 62 62 62 61 63 81 85 79 69 63 63 78 63 64 58 57 57 59 60
97 99 98 99 99 98 88 75 71 73 72 66 60 57 54 50 53 56 63 77 68 63 52 58 56 57 60 61 62 70 82 84 82 73 66 74 75 76 72 69 64 60 57
100 97 100 97 74 71 61 54 45 45 49 50 48 45 54 58 60 61 68 69 72 61 60 61 58 55 53 55 51 62 80 93 87 90 79 90 90 87 96 83 83 73 66

GFSMA_sfc_rhum_054.txt.gz
RH
69 63 66 63 69 72 72 80 81 68 57 50 47 46 46 45 43 70 86 84 76 66 59 58 56 56 56 57 59 58 59 59 61 61 61 62 62 61 60 60 60 60 60
66 70 68 65 65 66 68 71 74 66 58 54 46 42 44 44 42 62 82 88 78 72 60 57 56 54 55 55 58 56 55 56 58 60 60 60 60 59 59 59 58 58 58
65 65 70 72 71 64 61 64 64 66 59 50 47 42 43 43 41 46 75 81 83 76 68 57 54 52 54 54 56 54 50 51 51 53 54 54 55 57 57 56 56 56 56
61 67 71 72 71 70 69 70 72 73 64 56 52 47 44 45 43 43 53 73 78 69 73 66 56 51 51 53 54 51 47 46 46 46 47 47 48 50 52 55 56 55 54
60 61 70 72 67 73 75 73 75 73 68 62 52 52 46 50 45 38 50 54 72 72 71 69 66 62 56 51 49 49 47 44 42 41 43 45 45 46 48 50 52 54 55
68 66 67 69 66 73 80 81 76 76 68 66 44 46 50 49 51 49 46 47 55 59 66 66 68 64 64 50 47 47 46 45 43 42 42 42 43 44 47 49 51 53 54
72 82 72 67 68 65 70 72 79 78 77 69 63 60 56 47 44 51 51 51 53 54 58 59 60 61 61 56 48 46 44 44 45 45 44 44 44 45 47 49 51 53 54
75 79 83 77 77 77 78 74 72 78 80 72 69 66 66 61 54 45 48 47 52 56 52 52 49 52 54 59 58 49 47 45 46 42 44 46 47 48 51 54 55 54 55
87 84 77 77 92 89 87 79 83 80 80 84 58 67 84 80 64 56 44 51 49 56 55 50 46 45 48 54 58 57 51 46 42 44 46 49 50 51 53 55 56 56 56
87 84 87 85 74 76 82 84 87 91 92 79 86 51 75 69 68 61 55 50 48 47 48 54 43 41 38 57 59 60 51 47 48 48 49 50 50 51 52 55 57 58 58
86 88 85 84 87 83 88 83 89 88 84 84 72 88 68 69 56 69 67 64 49 52 50 43 44 40 38 49 63 60 54 54 48 48 50 49 49 51 54 56 59 61 61
82 88 90 83 79 90 90 92 88 93 90 84 78 82 78 71 69 69 82 74 66 57 50 47 45 43 45 46 51 60 58 52 48 49 48 48 49 52 55 59 60 62 61
83 85 90 93 89 87 90 92 95 93 96 94 86 78 77 79 90 71 81 79 70 59 58 63 67 60 48 53 62 63 57 51 48 46 47 50 51 54 57 60 61 62 62
67 68 77 93 93 91 94 93 94 95 94 96 93 88 81 86 92 90 90 86 89 81 78 74 78 80 80 70 67 60 55 53 47 48 51 54 58 60 60 60 61 62 62
65 70 73 82 93 94 94 96 97 96 96 97 96 97 97 91 82 88 91 90 82 97 94 95 88 77 79 81 81 79 74 67 56 62 66 67 70 69 65 60 61 62 62
80 82 84 85 88 93 95 97 98 98 99 98 98 98 97 90 90 91 91 92 94 97 99 95 97 95 92 88 87 90 83 82 76 75 74 77 73 62 59 60 61 62 63
85 78 81 91 92 94 94 97 98 98 98 98 98 97 94 91 92 92 94 94 95 95 97 98 96 97 98 96 95 94 92 91 89 83 77 67 58 56 58 59 62 63 62
72 68 70 74 77 82 81 87 92 91 94 92 91 91 92 88 96 96 97 98 98 99 98 99 100 99 100 99 97 98 91 78 75 62 56 54 54 58 61 59 56 58 61
67 65 63 65 67 71 74 77 80 82 86 88 90 90 90 89 94 96 97 98 99 97 98 97 99 99 99 99 99 96 86 76 57 54 52 49 48 50 52 55 58 61 62
74 72 70 70 70 71 73 75 80 84 86 87 88 88 90 92 97 100 100 100 98 98 98 98 99 99 99 96 93 88 82 71 70 47 49 50 52 53 52 54 55 56 58
84 82 83 83 81 81 78 86 88 91 95 97 97 97 100 94 90 92 96 98 98 98 98 99 100 98 94 85 85 80 81 72 76 72 72 74 70 73 70 62 58 54 55
90 90 91 91 91 86 87 89 92 94 96 98 99 99 99 96 88 87 91 90 93 98 97 96 97 90 80 71 70 82 96 91 90 76 80 74 75 73 75 72 59 56 56
96 97 96 96 97 95 94 93 94 98 100 100 100 99 97 87 83 82 76 71 67 64 66 82 86 79 73 74 89 92 85 94 95 84 81 84 78 75 76 55 58 58 58
98 98 97 96 97 95 92 93 94 98 99 100 96 81 76 69 68 67 68 77 76 73 70 62 77 76 74 74 76 89 91 91 88 83 82 95 82 78 70 78 65 62 63
97 97 94 96 96 86 61 64 77 84 82 78 71 64 60 59 54 57 73 85 78 76 58 57 55 54 54 59 63 84 96 96 95 91 82 92 91 94 83 73 74 67 59
96 94 97 95 71 84 62 57 58 63 69 64 62 64 57 66 62 65 82 84 83 76 72 69 68 67 60 64 50 72 93 96 98 95 91 95 98 97 97 97 92 83 80

GFSMA_sfc_rhum_057.txt.gz
RH
73 78 86 86 92 93 95 98 96 85 74 64 56 55 56 53 62 92 98 86 78 68 63 61 60 60 59 60 61 60 61 62 63 63 64 64 62 62 62 62 62 62 61
66 72 75 76 81 84 81 84 87 87 78 62 54 52 51 51 51 90 92 92 83 74 64 60 60 59 60 59 62 60 60 62 62 62 62 62 61 61 60 60 59 59 59
74 73 75 79 69 74 77 83 88 84 71 62 56 50 49 50 49 90 89 94 87 80 71 59 59 58 59 59 62 58 57 56 59 58 59 59 60 60 59 59 57 57 57
68 74 78 80 78 71 69 75 80 82 72 65 57 53 48 50 48 62 86 89 90 79 77 68 63 57 58 58 60 58 54 54 54 53 53 53 54 54 56 57 56 55 54
66 70 76 79 76 82 80 71 80 79 78 70 58 56 52 53 50 43 70 85 86 81 81 78 74 67 64 58 58 57 53 52 51 50 50 50 50 51 52 52 54 54 53
71 74 72 74 76 81 86 89 82 85 78 70 49 49 58 54 56 54 51 67 77 77 76 76 78 73 71 62 56 56 52 51 49 47 48 49 48 48 50 50 51 52 52
85 84 74 72 78 74 69 84 86 84 82 75 67 67 63 57 55 57 56 57 66 69 74 69 70 69 69 68 60 54 52 52 49 49 48 48 48 49 50 50 51 52 52
94 92 92 89 87 84 86 90 85 92 88 83 79 70 64 59 59 51 57 51 58 61 65 64 62 63 66 72 67 62 54 50 49 51 48 49 49 50 51 53 54 54 54
91 92 94 92 91 95 89 90 90 90 90 95 84 72 84 74 71 64 48 51 51 63 58 60 56 55 56 62 62 66 64 53 48 49 47 50 51 53 55 55 54 55 55
92 91 93 94 96 96 94 93 94 95 96 94 96 71 87 79 72 69 61 62 60 58 62 62 55 49 50 57 62 68 66 56 49 46 48 52 54 54 54 53 55 56 56
95 93 92 94 97 98 96 96 96 94 92 87 88 92 87 94 81 77 73 78 72 73 70 57 59 51 45 52 61 64 60 53 47 47 49 50 52 52 52 54 57 58 60
87 93 95 94 95 94 94 94 96 97 96 94 90 84 81 80 81 84 86 88 89 86 72 61 55 54 58 54 54 63 60 54 54 50 50 51 50 51 54 55 59 60 60
79 81 86 92 96 94 94 95 96 96 98 97 96 90 84 80 83 79 84 84 85 82 75 80 85 74 69 84 71 75 69 65 57 54 54 56 59 57 58 59 60 62 63
88 89 91 91 93 94 94 96 97 97 95 98 97 96 90 82 86 89 82 88 94 86 85 86 90 89 92 90 88 88 92 86 78 74 75 77 75 68 64 64 65 64 64
78 92 94 94 92 96 96 96 98 97 98 97 98 97 96 95 94 94 94 91 86 94 94 95 95 92 93 94 94 90 91 83 83 85 84 82 80 77 74 75 70 64 63
87 88 92 94 96 95 96 97 98 97 99 98 99 99 99 97 98 98 98 96 97 92 96 93 95 95 94 93 93 94 93 90 88 86 80 78 77 76 78 73 65 61 61
76 77 84 88 90 91 92 96 96 95 99 98 96 96 96 94 97 97 98 98 99 99 99 99 97 98 99 98 97 97 93 93 89 78 74 74 79 78 65 59 60 61 62
78 76 74 74 73 74 78 81 86 89 93 94 94 94 94 88 97 97 98 99 99 100 100 100 100 100 100 100 97 95 84 73 80 78 82 83 64 57 57 60 58 55 57
81 76 73 71 71 74 76 80 81 84 86 90 92 92 92 91 95 96 97 99 99 97 99 98 99 99 98 98 98 95 92 89 74 68 62 56 54 52 51 53 55 56 59
79 78 76 77 76 77 79 80 84 89 91 91 91 92 92 93 96 100 100 100 98 98 97 97 99 99 98 98 93 91 88 78 76 55 52 53 53 54 54 54 55 57 58
86 85 86 86 83 82 84 88 90 94 96 97 97 98 99 92 88 90 93 98 96 98 97 98 97 97 97 91 92 85 89 82 81 79 74 74 73 74 73 64 62 58 58
92 87 86 93 92 84 84 87 91 93 95 98 99 99 98 97 94 87 86 88 94 98 96 97 96 88 80 80 78 82 95 90 92 83 85 81 78 78 79 79 65 61 58
91 93 95 97 96 91 87 90 97 97 99 99 99 99 93 80 86 80 68 66 66 65 68 84 88 84 78 78 90 92 86 92 91 84 86 93 84 81 81 64 62 61 61
96 97 94 94 94 84 78 82 86 96 98 99 94 85 81 74 65 67 71 78 77 75 72 63 80 82 81 80 79 88 91 92 89 85 88 99 90 85 81 82 68 65 63
94 96 97 96 92 85 58 64 80 88 86 84 69 69 73 78 60 61 84 90 84 80 56 57 56 53 52 53 64 88 96 97 95 93 85 95 94 96 91 88 83 65 61
95 93 98 96 74 88 60 58 65 67 72 65 67 66 59 69 64 66 85 89 86 80 76 75 73 71 66 65 52 75 94 96 98 97 90 98 98 98 97 97 94 81 84

GFSMA_sfc_rhum_060.txt.gz
RH
88 94 96 98 98 98 98 99 98 94 86 73 68 74 65 65 73 98 98 89 81 72 66 66 63 61 60 61 61 61 63 64 63 63 64 65 64 63 62 63 63 62 62
79 83 89 89 92 94 96 97 97 97 92 79 66 62 59 61 62 94 98 96 84 78 69 64 63 61 61 61 62 61 62 64 64 64 64 62 62 62 62 61 61 61 60
76 74 78 82 81 84 90 93 96 96 96 78 67 57 54 55 57 92 96 97 92 84 76 64 62 62 61 61 63 62 62 63 63 64 63 62 62 61 60 60 59 59 59
75 76 75 78 75 82 81 91 88 96 94 87 74 63 54 54 53 75 93 95 96 85 80 73 66 62 62 61 62 62 60 59 60 60 60 60 61 60 60 59 58 58 57
67 72 75 76 82 76 77 80 88 89 94 84 72 65 59 56 56 49 92 94 95 90 87 80 78 73 69 62 61 63 58 57 56 56 55 55 56 55 56 57 58 58 57
74 83 86 82 82 87 91 90 80 92 87 79 62 56 63 58 60 60 59 83 90 90 86 85 87 78 77 68 61 60 60 56 55 53 53 53 52 52 54 54 56 56 56
90 92 91 89 93 88 80 89 92 88 88 90 82 68 67 64 59 61 62 64 85 85 86 81 82 84 75 73 69 62 60 56 54 51 50 52 52 51 53 53 54 55 55
96 95 96 94 91 93 93 92 94 94 95 95 92 88 71 66 61 59 65 56 61 79 80 78 76 79 76 82 81 70 62 57 56 52 51 51 50 51 52 53 54 56 56
94 96 96 96 96 96 93 93 95 95 88 97 94 91 85 80 75 68 58 52 53 66 71 78 76 72 69 74 75 74 73 65 54 53 53 50 51 52 53 55 57 56 56
95 94 95 96 96 97 97 94 94 94 96 93 98 90 94 86 76 80 67 68 68 61 68 78 74 71 66 63 69 73 72 70 54 51 51 50 54 53 56 55 55 56 57
78 94 96 96 98 98 97 97 97 98 97 94 97 97 90 94 88 86 76 82 92 84 79 68 66 66 63 60 63 66 69 59 54 50 47 48 58 62 58 57 55 57 59
87 89 90 97 97 97 97 97 97 97 97 97 95 94 91 90 86 88 90 88 91 92 91 76 68 61 63 62 62 67 73 64 58 51 58 67 73 74 64 58 56 59 60
94 96 95 95 96 96 96 96 96 96 97 98 98 97 92 90 87 92 90 87 92 95 89 85 84 76 72 82 81 80 82 67 65 75 74 84 83 84 84 82 82 77 67
96 94 95 95 95 96 97 97 98 97 96 98 98 98 97 92 91 90 91 92 98 98 96 89 94 93 92 87 84 80 90 85 85 87 90 88 86 85 83 82 83 84 77
77 93 94 95 96 95 95 98 99 98 98 98 98 99 99 97 95 94 95 98 97 99 98 98 97 96 96 96 90 92 93 85 85 86 86 84 84 86 86 84 79 77 73
78 86 91 93 94 91 94 96 98 97 96 98 97 99 98 98 98 98 98 99 99 99 98 96 98 97 97 96 96 97 96 89 88 88 85 84 86 85 82 77 76 76 74
79 78 79 82 83 86 90 94 95 96 96 95 93 94 95 93 96 97 98 98 98 98 99 99 98 99 99 99 99 98 97 97 95 84 82 82 81 79 77 80 74 67 66
82 80 80 80 82 85 89 92 95 93 93 93 94 93 95 91 97 97 98 98 99 100 99 99 100 100 100 100 99 98 92 82 84 80 80 80 82 84 72 64 62 61 60
88 84 83 83 84 84 81 82 83 85 87 89 90 91 91 90 95 96 97 98 99 96 99 98 99 99 99 98 98 94 92 90 79 86 89 82 74 66 59 56 54 55 57
90 88 87 85 83 84 86 88 86 90 90 91 90 90 91 93 97 100 99 100 97 97 97 96 98 98 98 98 96 98 99 96 91 63 59 54 53 56 56 56 56 57 60
84 81 80 80 80 78 82 96 93 92 94 97 97 97 99 92 86 89 92 96 95 96 96 97 97 98 99 98 98 94 87 80 80 80 75 74 74 75 73 66 62 60 60
87 92 94 92 90 80 88 89 95 96 97 98 99 97 90 89 91 86 85 85 91 96 95 97 96 89 86 90 88 86 96 95 92 84 86 83 81 84 81 84 69 64 63
92 94 94 91 92 88 86 89 96 97 98 96 97 97 89 78 80 79 68 68 68 64 70 87 90 87 80 82 93 93 88 94 91 83 91 94 89 84 82 68 65 63 63
97 93 87 87 89 79 68 71 81 97 97 94 89 80 81 76 73 77 84 85 85 81 78 68 84 85 82 82 79 88 90 92 90 88 92 98 92 87 82 83 71 67 65
96 99 98 93 91 88 61 65 76 85 81 75 73 78 78 82 63 74 84 88 88 81 58 62 62 58 54 58 71 91 97 98 96 92 89 96 96 96 92 90 84 66 63
97 99 97 96 73 87 62 61 68 66 72 64 69 66 67 70 65 63 85 88 91 84 80 81 77 73 67 66 58 78 95 97 98 97 90 98 98 98 97 94 94 82 80

GFSMA_sfc_rhum_063.txt.gz
RH
96 97 97 98 98 98 99 99 99 97 95 84 74 75 70 66 68 98 99 94 87 78 67 68 67 63 61 62 60 60 62 62 62 62 63 64 64 64 63 62 62 62 62
90 94 97 97 98 98 98 98 98 98 97 94 80 70 66 62 62 81 97 97 90 84 74 67 67 63 62 62 62 61 63 63 62 63 63 62 62 62 62 62 61 60 60
86 82 90 97 92 97 96 98 98 98 98 94 90 74 64 61 64 69 96 98 95 88 82 67 66 64 62 62 63 62 62 64 63 64 63 62 61 61 61 60 60 60 59
83 82 84 86 86 93 93 97 97 98 98 98 96 84 68 61 58 60 90 97 97 94 87 80 73 66 64 63 62 63 62 63 63 63 62 62 61 60 60 59 59 58 57
82 80 79 79 85 84 86 88 94 94 97 96 95 89 79 65 59 52 75 94 96 96 94 86 84 79 74 65 63 62 62 62 62 61 61 60 60 59 59 59 58 58 57
80 86 87 84 89 89 91 94 84 96 91 90 84 79 78 69 64 63 59 78 92 95 95 93 90 84 82 73 64 62 63 61 60 59 58 56 57 57 56 56 57 57 57
88 89 88 90 93 93 89 94 94 92 95 93 88 85 75 70 67 60 68 70 88 90 93 88 84 92 83 79 72 66 62 63 60 58 56 55 55 55 55 55 56 57 57
96 96 96 95 95 96 95 94 95 95 96 97 95 92 90 79 70 59 69 60 59 83 92 90 85 90 88 83 83 75 69 62 61 58 54 53 53 54 54 55 55 56 57
96 97 97 98 97 97 97 95 95 95 93 98 95 92 90 86 86 72 67 65 57 73 85 94 92 87 87 81 82 76 79 73 61 60 56 54 52 53 54 54 56 58 57
82 93 96 97 98 98 99 97 96 95 96 96 99 94 94 84 85 87 74 72 70 71 85 94 95 87 82 78 77 78 78 77 62 58 57 56 53 52 54 55 57 55 54
87 88 92 98 99 99 98 98 98 98 97 97 98 98 96 96 89 92 89 89 88 90 91 90 88 82 76 74 78 73 79 71 67 60 54 52 52 54 60 68 74 70 63
94 93 92 95 96 99 99 99 98 98 99 99 99 98 94 94 97 97 96 92 93 90 94 92 90 86 78 80 81 83 84 76 71 76 77 68 71 82 83 81 80 82 84
97 96 95 96 97 98 98 98 98 98 99 99 98 95 97 96 94 96 97 97 98 93 88 88 92 92 82 89 88 88 87 82 81 86 86 81 84 84 87 87 86 86 82
96 95 95 95 96 96 94 98 99 99 98 98 98 98 98 98 97 97 97 99 99 97 96 89 96 95 98 98 93 87 95 89 86 86 86 86 87 87 86 85 82 79 79
73 91 93 94 93 92 96 93 96 95 97 98 97 96 98 98 99 99 98 98 99 100 98 94 97 98 98 98 96 96 98 92 91 87 85 86 89 87 85 82 80 78 82
79 80 84 85 87 88 93 95 97 97 93 94 96 93 96 96 96 97 98 98 98 99 99 97 98 97 98 97 96 99 98 94 92 89 88 89 89 86 83 79 77 77 77
82 82 80 83 86 91 93 96 95 96 96 92 91 92 93 93 96 97 97 97 98 99 100 99 98 98 99 99 98 98 98 98 97 91 88 82 81 81 80 78 75 79 77
86 86 85 86 88 89 94 95 95 95 95 96 92 92 93 88 96 96 96 97 98 98 100 99 100 100 100 100 98 98 94 88 91 85 85 80 81 80 78 80 79 71 66
96 93 91 90 91 90 92 93 93 87 87 88 89 89 90 90 94 96 96 97 98 95 99 98 99 98 99 98 98 96 93 93 84 85 82 82 82 81 78 70 63 59 58
84 88 84 79 81 92 94 95 95 94 93 94 94 94 91 92 96 99 99 99 97 97 96 97 98 98 98 97 99 99 99 98 99 85 77 63 60 58 58 58 58 58 58
86 87 84 79 79 81 85 94 92 93 95 96 94 92 94 91 82 87 92 97 97 98 98 98 98 98 98 98 99 96 96 84 79 81 74 74 73 74 74 66 64 61 60
91 90 90 90 91 86 91 91 94 96 96 96 96 92 88 79 77 71 69 70 79 90 92 98 98 93 89 92 90 92 97 94 92 85 86 82 80 82 80 82 70 65 63
91 92 91 86 86 83 79 85 86 94 96 96 94 92 80 72 78 81 76 74 74 68 73 90 92 90 86 87 94 94 89 95 91 82 90 93 89 85 82 72 67 64 63
94 88 89 88 88 78 66 70 75 92 92 92 90 81 83 86 82 83 84 88 89 77 79 71 84 85 84 83 81 89 91 93 89 87 92 98 93 89 83 84 71 68 67
96 98 97 94 92 89 63 64 70 79 75 73 69 73 83 85 66 68 82 89 86 80 62 66 65 62 62 60 72 91 98 98 97 90 92 98 96 97 94 92 83 70 65
99 99 95 96 74 86 62 63 74 73 80 68 73 69 69 72 63 62 83 85 82 83 82 83 78 73 66 68 62 87 95 98 98 96 90 98 98 98 98 94 94 85 82

GFSMA_sfc_rhum_066.txt.gz
RH
97 97 97 98 98 98 99 99 99 98 96 94 86 86 85 80 73 90 98 95 91 82 70 66 68 66 62 62 61 59 61 62 62 62 63 63 63 62 62 62 62 62 62
94 96 96 97 98 98 98 98 98 99 98 96 95 87 76 77 74 72 94 97 92 89 79 68 67 67 64 62 63 62 64 63 62 63 64 64 63 62 62 62 62 60 61
94 88 95 97 97 97 96 97 98 98 99 97 97 95 86 74 70 68 77 96 96 93 87 73 67 68 66 64 63 63 63 64 64 63 64 63 63 62 61 60 61 61 59
92 92 91 94 94 97 98 98 98 98 98 99 98 97 94 79 69 64 68 89 97 96 91 85 78 70 68 66 63 62 63 63 64 64 64 63 63 62 61 60 60 59 59
91 91 89 86 91 96 97 95 96 97 97 97 97 97 97 91 80 63 62 74 92 96 97 90 87 85 79 69 65 63 61 63 64 64 64 63 62 62 62 61 60 59 58
94 94 95 92 91 94 96 96 93 97 96 94 94 91 96 93 86 75 66 61 88 94 96 97 94 86 86 78 68 65 62 65 64 62 62 61 60 60 60 60 60 60 59
90 94 92 90 91 95 91 94 95 95 96 96 94 95 90 82 78 73 72 74 73 88 96 97 97 96 95 84 79 71 64 62 65 64 61 60 58 58 58 58 58 59 58
96 97 96 96 96 97 96 96 96 97 97 97 95 92 91 89 82 74 76 69 67 76 94 96 96 96 96 96 92 81 74 64 62 66 62 59 58 57 56 56 57 58 58
95 98 98 98 98 98 98 97 97 97 97 98 95 94 97 93 81 72 62 65 70 74 81 94 96 93 95 90 86 83 83 78 64 61 65 60 56 56 55 55 56 57 58
79 88 92 97 99 99 99 98 98 97 97 98 99 97 96 86 97 97 73 64 65 64 73 87 93 91 86 87 85 84 84 86 72 66 74 74 64 57 55 55 55 59 59
93 92 93 94 94 93 95 99 99 99 98 98 98 99 99 98 93 99 98 92 90 85 86 81 90 87 93 89 86 87 82 80 79 81 81 77 80 68 62 55 57 68 74
96 94 92 95 96 98 96 96 99 99 99 99 99 97 95 95 98 98 99 97 95 90 94 95 93 84 90 92 87 84 82 82 82 85 83 84 89 86 83 85 81 79 78
97 96 95 96 98 96 89 98 99 99 99 99 97 98 98 98 96 96 97 98 99 94 92 93 92 96 88 95 94 88 87 85 87 86 85 83 90 85 86 86 84 83 80
96 95 95 95 94 93 94 94 99 99 98 99 98 98 98 98 98 98 98 95 95 98 94 91 97 98 98 98 93 81 94 84 84 85 81 78 86 85 83 83 83 83 83
70 85 88 90 90 91 94 92 92 96 96 97 98 97 97 96 96 97 98 99 96 99 98 96 97 97 98 98 96 96 96 91 82 89 88 88 90 87 86 87 83 84 83
83 83 85 88 90 92 95 96 97 97 92 94 94 92 94 95 95 98 98 97 99 99 99 97 97 96 96 93 94 97 98 94 90 89 89 89 95 92 90 88 83 80 76
88 87 87 89 91 94 95 96 96 96 90 91 91 91 93 92 96 96 96 96 98 98 99 98 97 96 97 98 97 96 95 96 97 92 92 91 90 88 85 82 82 80 78
95 95 93 93 94 94 95 96 96 95 96 96 96 95 93 86 94 94 95 97 97 98 99 99 99 100 100 99 98 97 93 85 90 87 86 85 84 83 80 80 78 80 76
96 94 93 93 94 94 96 97 96 94 89 89 88 88 89 91 97 95 95 97 98 96 99 98 99 97 98 96 95 94 93 92 83 84 82 83 81 79 77 76 74 71 65
80 79 77 79 85 94 95 94 90 92 92 92 92 94 92 91 94 97 98 98 96 97 95 96 97 98 98 96 99 99 99 98 99 82 80 80 67 63 63 61 60 60 60
87 85 83 84 82 83 87 91 91 92 91 90 90 86 86 83 81 83 93 96 94 95 98 97 96 94 97 95 98 92 90 80 75 77 72 70 72 72 70 66 64 60 60
91 89 88 90 91 86 86 89 90 92 92 90 91 86 82 77 74 68 69 69 75 92 93 98 99 94 91 92 93 94 98 96 92 85 86 78 78 76 76 78 67 64 61
88 86 86 84 87 83 74 75 77 90 92 94 93 93 87 80 82 84 77 76 75 70 69 90 90 91 88 88 93 94 90 95 92 83 91 92 86 83 80 71 66 65 64
89 89 89 88 88 77 66 66 69 93 94 94 91 86 86 88 85 82 83 86 86 77 81 74 86 86 86 84 86 89 91 93 90 88 93 99 93 89 85 85 71 67 66
94 98 96 94 93 88 62 61 67 76 74 73 68 76 84 84 63 65 80 87 77 76 65 68 67 65 65 63 67 90 97 98 97 89 93 98 97 97 94 91 84 70 66
100 98 93 96 75 85 62 66 74 71 79 68 76 75 67 71 64 61 81 81 79 73 83 84 76 71 67 72 69 89 96 98 99 96 90 98 98 98 98 94 93 83 80

GFSMA_sfc_rhum_069.txt.gz
RH
69 70 71 71 72 74 76 76 75 72 72 69 65 59 54 52 50 48 53 91 91 86 76 68 68 69 66 63 63 60 60 61 61 61 61 61 61 61 60 61 62 62 63
69 69 65 66 66 70 69 70 69 70 70 70 68 65 62 55 50 49 47 53 90 89 84 75 68 66 68 65 63 62 62 63 62 62 62 62 63 61 60 60 60 60 60
73 70 67 65 65 66 68 70 70 72 74 71 70 65 65 62 60 53 48 50 54 86 90 82 73 68 67 66 64 63 64 64 64 63 64 63 63 62 62 61 60 59 59
74 73 71 68 62 67 69 70 69 72 72 71 66 64 64 66 62 59 54 48 51 52 71 88 83 74 69 68 66 64 64 65 64 62 61 64 64 63 62 61 61 60 59
75 74 72 70 67 69 69 69 69 71 68 67 69 65 68 68 66 63 59 57 55 55 54 74 91 89 84 74 67 64 61 67 66 65 62 63 64 64 63 62 62 61 60
75 80 78 74 71 72 72 72 71 69 69 67 70 71 70 68 67 64 60 57 56 59 58 62 61 65 90 83 73 66 64 63 68 66 66 64 64 62 62 62 62 62 60
74 79 80 78 81 83 76 74 72 74 73 79 83 74 71 66 65 62 59 57 57 58 59 60 61 62 63 87 83 76 68 64 65 69 66 65 63 62 61 60 61 61 62
83 84 83 83 81 84 81 79 80 81 84 86 84 83 83 64 63 61 58 55 54 52 53 58 60 63 63 63 71 84 80 68 64 64 70 66 65 61 60 59 59 60 60
71 86 91 94 93 92 92 87 87 88 90 87 85 87 94 82 72 61 55 51 52 52 51 58 62 62 63 69 83 82 87 83 70 64 63 78 68 62 60 58 57 58 60
75 76 78 80 85 90 96 95 93 93 92 95 92 91 86 83 93 92 70 62 55 55 56 57 60 63 65 64 74 84 86 86 78 71 66 68 85 77 61 59 58 58 59
77 77 77 80 80 84 85 86 93 97 96 93 92 90 91 92 88 98 96 91 81 72 66 64 61 56 58 64 68 76 83 79 75 75 75 71 74 89 78 72 66 70 72
78 78 78 80 83 87 88 89 88 92 97 96 92 92 90 89 90 92 98 93 87 84 73 70 70 69 69 68 73 84 82 77 75 74 73 75 74 82 90 86 72 76 80
79 79 80 80 81 81 83 82 91 95 98 98 95 93 93 94 94 92 94 96 93 90 79 76 76 75 71 76 75 82 80 81 78 76 74 75 76 80 83 86 80 82 83
72 72 75 75 75 76 80 82 91 94 96 98 98 96 96 94 93 95 98 98 96 93 90 81 81 80 80 83 84 87 77 86 84 80 77 76 76 90 85 82 86 86 83
62 68 70 74 76 78 81 82 84 89 89 91 95 91 92 90 91 92 90 88 85 91 96 83 94 83 83 87 89 85 85 89 84 81 80 90 92 95 89 86 85 85 86
70 71 73 74 76 78 80 82 85 85 86 88 87 84 86 87 86 87 88 86 92 98 97 94 94 89 83 85 89 88 91 92 90 88 86 89 91 89 89 91 93 90 88
74 74 75 76 77 78 78 79 82 82 81 82 83 84 86 85 87 84 86 88 92 95 99 98 92 88 90 88 84 87 88 88 90 88 89 89 89 89 90 90 89 86 84
80 78 77 77 79 80 79 80 81 81 81 83 83 82 83 79 85 83 87 90 92 92 95 96 95 96 97 89 86 86 84 78 84 84 84 83 83 85 83 81 80 78 83
79 77 77 80 82 83 83 83 82 81 81 81 80 81 82 81 85 86 87 90 89 84 88 89 93 86 87 84 81 81 84 84 79 82 82 80 78 78 77 75 74 73 72
74 73 74 76 83 84 83 83 84 85 85 86 86 87 85 83 84 92 93 95 87 84 83 82 86 88 88 86 88 90 80 76 74 58 61 67 67 68 66 64 64 65 62
81 79 80 80 80 82 80 84 82 82 80 79 79 74 80 77 73 76 76 78 76 74 78 84 81 78 75 70 76 68 68 62 59 61 54 50 51 49 48 53 54 57 57
85 83 86 85 87 83 86 86 80 74 72 75 82 81 74 69 68 67 68 67 65 75 79 81 80 66 63 61 60 63 68 61 63 58 55 49 51 46 45 43 55 59 57
81 82 80 78 79 73 72 71 72 76 81 82 82 84 77 73 68 63 68 72 72 68 68 62 59 62 62 62 77 78 68 67 61 56 60 55 52 47 48 50 65 63 62
84 80 79 78 80 69 62 64 75 84 86 83 80 70 67 68 71 63 60 66 65 65 69 64 65 65 65 64 66 79 79 70 62 61 62 69 56 55 53 54 70 69 66
83 87 85 86 88 77 61 61 61 60 61 60 56 65 65 64 61 70 65 72 53 55 60 68 65 63 64 63 61 69 75 77 64 60 64 69 66 70 64 59 54 71 68
92 85 89 87 76 76 66 65 60 52 54 52 56 56 66 62 60 56 62 57 54 57 65 65 52 49 55 60 69 70 76 84 80 76 69 82 76 74 83 62 67 57 53

GFSMA_sfc_rhum_072.txt.gz
RH
47 46 42 40 41 42 46 46 46 42 42 42 43 44 42 39 37 36 36 82 86 83 80 73 67 70 71 67 64 63 61 62 61 62 61 61 61 61 60 60 61 60 62
52 50 49 42 42 43 45 47 47 47 47 46 46 44 44 43 42 42 40 40 84 85 83 79 73 67 65 70 66 65 64 64 64 63 63 63 63 63 62 61 61 60 59
56 54 51 49 43 45 46 47 49 50 52 50 51 47 46 45 46 46 46 44 46 85 83 75 75 73 68 66 64 66 66 65 65 64 64 64 64 64 63 63 62 61 61
56 56 55 54 51 48 50 50 51 52 52 51 50 48 48 48 48 47 48 48 48 45 67 79 78 76 73 68 68 66 66 68 67 66 64 62 64 65 64 63 62 62 61
56 56 54 53 52 54 54 55 54 54 54 52 52 52 50 50 50 48 50 50 51 51 49 66 84 90 88 79 70 66 66 68 70 68 65 64 64 64 64 63 63 63 62
56 58 56 55 53 56 56 56 59 55 58 57 55 55 53 52 53 53 49 47 46 50 51 53 53 56 90 86 78 70 66 66 70 71 69 66 65 65 64 64 63 63 63
56 59 59 59 62 64 60 58 60 63 63 59 66 63 58 56 53 49 47 46 47 48 48 50 50 49 49 85 84 81 74 67 68 73 71 70 68 66 65 63 63 63 62
67 70 71 70 68 70 70 69 69 72 70 66 77 82 76 47 43 49 47 47 44 43 45 46 46 47 49 48 56 81 84 76 70 68 72 74 70 68 66 64 61 62 62
67 78 84 88 89 90 90 87 86 89 92 82 79 80 77 58 57 48 49 44 44 45 44 47 48 49 50 50 61 70 85 85 81 75 71 69 76 73 70 65 62 60 62
56 58 61 61 63 70 79 83 84 88 92 92 90 86 78 78 84 79 63 51 49 50 50 49 50 51 51 52 65 78 84 84 78 75 75 72 71 82 76 71 64 64 65
60 60 60 62 62 66 68 70 74 81 92 94 93 89 85 84 87 98 94 82 64 60 48 48 52 52 52 54 59 69 82 79 75 73 71 70 69 73 80 86 84 72 62
60 62 62 62 65 66 70 76 81 79 83 85 90 92 92 88 83 87 95 88 80 75 72 55 57 56 56 58 66 79 76 78 79 77 76 73 70 74 79 83 81 74 71
58 60 63 63 62 64 66 70 74 82 88 92 90 94 92 91 85 89 93 94 91 82 76 65 60 60 59 62 66 84 79 82 82 81 80 77 76 77 80 84 81 74 70
54 57 59 60 60 60 63 68 73 78 89 95 95 95 96 95 91 90 85 88 93 86 79 64 67 67 69 74 80 82 74 83 80 79 80 80 83 82 84 78 86 79 83
51 53 56 60 61 62 64 68 70 75 80 88 90 88 90 88 84 82 83 82 82 82 68 76 81 76 75 76 83 76 78 89 83 86 78 88 86 86 91 93 92 92 90
56 57 58 59 60 62 64 67 71 72 73 77 80 77 76 74 76 78 81 80 85 88 85 86 88 82 78 72 78 79 81 87 87 86 90 88 87 88 87 88 92 92 89
59 59 60 60 61 62 62 64 68 69 71 73 74 74 76 73 76 75 79 78 81 87 96 95 88 84 84 77 75 74 78 78 80 83 84 86 86 85 86 87 86 87 86
62 61 61 61 61 63 62 64 69 68 71 74 71 71 72 71 77 74 75 79 84 87 91 92 91 93 93 81 77 75 71 64 70 80 82 83 82 80 80 82 83 83 84
62 62 61 64 66 69 69 68 65 65 66 67 68 68 71 70 77 77 78 80 81 74 80 81 87 79 80 74 75 71 71 69 62 65 72 73 74 73 74 75 75 74 73
66 66 65 65 71 72 72 71 71 72 74 74 77 76 75 76 77 83 83 80 74 73 71 72 78 83 80 74 77 71 65 54 54 45 50 58 63 63 66 68 69 68 67
72 71 71 72 73 71 70 75 75 73 73 73 73 70 74 73 74 72 66 66 63 62 68 75 72 68 63 57 60 54 55 51 48 48 44 42 43 42 44 46 49 52 54
79 79 77 77 81 77 83 80 71 69 71 75 78 72 61 58 62 68 67 68 63 60 64 66 64 49 48 48 46 53 60 53 58 48 47 40 39 37 36 36 44 55 56
80 81 77 76 74 71 72 70 68 72 82 82 81 72 64 58 54 46 54 60 68 68 65 49 46 48 48 52 74 75 61 61 55 44 50 44 36 34 37 36 54 65 60
85 76 69 65 65 58 62 64 71 90 95 86 71 54 51 53 62 54 50 50 48 55 60 53 55 56 58 58 59 71 71 58 49 46 50 63 43 47 45 44 55 66 67
76 82 77 82 82 63 60 59 48 46 47 47 51 52 50 50 62 70 55 60 38 41 54 65 63 60 62 63 59 55 68 68 59 48 53 63 60 62 56 53 48 68 71
96 77 88 79 64 55 61 59 50 38 37 40 40 42 66 58 61 56 53 45 40 46 53 53 40 38 45 51 62 54 61 86 76 75 63 78 74 71 82 57 62 55 49

GFSMA_sfc_rhum_075.txt.gz
RH
43 41 38 36 37 36 40 42 44 40 39 37 37 39 39 38 36 38 40 79 78 75 76 74 70 68 72 71 66 64 62 62 62 62 62 62 62 61 60 60 61 56 62
48 46 45 41 37 39 41 44 44 45 45 44 44 42 42 42 42 43 44 48 79 79 76 75 72 70 66 68 70 67 66 63 64 63 63 63 63 63 62 62 61 61 59
52 50 48 48 41 42 43 43 45 46 48 47 48 46 45 43 44 44 47 49 54 84 80 70 70 71 70 67 64 69 69 68 67 66 65 64 63 64 63 62 61 61 60
52 53 53 52 50 47 48 50 50 52 51 50 49 48 46 47 48 47 48 48 55 50 72 79 74 69 71 70 67 66 69 70 70 69 68 66 64 64 64 63 63 62 61
51 53 51 51 49 53 53 53 53 53 55 55 54 52 53 54 51 48 48 51 53 55 55 70 84 83 82 78 72 66 66 71 73 72 70 68 64 64 63 62 64 63 63
51 55 54 53 51 54 56 56 57 58 61 62 56 56 58 56 54 54 53 47 46 51 54 57 62 64 85 80 75 72 69 67 73 74 72 70 68 66 65 64 64 64 63
55 57 58 56 58 61 60 60 63 66 68 67 74 70 66 61 55 55 51 47 48 51 50 53 55 56 56 86 82 76 74 75 71 72 76 74 71 68 67 66 64 64 63
62 65 66 69 70 76 70 69 73 80 81 77 86 87 82 58 46 50 52 49 47 49 50 49 48 51 57 58 71 76 78 79 76 72 73 74 77 73 70 69 67 64 64
67 74 81 87 92 95 96 94 95 94 94 87 80 82 81 70 60 57 56 51 48 51 52 54 52 52 55 58 66 70 83 81 77 74 73 72 73 76 83 74 70 66 64
53 54 58 59 63 70 80 81 81 90 92 88 83 82 80 81 89 75 59 62 55 53 57 58 53 55 55 60 72 83 80 79 76 75 71 68 69 70 73 80 82 71 64
55 57 56 59 59 64 64 68 71 73 79 86 82 80 83 88 91 99 96 85 71 66 58 52 55 56 58 63 67 74 78 78 78 77 75 74 73 70 68 70 77 88 83
59 60 59 60 62 63 65 70 73 78 78 79 86 83 85 85 96 97 99 87 85 85 79 63 61 62 64 66 76 79 80 82 81 79 77 74 73 76 75 80 78 84 80
56 56 61 61 60 61 62 65 71 74 76 83 87 85 80 85 86 93 94 96 96 89 78 67 67 69 65 71 77 84 85 82 80 80 79 75 77 75 76 78 79 80 87
53 54 56 58 57 58 59 62 70 73 81 88 93 95 96 94 94 96 96 94 94 83 81 80 72 73 74 79 82 80 79 80 78 79 77 75 80 81 81 87 79 74 84
50 51 54 56 58 59 61 63 67 70 79 82 88 91 92 91 92 90 89 88 86 87 80 87 87 78 78 79 84 76 78 85 80 85 85 84 85 85 83 83 90 84 90
53 55 55 56 57 58 60 63 69 71 74 77 78 76 80 79 80 80 81 81 83 88 88 90 90 83 79 73 77 76 79 82 84 82 83 87 86 83 84 88 90 90 87
56 56 56 57 57 59 59 61 65 68 69 72 74 75 78 76 78 76 82 80 83 88 94 97 90 89 88 83 76 73 76 78 80 83 83 83 84 83 82 83 85 87 90
58 59 58 58 58 60 60 62 66 67 70 73 71 72 73 72 79 76 79 83 87 89 94 94 93 98 94 86 78 76 70 64 70 72 78 78 78 80 79 80 82 82 82
59 59 60 61 62 66 66 65 62 62 64 66 67 69 71 71 80 81 84 85 87 78 84 84 95 85 84 77 81 74 73 72 57 53 56 65 73 74 74 76 77 76 75
64 63 63 62 67 68 68 67 67 68 70 73 74 73 75 77 80 86 86 84 78 82 79 78 84 84 84 76 80 75 74 66 64 46 50 54 56 57 64 64 67 68 68
68 68 68 68 70 68 67 72 72 72 73 74 74 72 78 75 74 73 69 72 69 72 79 88 86 80 74 67 68 62 69 67 64 63 62 57 57 59 58 47 48 52 56
77 76 74 75 80 76 81 75 70 72 74 79 84 75 63 58 64 66 65 67 67 73 76 87 84 62 58 59 59 72 81 75 84 65 65 59 55 58 53 53 56 59 59
82 83 79 77 77 74 74 70 70 83 91 90 88 80 65 55 54 50 52 54 68 66 64 64 62 61 60 67 85 88 81 82 77 62 64 65 53 54 57 41 56 64 66
89 85 76 70 71 63 62 64 71 95 98 91 77 58 55 56 68 58 57 59 54 60 67 54 66 67 67 69 69 78 82 73 68 62 66 87 65 69 65 64 58 66 66
87 86 81 84 84 69 59 58 47 53 53 55 56 53 52 51 62 68 63 69 46 52 57 61 60 57 58 59 62 74 88 88 84 63 72 81 82 84 79 73 66 60 64
99 84 90 84 64 59 58 56 52 44 42 46 45 49 63 63 60 59 66 56 51 56 62 63 54 55 53 59 58 64 83 95 94 94 83 92 86 89 96 80 82 77 74

GFSMA_sfc_rhum_078.txt.gz
RH
65 61 58 60 63 61 61 67 66 61 58 54 54 55 56 57 56 57 62 83 76 72 66 68 70 68 70 74 70 66 65 61 62 61 62 61 61 62 61 62 62 57 63
67 66 66 62 60 59 61 65 67 67 66 64 61 60 60 62 61 61 62 73 82 78 72 67 68 69 68 67 73 71 69 68 66 65 63 62 63 63 63 62 62 62 60
70 68 70 69 59 61 58 64 64 67 69 66 69 65 64 64 65 65 65 67 77 84 79 68 66 68 70 70 68 69 72 70 69 68 67 65 64 65 64 62 62 61 61
69 74 75 75 72 66 69 72 74 75 76 75 75 71 68 61 63 65 65 68 72 67 80 78 77 71 69 69 70 69 69 74 73 71 70 68 66 64 64 63 62 63 62
65 72 75 74 70 76 76 75 76 78 80 67 67 64 64 72 71 63 68 68 70 72 73 82 86 83 81 73 70 70 69 72 76 74 73 71 70 66 65 64 63 64 63
63 70 76 74 72 77 80 79 80 72 71 75 70 75 80 78 78 78 74 66 68 62 64 66 86 86 87 80 74 71 69 70 74 74 77 74 72 68 67 66 64 63 62
63 70 72 68 70 71 74 81 85 88 90 88 92 92 90 84 82 78 75 73 68 60 66 66 72 76 74 84 82 76 74 74 73 72 73 76 78 72 69 68 66 64 63
82 84 90 91 92 93 91 87 92 93 90 85 91 94 95 83 74 69 74 65 65 64 63 62 64 67 75 79 85 84 82 78 75 72 74 75 76 79 76 70 69 68 66
78 83 82 87 93 96 98 97 97 97 98 94 89 92 95 94 91 76 71 71 67 69 70 66 62 67 72 83 87 86 81 79 77 75 72 69 68 69 74 77 78 79 70
68 68 70 73 75 82 91 94 89 95 96 99 94 95 95 94 96 94 84 82 75 70 71 67 64 65 75 83 80 82 80 79 77 76 74 71 70 69 68 67 70 77 94
70 71 72 73 77 81 83 87 89 93 94 95 95 87 83 95 96 98 97 95 88 82 76 70 68 72 76 82 86 84 81 80 78 76 74 71 72 74 73 73 75 72 83
76 73 71 74 75 78 80 84 87 90 92 88 86 86 88 93 97 98 99 96 94 89 84 70 71 72 78 92 81 86 83 81 81 81 79 72 74 73 73 72 73 75 82
79 75 74 76 76 73 74 76 82 89 91 89 92 95 95 93 93 95 97 97 97 96 88 81 93 92 82 96 92 86 81 79 78 77 75 71 73 74 77 76 77 72 73
73 68 70 72 72 71 73 75 83 88 87 91 94 96 98 95 94 97 97 97 99 97 95 93 89 85 94 95 85 79 78 77 77 83 80 80 81 81 78 80 83 79 74
58 65 68 71 72 72 74 76 84 88 89 91 94 93 96 94 93 94 94 95 96 96 94 98 98 91 92 95 84 83 87 83 80 81 84 83 81 80 83 84 84 87 80
66 68 69 71 72 72 74 78 86 87 87 88 87 88 91 87 89 90 90 93 91 97 96 98 96 94 89 82 79 80 85 81 81 81 82 82 83 81 80 85 87 85 86
71 71 70 70 71 73 75 79 82 83 84 79 83 88 84 83 88 90 89 89 92 94 98 99 96 94 94 90 81 77 79 89 91 78 79 80 81 81 80 81 82 86 89
73 73 71 72 73 75 78 79 81 82 86 88 85 82 85 82 90 88 92 94 95 94 97 94 97 100 97 85 82 80 74 73 78 63 70 76 77 78 79 77 80 82 82
73 72 73 75 76 79 81 82 79 80 83 84 84 84 88 91 95 95 95 92 93 87 92 97 99 91 90 85 92 88 85 85 59 55 53 57 64 71 75 76 77 76 75
78 76 76 75 78 80 80 80 78 87 89 84 85 86 88 91 88 92 90 89 85 91 91 85 91 91 90 89 93 83 78 74 76 50 54 54 54 56 56 59 62 65 67
79 78 76 72 72 72 71 81 79 81 82 82 86 82 84 77 70 74 79 84 80 83 84 96 95 89 82 78 76 79 83 82 81 76 74 69 68 66 65 61 62 60 60
87 85 80 81 86 78 79 75 78 83 87 90 90 80 71 66 65 60 63 65 70 84 84 95 96 72 72 78 90 91 95 88 92 81 74 71 66 61 62 65 52 61 62
88 88 85 84 86 83 75 72 79 92 94 92 93 83 70 59 62 62 53 59 65 61 62 78 77 79 85 85 88 92 92 93 91 78 76 77 73 73 76 59 59 60 62
93 91 87 83 84 75 68 71 74 92 93 94 83 69 69 77 73 69 68 67 61 79 80 69 87 88 88 87 85 87 88 85 84 78 78 94 88 85 81 80 60 60 70
94 91 87 86 85 79 61 56 64 70 68 68 63 68 65 73 64 61 72 72 55 64 57 56 56 52 51 52 61 87 96 95 95 82 89 91 94 96 90 89 78 59 60
100 93 93 92 78 79 60 54 52 53 55 56 53 67 60 69 60 59 76 69 60 69 73 71 62 67 56 63 57 75 95 97 98 98 92 96 97 96 98 92 92 86 88

GFSMA_sfc_rhum_081.txt.gz
RH
72 74 84 91 94 92 91 94 91 83 76 66 64 65 62 63 64 61 70 88 79 73 64 62 65 68 69 76 74 70 69 66 64 63 63 62 62 62 62 64 63 61 62
72 72 70 67 67 66 64 71 74 73 72 73 68 67 66 68 67 67 68 74 84 77 73 66 64 65 68 69 71 76 72 71 68 67 66 64 64 64 63 64 64 63 61
74 72 75 74 63 66 62 70 72 75 76 73 76 72 71 70 70 71 70 71 77 87 81 69 67 67 68 69 72 71 73 73 72 70 69 68 66 66 65 64 63 62 62
74 76 76 82 74 68 74 76 79 80 83 83 82 78 73 67 63 71 72 74 78 68 79 82 78 72 69 69 68 69 72 76 77 74 72 71 69 66 64 65 63 64 64
72 79 82 81 78 82 80 79 82 86 86 81 72 70 71 74 78 71 77 75 76 74 78 82 87 85 81 72 69 70 69 73 75 77 77 74 72 70 68 67 65 66 61
65 70 78 80 78 83 86 87 88 83 76 77 74 81 88 86 85 86 84 76 76 72 70 73 78 80 86 81 78 74 73 74 76 76 75 77 78 74 70 68 67 63 63
70 73 76 74 80 78 77 80 85 84 89 91 90 90 94 90 91 89 89 86 73 73 71 73 74 78 79 86 82 81 78 75 74 72 74 78 79 80 76 71 69 67 65
90 92 93 91 92 92 92 91 93 93 91 88 89 92 94 87 79 79 84 80 66 66 66 66 70 75 89 94 88 82 80 77 77 74 71 70 69 71 76 77 72 69 69
81 83 84 86 90 94 96 97 97 97 98 95 90 92 95 94 95 82 76 77 74 76 70 70 68 72 88 90 89 89 81 79 76 74 71 69 69 69 66 67 74 78 75
72 72 74 76 78 83 86 92 90 94 96 99 97 96 96 96 97 92 89 89 83 73 79 76 72 77 76 78 86 85 83 79 76 74 72 69 69 70 70 71 72 73 75
73 75 75 79 82 85 87 88 91 93 96 97 97 95 92 92 94 99 96 94 93 92 83 80 72 74 76 80 92 88 82 78 77 77 76 71 72 72 72 69 69 72 73
82 78 78 80 80 81 81 86 88 91 94 94 94 93 94 95 95 98 99 97 95 95 82 79 76 82 85 87 85 84 81 79 77 75 73 71 73 73 73 71 71 71 71
86 78 79 79 79 76 76 79 84 90 93 95 94 97 96 98 96 93 97 97 96 97 88 88 97 91 87 97 93 86 80 77 76 78 80 81 79 78 74 74 77 77 72
76 72 74 76 77 75 78 80 85 90 94 96 91 93 97 98 97 97 97 97 99 99 97 94 91 97 97 88 86 80 85 74 80 81 80 77 76 79 85 79 78 80 80
63 70 72 74 76 76 78 81 87 92 92 95 96 93 95 94 93 94 96 96 97 98 99 98 98 90 95 90 87 84 89 81 80 81 81 80 79 79 82 85 83 83 87
70 74 75 76 77 77 79 82 90 90 90 94 93 87 90 92 93 91 93 91 94 97 97 98 95 91 88 85 82 82 87 83 79 79 79 82 82 81 78 82 85 88 86
75 76 76 76 77 79 81 86 87 86 88 91 84 85 87 89 91 95 95 94 93 93 98 99 96 94 93 93 82 79 80 92 88 71 76 78 79 80 80 79 80 83 85
76 76 75 77 79 82 85 86 86 86 90 90 87 84 86 81 90 90 90 91 92 95 96 99 98 100 95 86 86 87 81 79 73 58 61 67 74 77 79 79 77 79 81
79 78 78 81 83 84 87 87 87 88 89 90 88 85 91 94 95 96 95 94 95 93 93 97 99 93 92 89 92 89 88 85 59 55 54 57 58 63 67 73 74 76 76
84 83 82 82 83 85 85 86 87 93 93 91 89 92 92 92 91 94 90 89 86 94 93 92 92 93 92 93 94 80 77 77 78 54 56 58 57 58 54 58 63 65 67
86 85 84 82 80 74 73 80 82 87 85 85 85 82 83 77 72 74 78 83 81 84 86 97 95 93 82 78 79 82 82 86 84 78 72 66 71 69 72 66 61 59 59
91 89 89 87 87 79 79 77 82 84 84 86 87 78 74 70 63 62 64 63 71 79 80 96 97 77 75 83 88 92 97 91 92 83 75 71 70 74 72 68 58 61 61
93 93 87 87 89 85 78 76 81 91 94 93 92 82 70 60 63 63 59 65 63 62 68 74 75 80 87 85 90 93 91 94 92 81 76 73 85 80 82 67 59 64 66
95 95 90 88 87 82 75 79 82 93 94 93 87 78 76 74 70 65 65 66 75 75 78 69 85 89 89 86 84 88 90 87 88 83 85 94 94 91 88 86 60 61 65
96 95 91 89 87 83 68 65 74 81 83 76 67 65 73 78 64 61 72 69 57 68 55 57 58 51 50 51 66 84 96 95 96 89 91 93 95 96 93 94 84 68 68
100 94 92 89 77 81 62 54 63 63 65 62 66 65 68 70 61 59 77 62 66 69 73 68 59 68 59 63 64 78 92 97 99 98 93 95 97 97 96 90 92 85 88

GFSMA_sfc_rhum_084.txt.gz
RH
98 98 97 98 97 97 97 97 97 95 94 91 78 74 71 70 69 67 70 87 86 78 66 61 63 66 70 75 77 74 71 69 66 65 64 63 62 63 62 63 60 64 62
84 83 83 92 96 90 95 84 94 88 80 77 73 71 70 72 71 70 71 72 86 82 76 65 64 64 65 70 70 75 77 74 71 69 68 66 65 65 64 65 64 63 61
74 77 78 78 72 73 68 76 79 81 82 79 81 78 77 78 78 77 75 75 77 87 84 69 67 69 71 68 69 71 72 76 77 73 72 70 69 68 67 65 64 63 62
75 76 79 83 75 69 73 77 81 83 86 86 85 81 81 69 69 68 71 71 77 72 80 83 78 71 68 68 68 67 69 73 77 80 76 74 72 69 69 68 66 65 64
76 79 79 81 83 84 80 81 84 88 89 85 78 74 73 76 79 76 82 80 82 78 80 83 85 84 78 73 71 70 72 76 79 76 78 80 77 74 71 69 68 65 65
72 80 83 82 83 87 90 91 89 90 83 82 79 80 81 82 90 91 87 83 85 81 84 79 85 88 87 80 77 76 75 75 74 74 75 78 80 79 75 73 71 69 65
70 80 76 76 78 80 79 81 84 86 91 89 89 87 93 91 92 90 94 95 90 73 72 83 81 88 92 84 81 78 76 75 75 73 72 72 71 74 78 78 72 70 66
85 87 91 94 92 92 90 91 91 90 91 85 84 90 95 87 83 82 86 86 86 76 67 68 74 79 94 94 89 82 79 76 74 72 70 70 69 69 68 72 80 81 72
92 91 92 95 93 94 96 97 98 97 98 96 94 94 96 97 96 85 84 83 78 73 71 72 77 82 84 87 88 88 82 78 74 72 69 66 68 66 69 71 70 70 77
80 76 78 79 75 82 88 92 91 96 98 98 96 97 98 96 92 92 89 92 89 76 77 76 80 76 79 84 87 87 83 78 74 73 72 72 69 71 72 70 68 73 76
74 74 75 80 83 86 88 90 92 93 96 97 98 96 94 94 94 95 90 94 96 92 84 75 77 80 79 85 89 84 80 77 75 72 70 72 74 75 73 72 69 68 67
81 81 80 82 84 85 85 88 89 90 95 96 96 96 96 95 96 98 99 96 96 96 87 84 88 90 88 91 85 81 78 77 73 70 70 78 78 77 74 69 73 76 72
86 82 81 82 83 80 79 82 86 90 93 97 95 96 97 98 98 97 97 97 97 95 89 88 92 91 84 96 93 86 79 76 75 74 74 76 77 78 82 76 77 75 76
80 75 78 78 80 79 81 83 89 92 94 97 96 96 96 97 96 98 98 97 98 98 96 96 90 98 91 96 87 82 92 75 77 77 78 75 72 78 81 82 82 84 82
68 71 73 77 79 79 81 84 91 92 94 95 96 95 96 95 95 95 96 98 97 98 99 98 97 87 97 95 88 93 94 80 79 79 79 80 81 80 81 82 82 86 89
69 71 72 73 74 78 83 85 91 92 92 96 96 93 94 93 92 92 93 92 94 97 98 96 96 91 90 82 81 90 89 84 75 78 78 82 81 81 78 80 82 84 87
70 70 71 74 77 79 84 87 89 88 90 93 92 90 87 88 93 96 96 93 95 94 98 99 96 94 91 88 87 80 88 94 86 71 74 77 79 81 79 76 78 81 83
75 75 77 78 82 86 87 88 89 88 91 92 90 84 87 84 90 89 92 93 93 94 97 99 99 100 95 87 88 91 85 72 72 59 58 61 69 72 76 77 78 79 80
77 79 80 82 84 87 88 88 89 91 91 92 91 84 88 88 91 92 93 94 95 94 94 96 99 94 93 86 92 86 80 79 56 56 59 61 60 58 62 68 71 73 74
88 88 85 86 86 87 88 89 92 93 94 94 93 93 92 93 93 93 90 90 88 96 94 93 93 94 92 94 86 78 77 80 74 54 56 56 60 65 60 59 59 62 64
88 89 89 88 88 86 80 83 84 86 86 89 86 82 85 81 75 74 79 82 84 88 93 98 97 95 84 77 75 81 79 84 81 80 72 71 70 71 72 69 67 63 62
91 90 90 90 91 78 78 80 83 87 86 87 88 80 76 72 66 62 61 63 68 76 83 92 96 81 75 81 82 88 95 87 90 84 75 72 77 83 82 80 61 66 64
94 94 93 90 89 87 83 79 82 91 93 92 88 81 72 61 64 68 65 69 68 66 64 69 68 72 80 82 91 93 90 93 90 83 78 71 90 84 86 71 62 67 67
96 96 95 92 90 83 78 82 84 97 98 92 90 82 79 74 68 64 62 74 75 73 76 68 79 82 84 86 83 86 89 87 88 84 87 94 95 90 91 90 71 64 64
97 96 95 95 92 86 76 80 82 83 86 84 74 73 78 79 63 63 68 68 64 69 58 63 63 60 63 66 74 84 96 93 95 88 90 93 95 96 92 95 86 68 72
100 99 95 91 81 81 70 65 68 74 78 73 75 74 68 70 62 62 72 59 59 64 71 65 63 65 63 66 64 76 92 97 98 98 92 94 97 98 95 89 92 90 86

GFSMA_sfc_rhum_087.txt.gz
RH
98 98 98 98 98 97 97 97 97 96 95 93 93 86 79 78 75 73 73 79 88 80 68 63 63 66 70 74 76 76 75 72 70 67 65 63 62 63 63 63 61 64 62
98 98 98 98 98 98 97 97 94 96 94 84 78 75 74 76 76 75 75 75 78 86 78 66 65 66 66 70 71 71 75 77 75 72 70 68 66 65 65 65 65 64 61
90 91 88 87 94 94 85 85 85 88 90 85 88 82 82 82 82 82 78 70 75 86 84 72 67 68 70 66 69 69 71 74 76 78 76 72 70 69 68 66 66 65 63
77 80 81 80 76 73 76 79 84 87 88 89 88 84 84 77 74 70 73 72 74 75 83 83 81 71 67 69 67 68 73 78 80 77 80 78 75 72 72 71 68 67 65
73 75 79 82 85 78 78 81 85 89 91 90 87 77 78 76 75 78 88 82 82 86 87 84 88 80 79 72 70 73 75 75 75 75 78 81 80 77 74 72 71 70 68
75 79 81 81 86 91 93 92 88 88 85 86 82 82 81 82 86 90 94 89 91 87 84 89 87 91 86 80 76 74 73 73 74 73 73 73 74 76 78 76 73 72 70
76 80 86 85 87 85 87 82 84 85 88 91 94 87 90 89 90 93 88 92 94 92 91 88 92 91 90 85 79 76 73 71 71 70 70 70 70 70 70 72 78 76 71
80 79 86 90 94 94 90 90 92 91 90 92 90 91 95 89 87 85 87 83 91 84 78 72 78 86 88 90 90 81 74 72 71 69 66 67 68 68 68 71 70 76 87
97 96 96 97 97 96 94 96 97 98 98 96 94 92 96 98 96 88 87 90 83 84 78 78 79 79 84 87 91 90 82 77 73 71 68 72 67 67 70 70 73 74 76
94 92 90 90 88 90 92 93 93 96 99 99 96 97 98 98 97 91 92 95 94 84 85 83 78 78 86 87 87 85 81 77 73 70 67 64 69 71 72 72 69 68 69
91 91 90 87 88 87 89 92 92 93 97 97 97 97 95 96 95 97 84 94 97 94 89 88 82 88 84 89 87 84 79 75 70 66 66 71 75 73 74 69 68 71 74
93 92 89 86 83 83 83 86 88 90 94 96 97 98 97 95 95 98 99 97 96 94 88 86 89 92 91 94 83 84 78 76 73 70 75 76 75 78 79 74 74 76 72
90 85 80 80 80 79 81 83 85 89 92 95 97 97 96 98 97 97 98 97 98 97 90 93 92 89 84 91 87 86 82 76 76 73 72 73 76 79 80 80 79 79 78
86 81 80 80 80 78 80 82 88 91 93 97 97 98 97 96 98 98 94 97 98 99 96 97 91 93 89 91 84 84 94 75 76 74 75 74 78 76 81 81 79 83 87
74 80 78 79 78 77 79 81 88 90 94 95 97 97 97 96 97 96 97 98 99 87 99 98 96 89 91 90 86 87 93 81 76 78 78 80 81 78 76 79 80 83 87
70 73 75 74 74 76 79 85 89 91 93 95 97 95 95 96 96 96 95 95 97 99 99 96 97 94 92 84 84 85 88 83 74 73 79 81 80 81 78 79 80 80 84
71 71 73 73 75 81 84 86 88 90 91 92 94 93 91 92 96 93 94 94 94 95 99 99 96 94 91 87 83 87 90 88 85 67 68 72 77 77 79 78 78 80 82
72 73 74 76 80 84 88 88 90 90 92 93 93 92 89 84 90 92 92 93 94 94 98 99 99 100 95 89 88 91 86 65 71 62 62 62 65 68 72 74 75 77 79
74 74 78 82 84 86 89 89 90 91 92 93 93 92 90 87 90 92 94 94 95 93 95 97 99 95 94 86 86 88 76 78 56 56 61 63 63 61 64 61 63 67 73
78 80 86 87 87 88 89 90 92 92 93 93 92 93 89 90 91 92 90 91 90 94 93 94 94 95 94 88 80 82 77 77 72 55 55 62 61 69 62 62 64 64 65
90 90 90 89 89 87 84 90 91 89 87 87 87 82 84 81 78 76 78 80 88 94 97 97 95 93 88 77 77 78 76 82 81 81 69 72 70 77 80 78 73 68 65
92 91 92 91 91 84 76 79 82 90 88 89 89 81 76 72 69 64 62 65 68 82 88 96 93 92 79 78 79 80 89 81 87 84 74 72 80 82 82 83 64 69 64
94 94 93 93 94 92 80 82 82 93 95 95 90 82 70 65 70 79 72 74 71 67 64 76 76 73 74 77 88 91 85 89 86 83 78 68 88 83 85 76 64 66 68
96 96 96 94 94 90 80 81 85 99 100 95 87 75 80 74 68 64 68 78 73 77 77 68 75 77 79 83 82 84 88 86 86 83 86 93 92 84 87 90 71 70 67
97 96 96 95 96 92 80 81 89 89 88 85 78 83 83 82 70 60 67 74 77 71 61 64 67 68 71 70 76 86 95 92 92 85 89 91 93 92 88 91 83 74 71
99 99 96 96 90 88 78 77 81 74 84 79 79 77 71 78 67 66 80 59 63 66 72 69 71 66 69 64 68 74 90 96 99 98 93 94 95 95 94 87 91 88 81

GFSMA_sfc_rhum_090.txt.gz
RH
98 98 98 98 98 98 98 97 97 96 95 93 93 93 88 82 82 78 78 80 76 81 72 66 64 66 69 73 73 76 78 76 73 70 68 65 62 62 62 63 62 64 63
98 98 98 98 98 98 97 97 96 95 96 92 83 81 77 79 79 79 79 79 79 78 78 70 65 65 68 69 66 71 73 72 77 77 74 71 68 66 65 65 65 64 62
95 96 98 98 97 97 95 95 91 91 92 87 90 86 85 86 85 85 77 81 75 84 81 76 69 68 67 66 68 72 75 79 79 79 77 75 73 71 69 68 67 66 64
88 92 93 90 84 88 87 80 83 90 90 90 89 87 87 85 74 73 73 72 75 75 81 82 82 75 68 68 68 73 76 75 75 76 80 78 78 75 73 72 70 68 66
80 84 84 81 79 76 78 78 84 89 92 91 91 88 84 87 76 76 82 87 88 88 89 88 87 83 79 72 70 73 73 73 73 73 73 73 75 79 78 74 74 71 70
75 76 82 82 87 88 87 89 87 88 85 84 88 91 93 89 93 94 94 91 94 92 92 90 94 87 84 80 74 71 70 69 70 70 69 70 71 71 72 76 77 74 71
76 78 82 84 89 90 92 93 90 92 89 94 95 92 91 89 91 94 92 93 94 94 93 95 98 98 88 85 78 74 70 67 67 67 62 66 65 67 68 70 70 76 76
89 89 86 92 93 95 92 88 90 94 95 96 93 94 93 91 91 90 94 88 92 90 86 88 92 84 88 90 87 82 78 73 70 69 66 68 68 65 64 69 74 75 74
94 94 96 97 98 98 98 96 96 96 97 97 95 92 89 97 97 93 93 96 91 92 92 89 83 80 85 88 91 88 80 77 72 69 67 62 66 68 70 69 68 71 72
97 98 98 98 97 97 97 97 95 96 98 99 97 97 98 97 95 94 92 96 94 92 95 88 84 82 88 87 86 85 81 76 69 64 64 64 69 70 70 74 72 69 69
96 97 97 96 96 97 96 96 94 94 96 97 97 97 95 96 96 95 94 94 96 96 96 93 85 86 85 86 87 86 79 75 71 67 71 78 74 72 75 68 71 72 72
95 93 92 92 90 84 83 85 87 88 94 96 97 98 97 95 95 97 97 95 97 97 97 92 89 90 93 93 85 85 78 77 73 67 64 74 75 74 76 79 78 76 74
95 86 81 79 80 82 83 83 85 89 90 93 95 97 97 97 96 94 98 98 97 97 98 96 92 90 88 90 87 87 82 76 72 70 70 72 76 77 79 78 77 78 77
93 83 79 79 79 79 80 81 84 89 92 95 96 97 98 98 97 97 89 93 94 98 96 96 94 93 90 92 86 85 88 78 76 76 75 74 76 72 76 78 79 81 83
83 81 77 81 80 80 79 81 85 86 92 95 96 98 97 97 98 98 99 96 94 94 98 98 96 91 91 90 86 86 93 78 76 76 77 77 80 77 77 78 80 80 84
78 74 75 77 77 77 79 81 86 90 92 95 97 97 96 97 96 97 97 97 98 99 97 96 97 94 95 85 86 84 86 78 76 73 76 80 80 79 78 78 79 80 81
75 73 75 78 77 78 82 84 87 90 91 92 93 95 93 92 96 97 96 96 96 97 100 99 96 95 94 90 88 87 83 82 82 64 66 71 74 74 76 75 76 78 79
74 73 73 75 78 82 84 84 86 88 92 93 94 94 92 84 89 90 92 94 96 95 98 99 99 100 96 91 88 89 73 58 70 64 63 64 62 68 67 66 69 74 77
76 76 76 82 81 88 89 90 91 92 92 93 94 93 93 87 88 90 92 95 96 94 97 99 100 96 95 88 87 78 73 74 53 57 58 65 68 64 61 62 65 67 72
84 85 84 83 88 86 90 91 92 93 93 92 92 92 88 88 89 92 91 92 90 95 94 97 96 97 95 86 78 82 77 73 68 54 55 63 64 64 66 67 68 67 66
90 89 90 89 91 88 85 90 92 93 88 87 87 82 84 82 77 82 79 83 86 94 95 100 97 94 90 82 83 76 79 76 78 80 65 73 73 77 82 84 76 66 66
93 92 92 92 92 86 76 77 84 93 90 90 90 82 76 72 74 64 62 63 69 85 93 98 95 91 88 80 77 76 93 77 83 85 72 71 78 78 80 83 66 68 69
93 93 94 93 93 92 79 80 81 96 97 96 93 87 70 64 73 86 79 78 73 68 66 86 87 85 77 75 86 90 82 85 82 81 75 66 82 81 80 78 65 66 67
95 95 95 94 95 93 80 80 88 99 100 98 92 79 69 74 70 68 75 76 77 80 79 68 71 75 78 82 81 84 86 84 83 81 82 90 88 80 82 88 71 68 65
97 96 95 96 96 94 80 81 91 93 93 90 80 72 74 80 69 61 68 75 79 75 61 66 70 70 72 72 78 83 90 89 89 82 87 88 91 90 85 89 79 76 70
100 99 97 96 92 94 81 78 89 84 85 81 73 75 71 83 73 67 72 66 70 77 76 70 74 69 75 68 70 70 89 96 97 96 91 92 93 95 93 86 89 86 79

GFSMA_sfc_rhum_093.txt.gz
RH
78 79 77 79 80 78 76 73 72 68 67 66 63 61 57 52 50 50 50 80 76 72 73 69 66 67 68 74 66 69 73 76 75 74 71 68 65 62 62 63 62 64 62
76 81 82 82 78 76 75 73 69 65 64 65 60 56 54 52 53 55 53 55 80 78 75 73 68 66 66 68 67 72 74 75 76 77 78 74 71 68 66 65 65 64 62
79 78 78 79 76 72 70 72 71 66 65 63 62 59 58 56 58 55 57 60 67 85 82 74 73 71 68 64 68 74 77 76 76 76 80 76 76 73 71 69 68 67 65
78 78 78 76 72 73 74 69 62 61 65 63 58 59 60 60 57 57 58 63 60 58 74 81 80 78 73 69 70 76 74 73 73 73 73 78 78 79 76 74 72 70 68
76 75 74 74 69 64 64 61 58 60 63 64 65 62 62 62 61 58 56 61 64 66 63 80 88 88 79 74 72 73 72 70 70 70 71 71 72 73 76 79 76 74 71
71 73 70 69 65 64 61 62 60 66 68 66 67 68 65 61 58 61 61 61 61 65 66 69 66 69 83 80 74 70 68 67 67 67 65 65 66 68 70 70 73 78 74
66 69 69 69 68 69 66 63 67 69 73 74 77 66 61 59 61 61 60 59 66 69 71 70 68 70 73 86 78 71 68 66 66 66 66 65 62 63 64 64 74 73 76
78 74 70 72 69 73 73 75 82 77 75 75 75 81 74 58 61 64 63 62 66 66 70 73 72 71 72 80 80 81 76 71 68 67 66 65 66 60 66 70 70 73 76
96 94 95 95 90 92 93 93 90 84 82 84 84 79 74 74 75 66 70 66 65 66 68 69 68 69 73 79 81 81 80 73 66 63 62 61 61 68 70 70 67 68 70
99 99 98 99 99 96 93 95 93 92 90 88 84 82 84 86 77 74 70 73 68 67 70 65 66 71 74 76 83 84 81 76 68 63 66 73 72 70 70 65 64 67 68
99 99 99 99 99 98 97 96 95 90 87 80 80 80 78 80 80 83 73 75 74 72 70 67 65 68 76 79 81 83 79 74 67 64 62 68 73 70 70 80 74 72 73
99 99 99 99 98 96 93 94 91 87 85 85 84 84 81 76 76 80 90 83 83 76 72 70 69 72 79 79 86 86 78 76 71 69 67 72 70 72 72 75 74 73 72
97 97 95 95 88 82 82 81 79 79 81 80 80 80 81 82 83 79 82 78 81 78 78 72 73 76 79 74 75 84 85 76 73 71 70 73 72 72 76 75 76 76 76
94 93 93 85 73 74 73 75 75 77 78 82 81 84 84 86 90 89 83 82 84 77 85 80 83 78 81 82 83 85 82 78 76 72 73 75 74 72 76 78 77 80 79
91 84 74 75 74 70 70 72 73 76 79 85 86 88 89 85 87 88 87 84 84 79 74 89 89 84 83 84 83 80 86 80 75 75 76 79 79 78 76 78 79 81 81
78 74 72 72 72 72 72 72 73 75 75 79 83 85 86 85 85 86 86 86 89 89 87 88 90 86 86 82 83 77 78 79 75 71 74 78 77 76 76 76 77 79 79
71 70 70 69 71 74 72 71 74 75 74 75 79 83 84 81 80 81 84 84 86 89 98 98 93 92 93 87 86 80 76 75 68 67 67 70 71 73 72 70 73 76 78
65 65 66 66 67 70 70 71 74 75 75 78 80 83 82 79 79 78 79 82 86 88 95 97 96 99 94 92 88 88 59 52 63 65 66 67 64 67 64 66 67 72 77
66 65 65 68 70 74 76 74 72 74 76 78 80 81 82 78 79 82 82 85 89 86 92 96 98 92 92 87 88 80 71 63 44 55 61 65 68 65 63 64 67 67 72
70 71 71 72 74 75 77 78 79 80 80 79 80 79 77 78 80 87 89 88 85 90 91 95 95 96 93 85 80 81 75 62 55 45 51 60 64 68 70 70 70 67 68
72 73 76 77 76 75 75 79 79 79 79 79 79 77 78 79 77 80 74 77 78 88 91 98 96 94 91 83 78 72 70 60 59 58 48 54 53 55 66 71 68 66 65
80 78 79 80 82 75 80 81 81 79 81 82 85 77 74 74 72 65 63 64 65 78 90 95 96 92 83 74 64 61 66 59 55 62 52 54 56 56 60 71 66 67 66
83 83 82 80 80 79 79 80 81 87 92 92 91 87 69 64 71 74 76 70 66 67 65 76 80 78 74 65 72 79 80 70 58 62 56 51 58 58 60 67 62 64 66
88 86 84 83 84 82 81 80 86 98 99 98 93 82 67 62 56 62 60 60 58 64 64 54 58 61 60 65 64 74 72 65 69 67 63 69 62 58 62 66 71 69 64
90 93 90 92 93 87 82 81 87 86 85 84 78 69 63 61 60 62 58 65 60 64 61 70 70 71 70 71 67 65 72 73 67 63 68 67 68 64 65 67 60 74 70
99 92 94 91 87 83 85 81 83 82 81 83 74 69 76 64 69 66 56 52 54 60 61 63 61 66 68 66 67 59 76 85 80 79 74 79 76 74 82 71 70 66 59

GFSMA_sfc_rhum_096.txt.gz
RH
47 47 46 47 47 48 47 45 47 47 47 47 45 43 42 40 39 39 40 76 76 73 70 70 69 68 69 73 66 71 75 74 75 75 75 72 69 65 63 63 62 63 61
50 53 53 56 53 52 49 47 48 50 47 45 44 43 42 42 41 43 42 45 80 79 76 73 71 69 68 67 68 70 72 74 76 77 78 78 75 72 68 66 66 64 62
59 62 64 63 56 53 49 50 48 46 47 48 47 46 45 42 43 40 40 41 51 88 83 76 74 73 73 68 68 74 76 73 71 71 75 80 78 76 74 72 70 69 66
64 68 67 58 53 53 51 49 46 45 45 47 45 44 46 44 42 40 41 38 41 42 68 82 80 79 76 72 69 76 73 70 69 70 72 73 75 76 78 78 74 72 71
66 68 65 58 57 54 52 52 46 43 46 49 50 48 47 44 42 42 42 43 45 48 46 71 87 84 82 75 71 73 70 68 68 67 67 68 70 71 72 74 79 78 73
69 71 65 57 54 53 49 49 44 45 49 51 50 49 46 44 41 42 44 42 44 52 51 53 53 58 84 79 76 71 67 66 66 66 64 64 63 65 66 69 72 74 78
59 66 67 59 56 55 50 48 49 54 57 54 55 48 46 43 44 47 45 44 49 53 55 56 53 55 67 86 78 70 66 66 67 67 66 66 66 61 63 64 70 75 76
66 69 70 66 60 57 56 56 60 64 53 56 56 62 55 42 44 49 48 48 50 50 54 60 59 62 63 62 77 82 74 67 65 64 63 63 63 63 62 71 68 69 73
79 82 80 88 82 72 79 86 87 81 76 71 70 62 56 48 54 41 53 50 50 49 53 58 59 60 61 65 69 76 79 74 65 61 63 66 67 69 68 67 64 63 66
94 98 96 98 99 99 96 91 89 84 75 76 72 67 65 59 52 48 49 54 53 52 55 53 54 58 59 64 81 85 81 76 68 65 64 67 70 70 68 75 68 68 70
99 99 98 99 99 100 99 97 96 91 81 71 66 56 51 54 57 58 52 48 55 56 56 55 55 56 60 64 69 81 81 75 67 62 61 67 66 68 69 72 77 75 72
98 99 99 98 99 99 98 98 93 91 88 84 80 73 59 54 53 58 59 60 62 58 63 60 61 60 62 63 77 86 81 77 72 70 67 71 70 70 70 71 74 75 73
98 97 98 98 98 98 95 88 85 83 78 80 81 78 74 69 67 65 68 67 67 58 60 62 61 66 67 67 68 81 86 81 78 73 72 72 70 69 70 74 74 76 74
90 91 96 95 95 89 79 72 69 67 71 75 74 74 70 69 71 67 68 76 78 64 59 63 68 68 70 74 83 82 76 79 74 72 72 72 73 73 75 76 78 80 80
85 87 86 88 79 71 66 60 58 60 61 67 71 73 72 72 74 76 77 80 80 75 60 59 74 76 80 79 81 75 83 86 78 77 76 78 79 76 75 76 78 80 80
85 84 79 69 64 60 60 61 60 60 62 64 67 71 71 71 72 76 80 79 83 87 85 73 78 75 78 77 81 74 78 80 74 71 74 76 75 76 74 74 76 77 78
76 71 63 60 60 60 59 60 62 65 64 66 68 70 73 74 74 78 81 78 78 79 91 77 87 88 90 86 82 74 71 73 76 70 68 68 71 70 69 70 71 75 76
65 61 59 58 58 59 58 59 63 63 64 67 67 70 70 69 72 67 65 69 72 78 92 93 94 98 94 88 84 82 60 54 66 70 67 67 66 65 65 66 67 69 76
58 56 56 56 56 60 58 57 57 59 60 61 64 65 66 68 71 67 68 72 78 76 82 88 94 90 91 88 87 81 69 59 45 57 57 68 68 65 65 66 66 66 71
55 54 53 55 57 59 59 59 60 60 61 62 66 66 66 66 66 73 77 80 80 84 84 88 93 94 91 85 84 85 81 68 61 41 52 56 60 65 67 68 67 66 69
53 53 55 58 58 58 58 63 63 62 64 65 67 64 69 73 76 72 67 71 71 76 82 93 97 94 92 87 87 82 84 71 56 49 45 46 46 48 57 60 62 68 66
59 59 59 61 65 58 78 77 68 64 65 68 72 68 67 75 72 70 67 65 63 70 81 92 96 94 87 83 74 75 72 70 69 53 51 51 50 49 56 64 66 68 68
64 64 64 64 65 63 82 82 82 68 73 75 77 76 67 58 68 64 74 69 65 68 65 72 84 83 81 74 75 74 66 63 53 60 53 48 51 50 57 59 66 65 66
72 72 69 66 68 66 82 82 82 86 90 86 82 73 65 59 59 59 50 55 46 48 50 43 53 59 59 60 61 68 69 57 55 55 55 65 52 52 54 63 74 70 70
74 76 72 75 76 72 84 82 85 75 74 75 71 68 64 58 56 62 50 57 46 51 64 69 67 66 66 62 53 54 64 65 58 54 58 57 58 56 56 62 58 73 72
94 81 82 77 77 70 84 83 81 69 67 71 68 66 73 58 62 64 51 47 46 47 52 61 63 66 62 67 64 53 65 93 74 71 61 75 69 68 82 66 65 62 59

GFSMA_sfc_rhum_099.txt.gz
RH
44 44 43 45 46 41 41 41 39 38 37 38 41 42 41 39 37 39 42 78 75 71 69 68 69 70 70 73 67 68 70 74 74 76 78 78 75 70 66 64 64 63 62
44 46 44 46 46 47 44 42 41 43 42 42 41 40 39 39 39 41 42 53 82 78 76 74 72 71 67 61 66 70 72 74 76 73 74 78 78 76 73 70 68 66 64
47 50 51 55 53 50 46 52 42 43 42 42 44 42 42 40 41 38 39 42 58 86 82 74 73 74 75 64 68 72 72 72 70 70 71 73 77 78 77 76 73 71 69
54 58 62 61 56 54 55 52 45 45 43 43 44 43 44 43 41 38 39 40 44 42 75 80 78 76 77 74 67 70 72 70 68 68 68 69 71 72 73 74 77 76 73
59 63 62 60 55 57 55 50 45 42 43 47 47 46 56 46 41 37 39 42 44 48 50 75 83 83 80 75 68 71 70 68 68 65 64 65 65 65 66 70 73 76 79
64 62 60 59 56 61 60 50 48 43 45 50 54 48 47 45 46 43 41 40 43 51 53 57 59 79 84 79 75 72 69 67 66 65 65 66 67 64 63 64 67 72 75
62 64 66 61 64 60 56 48 48 49 56 53 63 52 49 46 44 49 47 44 46 51 53 56 57 66 75 86 80 72 68 66 66 65 65 65 65 65 62 61 73 73 75
63 67 68 68 66 67 61 56 54 65 69 67 59 62 62 46 47 48 48 47 47 52 52 56 59 66 75 78 83 82 73 66 63 61 61 63 63 64 67 70 68 66 65
74 76 75 77 80 79 87 79 77 79 83 81 74 60 60 55 52 45 51 49 49 51 54 58 61 62 65 75 78 79 80 76 66 62 69 71 72 70 69 70 70 65 64
83 83 82 81 84 93 97 95 94 89 81 82 80 64 62 56 58 53 54 54 53 51 54 57 57 62 62 68 82 87 84 77 67 64 61 65 68 68 67 67 71 75 74
85 87 87 93 96 98 98 98 99 99 95 84 77 69 56 60 58 65 61 57 60 57 58 59 60 61 63 68 74 84 81 76 69 66 70 70 70 70 68 70 69 73 74
94 97 96 98 97 97 98 98 98 97 96 88 80 78 73 69 68 70 66 60 60 59 66 64 67 65 68 70 79 86 81 77 75 72 69 73 71 69 69 69 74 73 75
98 98 99 98 98 98 98 96 98 93 85 82 83 80 80 76 74 70 68 66 66 60 62 65 67 71 69 72 76 84 85 80 78 73 71 72 70 70 69 69 73 75 76
96 93 98 97 96 96 95 92 90 85 79 80 80 78 75 72 70 71 72 77 80 71 66 68 75 74 74 80 85 80 83 82 75 74 73 73 74 74 72 73 74 77 80
89 94 96 98 98 96 91 84 76 70 67 74 75 78 76 75 79 80 80 79 82 82 71 74 82 80 84 81 85 78 82 82 78 77 78 78 76 75 74 74 74 75 78
91 94 96 93 87 82 78 70 66 66 66 69 71 74 74 74 77 77 82 82 85 85 87 82 87 83 82 77 80 78 81 79 73 72 74 74 74 74 72 72 73 74 76
87 88 84 82 78 68 63 66 68 68 68 70 70 70 71 70 76 78 82 81 84 85 94 85 92 90 90 87 83 76 75 77 82 72 69 70 71 69 68 68 69 69 75
78 77 72 69 70 66 62 64 69 69 68 70 73 73 72 72 80 78 77 79 79 84 95 92 95 99 96 93 87 81 60 57 76 80 70 68 66 65 65 65 66 64 71
69 65 65 64 61 61 60 60 60 62 64 65 67 70 72 73 78 77 78 81 83 78 87 93 98 94 94 90 90 83 69 61 50 68 57 68 68 66 65 65 65 66 70
62 62 60 59 62 63 63 63 63 64 67 67 69 72 70 73 76 81 79 84 82 88 87 91 92 96 93 88 88 88 85 73 64 42 58 60 60 57 60 65 67 70 68
58 56 56 57 58 60 58 63 62 61 63 65 70 67 72 74 78 75 71 74 75 83 85 94 98 98 97 92 94 89 91 82 71 67 65 59 61 61 64 63 65 69 67
59 57 59 62 67 55 74 74 68 65 65 67 73 71 71 80 78 76 73 67 71 79 82 88 98 98 94 90 80 85 91 87 91 70 68 68 69 66 71 78 69 67 69
64 65 62 62 64 63 81 79 80 69 74 76 77 78 74 65 74 69 71 73 71 68 68 76 85 91 89 83 87 88 85 86 79 75 71 67 65 64 71 68 70 67 68
71 71 68 66 69 67 84 83 83 84 87 87 84 77 72 64 68 69 64 68 53 54 56 48 66 71 73 75 78 84 84 74 71 67 68 90 66 65 70 80 74 72 73
74 77 72 73 75 74 87 87 84 78 80 81 75 72 70 64 63 67 62 72 57 59 67 65 66 65 65 61 64 76 87 87 80 71 73 78 74 76 72 77 74 71 72
84 83 80 76 76 74 87 86 84 70 72 75 71 72 75 64 64 68 57 62 65 61 65 80 80 77 70 70 60 67 88 97 94 91 78 92 90 92 96 81 79 78 74

GFSMA_sfc_rhum_102.txt.gz
RH
71 67 72 73 72 73 72 70 62 56 53 52 55 58 58 58 56 59 68 82 77 74 67 66 67 68 70 68 69 70 70 73 74 77 73 75 77 76 72 68 66 64 63
68 67 66 67 66 64 61 60 58 61 56 58 57 58 57 58 57 57 67 74 84 79 77 72 71 70 70 60 65 71 73 75 73 70 70 72 78 78 77 75 72 69 66
64 66 66 70 70 68 63 62 61 61 61 59 63 59 59 57 52 50 52 62 78 87 83 74 72 71 72 69 65 71 73 73 70 69 68 70 71 72 74 74 76 76 72
64 72 80 80 75 72 72 70 68 65 63 61 66 64 60 61 57 55 54 51 59 63 83 82 79 74 73 71 67 71 72 70 69 67 66 66 66 66 67 70 73 76 79
68 78 82 80 73 75 74 69 66 62 62 64 64 62 59 58 53 50 55 54 64 66 69 83 84 84 80 75 69 70 70 68 68 66 64 66 67 65 65 65 66 68 74
74 80 80 78 74 76 75 70 67 61 59 65 56 58 58 61 62 65 64 54 63 67 72 70 84 93 85 80 77 73 69 67 67 66 66 67 66 65 65 62 71 74 74
70 78 80 76 76 76 74 66 66 63 67 71 71 72 70 63 65 64 64 65 66 67 70 73 87 92 89 89 83 75 69 67 66 63 63 64 64 64 65 70 69 67 66
84 80 82 82 76 80 77 71 66 76 80 83 82 81 81 69 71 62 68 63 67 69 72 74 80 87 84 86 88 84 75 66 62 60 65 67 68 68 69 69 69 67 65
81 84 86 89 88 87 89 90 88 88 92 94 90 88 81 76 70 73 71 68 68 73 79 78 78 75 79 83 85 84 82 76 66 63 63 68 69 69 66 64 65 71 72
91 90 91 91 94 97 96 97 94 96 94 97 94 80 74 70 71 63 71 70 67 66 74 76 81 79 83 90 88 88 86 79 65 61 61 64 66 67 66 67 67 68 71
95 96 95 95 96 98 98 98 99 98 97 96 95 89 70 69 71 75 74 77 72 70 70 77 79 83 80 88 95 89 81 74 72 72 74 73 70 68 67 66 66 68 68
98 98 97 98 98 99 98 98 96 95 96 95 95 87 77 74 76 74 78 73 71 72 77 81 84 90 85 90 84 88 82 76 72 70 68 71 70 70 69 68 69 69 69
99 99 99 99 99 98 97 96 99 99 99 98 92 86 84 78 79 77 78 77 76 73 80 82 89 92 81 90 90 89 83 79 74 72 74 74 73 72 71 70 72 70 71
97 97 98 99 98 98 98 98 98 98 96 95 92 88 88 86 83 81 84 88 92 86 82 89 95 94 88 87 84 81 90 83 76 75 75 76 75 73 72 72 72 71 74
92 94 96 97 98 97 98 98 97 94 90 91 91 89 87 86 88 90 90 91 92 93 87 96 98 94 97 95 88 85 87 84 77 78 78 76 76 75 74 73 74 72 76
97 98 98 98 99 98 98 97 93 87 84 89 86 88 87 87 92 93 93 93 93 94 95 94 97 96 92 87 82 85 86 81 74 73 74 74 75 72 71 71 71 71 71
96 98 98 98 96 93 90 87 82 80 82 83 82 86 84 85 92 94 93 90 90 91 94 95 97 96 94 91 89 79 77 81 83 71 70 70 70 69 67 65 64 64 70
91 90 88 89 88 81 77 78 79 80 80 82 82 79 80 81 90 92 95 95 95 94 97 97 98 100 98 94 87 82 62 60 83 79 73 69 67 66 65 64 64 65 67
89 79 77 78 77 76 76 79 82 82 81 80 81 82 82 87 93 95 93 93 92 86 93 97 99 98 97 93 93 83 70 64 53 73 61 64 68 65 61 62 68 69 68
85 78 71 70 72 72 72 74 75 76 78 78 78 79 81 86 89 92 90 91 91 95 95 97 98 98 96 93 92 92 89 76 68 43 58 60 56 51 58 61 67 70 68
79 78 70 67 69 70 68 72 71 74 76 77 80 78 81 82 83 84 87 88 86 94 97 98 98 99 99 96 98 94 95 88 77 73 68 68 72 75 76 79 72 70 69
78 76 75 74 74 64 74 78 73 73 75 78 87 85 86 82 80 76 76 73 78 87 90 95 98 98 98 96 90 92 96 90 94 80 80 77 77 80 87 90 68 67 65
84 82 80 79 81 78 80 78 78 82 86 89 90 91 88 79 87 87 75 73 72 69 72 84 91 94 96 92 91 92 93 91 84 85 80 82 78 80 87 81 71 67 68
88 88 86 84 85 82 82 82 83 88 90 90 90 91 90 88 87 86 89 86 73 67 66 62 86 88 91 84 82 87 89 83 82 75 80 93 79 80 88 93 70 70 71
90 90 88 88 89 89 86 87 89 94 95 94 93 91 88 82 80 75 84 82 69 71 64 60 66 66 68 75 81 90 93 90 91 83 83 86 84 86 83 92 90 70 69
92 97 93 91 88 91 89 89 89 88 95 95 92 90 84 79 73 75 76 71 75 76 89 90 88 78 77 69 63 84 91 89 96 94 86 94 96 96 97 92 90 90 86

GFSMA_sfc_rhum_105.txt.gz
RH
82 88 90 83 97 97 96 97 91 80 72 61 58 61 61 61 64 70 75 86 81 76 68 66 66 68 69 70 70 72 72 73 75 74 72 74 77 78 75 73 70 68 65
78 84 83 86 88 86 85 82 77 69 62 58 58 60 59 66 64 67 69 73 84 78 78 71 69 69 69 63 66 72 74 75 72 69 69 70 73 77 77 76 77 76 72
73 76 77 80 78 74 72 70 65 68 70 65 66 63 61 62 62 52 61 62 73 88 84 74 71 70 71 69 66 72 74 73 69 68 68 68 68 68 69 70 73 75 78
65 69 70 74 76 75 75 74 74 73 73 70 69 66 65 62 64 58 62 68 69 71 87 83 79 74 73 71 70 72 74 71 70 67 65 67 67 66 65 66 66 69 73
65 76 79 84 79 78 79 75 75 71 70 68 67 67 67 61 59 50 56 65 71 74 78 85 86 84 80 74 73 73 72 70 69 66 66 66 66 66 66 64 68 69 72
73 84 85 83 80 82 80 80 74 71 67 66 60 62 67 62 62 68 66 65 73 76 77 81 94 96 88 82 78 74 71 68 67 66 64 64 64 65 65 69 69 69 68
76 84 87 85 81 79 80 74 73 70 69 75 81 74 70 65 69 70 70 73 75 76 78 91 97 97 96 91 85 77 71 69 67 64 62 63 65 67 68 68 69 69 66
82 85 86 86 86 85 82 78 72 78 78 88 85 87 83 72 74 70 73 69 77 79 80 85 94 95 96 97 89 86 78 67 62 61 66 68 68 68 69 65 65 68 70
88 85 88 91 90 89 91 89 87 86 93 96 91 86 88 78 77 76 75 73 74 82 85 86 87 86 90 94 88 87 81 76 68 66 63 67 68 66 66 65 66 65 70
90 91 91 92 93 96 95 96 96 95 94 96 98 86 84 77 72 76 74 73 70 77 85 85 89 87 89 95 90 88 86 80 67 64 65 66 68 67 67 66 66 64 69
98 97 97 97 97 98 98 97 99 98 98 97 97 97 83 79 77 74 73 76 76 74 82 83 91 92 85 91 95 90 81 77 74 75 73 72 72 69 68 67 67 69 69
98 96 96 98 98 99 99 98 98 98 98 97 96 89 83 74 74 76 78 74 81 81 79 79 89 92 87 94 89 88 83 77 74 71 71 72 72 70 69 70 70 70 68
99 98 97 99 99 98 98 98 98 98 98 98 95 93 88 81 81 78 77 78 74 75 83 91 96 96 90 96 95 88 84 78 75 74 76 74 73 72 72 72 72 70 72
98 97 98 99 99 98 99 98 99 99 99 99 98 94 90 87 88 85 84 85 88 87 91 94 98 97 97 97 89 86 93 83 78 76 75 77 75 74 72 72 72 70 73
95 97 97 98 98 98 98 98 98 98 98 98 98 96 91 87 90 91 90 89 86 91 92 98 98 96 97 96 90 93 93 83 78 79 78 76 76 74 72 72 72 70 70
95 97 97 97 96 98 97 98 98 97 98 97 96 93 91 90 92 95 95 95 94 91 91 96 98 97 96 90 88 92 91 81 75 74 75 74 73 70 69 66 64 64 68
98 98 98 98 98 98 98 98 98 96 96 97 92 90 93 90 96 96 96 96 96 96 97 98 98 97 96 96 93 88 82 88 85 72 70 72 70 66 65 64 63 64 63
95 96 98 99 99 98 98 98 96 93 95 94 87 88 91 86 94 93 96 95 96 96 96 96 98 100 98 94 90 84 66 63 85 76 73 69 68 66 64 62 66 69 67
92 92 91 91 90 89 87 88 89 86 87 87 83 85 84 92 94 96 97 97 97 95 96 97 99 98 98 95 93 83 70 67 61 74 67 63 68 63 57 60 67 70 69
90 88 85 82 80 78 77 80 83 89 91 89 88 84 83 87 92 95 95 96 94 96 96 97 98 99 97 96 93 95 91 78 71 46 54 60 57 51 56 64 68 73 70
84 86 81 78 78 76 73 79 82 84 87 85 89 88 89 89 89 90 91 95 95 96 98 100 99 100 99 98 99 97 97 91 81 75 67 64 70 79 85 83 77 70 66
85 83 85 81 83 76 77 80 78 78 80 83 87 88 90 90 88 84 84 86 88 94 97 98 99 99 98 96 94 97 98 95 96 81 81 79 79 82 89 92 67 65 66
88 88 87 85 84 84 79 80 82 81 85 86 88 90 89 83 87 87 80 78 77 79 82 91 91 94 94 92 94 95 96 92 90 80 80 81 84 83 92 84 70 63 66
90 91 90 89 89 85 81 81 83 90 91 91 90 87 84 84 89 86 86 92 88 81 79 79 92 85 86 90 88 89 92 84 76 78 81 91 86 82 92 94 70 67 72
93 93 92 91 92 91 84 85 86 93 94 92 88 88 85 85 85 82 89 92 78 70 62 64 67 69 71 82 84 87 90 91 92 82 84 85 87 87 88 94 90 71 68
94 93 92 93 91 94 86 88 87 88 88 91 90 92 88 81 81 81 86 84 82 74 86 88 85 77 75 84 80 90 90 92 96 94 87 94 98 96 95 94 92 91 90

GFSMA_sfc_rhum_108.txt.gz
RH
85 73 75 82 85 98 98 98 97 94 86 78 72 72 69 66 70 70 80 89 84 79 72 68 66 68 69 71 72 73 74 74 76 73 70 71 75 78 79 78 76 75 72
79 79 76 82 87 98 98 97 97 92 82 75 67 69 67 67 68 68 70 75 86 82 78 69 67 68 68 66 65 72 75 75 73 69 68 69 70 71 71 71 73 74 76
78 77 76 81 94 96 95 93 91 80 75 66 67 65 68 68 68 68 69 68 70 91 84 73 71 70 70 69 67 70 75 76 70 68 67 66 67 68 67 67 68 69 72
74 79 80 81 87 88 85 85 82 78 79 78 74 72 69 68 66 67 60 75 78 76 87 85 79 74 72 71 69 71 75 73 70 68 66 66 68 68 67 66 67 71 72
74 78 78 81 81 79 78 75 81 77 80 77 74 73 74 72 68 58 64 76 80 81 82 85 86 86 80 74 72 72 76 72 69 66 66 66 66 66 67 69 71 71 69
68 71 74 76 74 77 78 83 77 79 75 72 62 66 74 75 67 63 64 70 78 82 84 90 95 97 93 87 78 74 76 70 68 66 64 64 65 65 68 69 70 69 68
70 73 73 77 78 78 80 80 79 76 77 75 82 81 81 74 74 67 71 80 82 81 88 95 98 98 98 93 87 80 75 71 70 65 62 64 66 67 68 67 64 68 70
77 82 78 84 84 85 85 80 81 84 81 88 88 89 88 76 77 76 76 78 82 83 91 95 95 96 97 98 94 87 78 72 66 62 65 69 68 68 66 66 66 62 67
81 85 89 90 92 90 89 90 88 86 92 96 92 91 93 87 88 81 81 79 86 90 93 96 97 94 96 96 92 89 82 76 70 67 70 67 68 66 65 66 66 65 69
88 88 89 93 93 95 96 93 94 92 95 96 98 95 93 79 80 86 82 80 75 85 86 89 87 91 88 96 91 87 85 81 68 65 65 69 73 67 67 67 67 67 68
97 96 94 95 96 98 97 98 99 98 98 98 98 98 96 94 89 82 87 86 78 77 79 84 88 89 87 93 95 88 80 79 76 75 71 73 72 71 69 68 67 67 68
99 99 99 99 98 99 99 98 98 99 99 98 94 96 88 86 84 82 78 83 82 82 85 87 92 90 92 96 90 88 83 78 75 73 73 75 73 72 71 70 70 70 70
99 98 98 98 98 98 98 98 99 99 98 98 98 96 87 88 91 91 86 82 79 82 86 93 93 92 93 97 95 89 85 79 76 74 76 78 76 74 73 73 72 72 71
99 98 98 98 97 96 97 98 99 98 98 99 97 96 94 92 90 86 86 85 92 88 87 95 96 98 98 97 93 89 94 83 79 76 78 78 77 75 74 74 74 73 70
98 98 97 97 98 98 98 98 99 98 98 98 98 98 97 95 92 90 87 84 85 88 94 97 99 98 98 97 92 95 94 84 79 79 77 76 76 73 72 71 68 66 67
98 97 97 97 98 98 98 98 98 97 99 99 98 99 98 94 92 93 94 92 89 86 86 97 99 98 97 91 90 93 92 83 78 75 75 74 73 70 69 66 65 64 63
98 98 96 97 97 96 97 97 97 98 98 96 98 98 96 91 91 97 96 96 96 94 94 99 98 98 98 97 96 92 90 92 88 74 71 72 71 67 66 64 65 68 67
95 96 96 99 99 99 99 99 99 99 98 98 98 97 96 94 94 94 94 96 96 96 96 96 99 100 99 96 92 88 73 71 88 77 73 71 70 67 64 62 65 68 69
94 93 93 95 96 97 98 98 98 98 98 98 98 98 96 95 94 97 97 97 97 97 97 97 100 99 98 95 93 84 73 70 70 77 73 66 69 66 57 58 67 69 72
89 91 89 89 90 90 87 88 91 94 95 95 96 96 96 95 95 98 98 97 97 98 98 98 98 99 98 97 95 96 95 82 77 53 62 56 60 54 56 66 69 71 70
85 88 90 86 86 87 84 89 87 87 91 93 94 92 93 93 94 95 95 98 97 97 98 100 99 100 99 99 99 98 98 95 88 77 66 67 66 72 82 82 80 73 68
90 87 87 89 90 82 80 82 85 92 88 90 92 91 90 94 93 92 90 90 89 93 95 98 99 99 98 97 95 98 99 98 99 87 80 73 76 79 84 93 76 65 64
93 92 91 91 91 90 83 82 83 92 92 92 91 92 92 89 94 95 92 92 91 89 87 86 96 95 97 92 96 98 98 96 94 84 78 84 84 81 88 87 76 64 65
95 96 94 93 94 89 85 86 84 92 94 92 91 90 87 88 90 90 92 94 92 92 92 93 92 92 90 87 85 90 94 90 76 77 76 86 87 81 89 96 82 65 71
94 96 95 93 92 92 88 87 88 93 95 93 87 87 86 86 84 88 90 95 91 83 67 75 80 83 81 83 88 93 94 91 87 83 83 79 89 88 91 95 91 74 66
91 91 91 89 89 90 85 89 89 87 89 87 86 89 88 86 83 86 88 89 91 80 78 79 80 76 79 85 86 91 92 94 95 93 85 87 97 96 93 93 94 91 92

GFSMA_sfc_rhum_111.txt.gz
RH
76 72 85 82 85 92 93 97 98 97 94 84 78 77 76 78 75 77 86 87 88 82 73 69 68 68 69 71 71 74 76 75 75 73 69 71 72 74 74 72 72 72 73
77 76 81 88 86 90 97 93 98 97 94 85 79 75 74 75 72 73 75 78 88 85 80 71 67 67 68 67 66 70 76 75 75 69 68 69 69 69 68 68 68 68 69
78 74 79 82 83 90 93 94 97 95 93 82 80 70 72 74 72 71 70 74 75 87 84 73 71 71 72 69 68 67 77 76 72 68 67 66 68 68 68 67 67 72 72
86 84 78 79 87 92 97 94 97 95 88 84 77 75 73 72 70 71 71 74 74 74 87 84 80 75 73 72 70 69 76 77 72 69 66 67 67 66 67 68 71 72 70
93 87 90 82 86 90 95 93 94 88 87 84 82 78 77 77 74 68 73 76 79 83 87 83 85 87 80 75 73 70 74 75 71 68 66 65 65 65 66 69 70 70 69
96 98 93 82 82 84 87 90 86 85 82 79 69 69 76 78 81 76 72 76 80 82 87 91 94 97 94 86 78 73 78 75 71 69 66 64 65 65 67 67 66 67 68
95 98 93 90 83 80 80 78 80 80 83 81 79 80 85 82 78 76 77 80 84 86 89 94 98 98 97 93 88 83 77 74 70 68 65 64 67 67 68 66 67 63 68
90 88 89 81 78 79 79 79 81 88 85 89 87 93 90 83 80 77 79 80 89 90 95 96 96 96 97 98 94 88 80 74 71 66 64 69 70 68 67 66 66 66 63
92 89 91 88 85 83 86 89 88 88 92 93 91 89 94 92 90 82 82 80 87 94 96 97 96 95 96 96 93 89 82 76 70 68 71 72 70 69 66 66 66 65 69
91 90 90 88 89 91 95 92 93 92 92 93 97 97 94 84 86 87 87 85 85 90 94 93 95 91 90 90 89 87 84 80 70 67 67 68 73 74 70 68 67 66 68
96 90 89 88 91 93 95 96 98 97 96 96 98 98 98 98 96 91 89 86 82 86 86 88 88 88 87 88 90 86 81 79 76 75 71 73 73 70 69 70 69 69 69
99 99 99 98 98 98 98 99 99 99 98 97 98 98 96 96 96 96 90 88 91 88 86 88 91 90 91 91 88 86 83 78 76 74 72 72 76 73 72 72 71 71 70
98 99 98 99 99 99 99 99 99 99 98 98 96 95 96 93 89 90 88 89 92 94 95 93 94 96 91 97 92 90 86 79 77 74 74 79 78 76 75 74 74 73 72
98 98 99 99 99 98 98 98 99 99 99 99 99 99 96 91 91 87 86 90 96 92 94 93 98 98 96 94 94 90 93 83 79 76 78 80 78 76 74 73 72 70 67
98 98 98 98 98 98 98 98 99 99 99 99 99 98 97 94 93 93 96 96 94 98 94 93 99 98 99 98 95 96 95 84 79 79 79 77 76 73 71 69 66 66 66
99 99 99 99 99 98 98 98 98 98 99 98 98 98 98 96 95 94 93 88 86 81 88 93 99 98 98 94 93 96 94 86 80 78 78 77 74 71 68 66 66 68 69
99 99 98 98 98 97 97 98 98 97 98 98 98 98 98 97 96 97 94 92 93 91 87 99 99 99 99 98 98 93 92 94 94 78 75 75 74 69 66 65 64 68 70
95 96 96 96 98 99 99 99 99 99 98 98 98 98 98 98 98 95 92 92 92 96 94 94 99 100 99 97 97 96 86 81 95 81 76 74 74 69 65 61 62 68 70
91 92 91 92 94 94 96 96 98 98 99 99 98 99 98 99 98 99 98 98 98 98 98 97 100 99 99 96 95 90 88 81 81 83 78 73 72 70 60 57 66 66 71
86 88 90 89 88 90 92 93 93 95 96 97 97 98 97 98 98 98 98 98 99 99 99 98 99 100 99 98 95 97 97 87 84 63 74 64 66 65 56 65 69 72 69
89 90 90 90 90 87 83 90 91 93 94 94 94 94 95 96 96 96 97 98 98 98 99 99 100 99 100 99 99 98 99 98 89 80 70 72 75 71 70 76 77 74 67
94 93 93 93 92 84 84 86 86 93 93 93 94 94 95 95 96 95 94 95 94 97 98 99 99 99 99 98 99 99 99 99 99 94 82 80 72 76 77 89 80 66 64
94 95 94 93 93 93 85 86 87 93 95 95 94 91 91 95 94 95 95 95 95 93 86 90 96 95 98 96 97 99 98 97 97 92 84 88 80 76 79 82 78 66 64
93 94 95 94 95 91 86 87 88 94 95 95 94 93 93 92 91 95 96 100 98 97 95 96 92 92 88 90 88 91 94 93 81 80 79 89 83 77 85 96 82 67 69
93 91 92 92 94 94 88 89 91 93 93 93 88 87 90 92 88 87 96 97 97 96 79 86 86 84 84 85 88 93 97 96 92 83 82 76 85 85 89 95 92 76 68
93 95 93 89 83 91 86 84 86 90 89 92 87 86 87 88 86 86 96 95 98 95 93 89 90 86 86 89 86 88 94 100 94 94 83 86 94 92 93 91 95 93 92

GFSMA_sfc_rhum_114.txt.gz
RH
82 73 92 95 95 98 98 98 98 95 94 91 85 84 82 81 80 79 90 88 87 83 75 70 69 69 68 70 71 73 76 78 77 75 69 69 69 68 68 68 68 68 68
77 74 79 84 97 98 97 96 96 97 96 92 82 82 80 82 81 77 79 83 85 87 80 74 70 67 67 68 68 70 76 77 77 71 69 67 67 67 66 67 68 71 70
86 78 81 90 92 92 93 96 95 97 97 90 89 82 78 79 78 75 74 77 78 85 86 73 72 70 71 71 68 68 72 78 76 70 68 67 67 66 66 67 70 70 69
84 84 85 88 90 92 88 92 95 98 97 96 91 83 76 75 77 77 75 76 78 74 84 83 82 77 75 74 71 69 69 79 74 71 68 67 66 65 65 68 68 69 69
88 88 88 89 94 93 90 89 94 91 96 94 87 83 80 80 77 71 75 76 79 82 83 84 89 83 80 74 72 71 70 80 74 70 68 66 65 65 66 68 68 68 68
92 94 92 94 95 97 95 90 90 91 90 88 74 74 81 81 82 83 79 73 80 86 87 90 95 96 90 84 79 72 70 79 75 71 67 64 65 65 67 66 65 64 63
96 96 96 98 98 99 97 88 86 87 93 88 87 85 85 83 83 82 77 81 84 87 89 94 97 97 97 91 91 85 77 78 74 69 67 65 65 68 68 67 68 67 64
94 95 94 94 98 99 96 94 87 88 86 91 90 94 90 82 84 79 79 80 84 91 93 94 96 96 96 97 94 88 83 76 73 71 67 67 70 69 69 67 67 66 67
94 95 94 93 93 97 95 94 93 88 92 95 91 87 95 92 92 86 84 82 90 95 95 96 96 96 95 96 93 87 83 78 70 68 69 74 75 71 69 68 67 66 66
93 93 86 84 89 92 90 90 90 90 91 93 96 96 94 84 88 85 83 89 92 92 95 98 96 94 93 93 90 89 82 79 73 70 68 68 68 72 73 70 69 68 68
95 93 88 88 90 93 92 89 94 93 92 94 95 98 97 97 90 86 87 85 87 85 88 90 93 92 88 90 92 87 83 78 73 73 73 68 72 73 69 70 69 69 69
98 97 97 97 96 97 95 93 96 96 94 95 96 97 96 98 98 98 96 93 87 87 88 92 93 93 90 90 87 86 84 78 76 75 73 68 77 76 74 73 71 70 70
99 99 99 99 99 99 99 99 99 99 99 99 98 98 96 94 94 96 96 92 92 93 96 95 96 95 94 93 93 91 87 81 78 76 73 69 79 78 75 73 72 71 69
99 99 99 99 99 99 99 99 99 99 99 99 99 99 98 98 97 96 93 95 96 94 96 93 96 96 96 96 94 91 92 84 81 78 73 82 80 77 75 72 68 64 65
99 98 99 98 98 98 98 98 99 99 99 99 98 99 98 97 96 93 92 94 95 98 98 98 99 99 99 98 96 96 96 87 82 80 81 82 79 76 73 67 64 66 68
99 99 99 99 99 98 98 99 99 98 99 98 98 99 98 97 97 97 96 96 97 96 98 88 97 99 98 98 95 96 94 90 84 82 81 81 78 75 71 66 65 67 68
96 97 98 99 99 98 98 99 99 98 98 97 98 98 97 96 98 99 98 97 96 95 97 96 98 99 99 99 98 96 94 95 95 82 79 79 77 74 70 66 63 66 68
89 88 88 87 89 92 94 97 98 98 99 99 99 99 98 98 98 98 98 98 98 96 97 96 99 100 99 98 97 95 89 87 96 85 79 77 78 73 70 63 61 66 66
84 85 86 88 87 89 91 92 93 95 95 97 97 98 98 99 98 98 99 99 99 98 98 99 100 99 100 99 98 92 88 82 82 85 79 77 77 75 71 61 63 65 65
89 89 90 88 88 87 87 88 90 92 93 94 95 96 95 96 97 98 99 98 99 99 99 99 99 100 99 100 99 99 99 92 86 72 82 79 76 75 69 61 70 68 69
93 94 93 92 92 87 83 93 92 93 93 93 93 94 94 96 95 96 98 98 99 99 99 99 100 99 100 99 98 99 98 99 94 85 79 80 80 78 74 71 72 72 66
91 92 92 92 92 84 86 88 91 95 94 94 94 92 93 93 92 92 94 96 95 98 98 99 98 98 98 98 99 98 98 99 99 93 85 80 74 78 73 81 69 71 64
92 92 92 92 92 92 84 84 89 96 96 96 95 95 93 89 92 94 91 94 96 95 91 92 96 95 96 96 96 99 99 99 98 96 86 90 74 78 76 72 76 70 65
96 95 95 94 93 84 82 82 85 95 97 96 96 94 90 89 90 89 93 96 96 98 97 96 94 90 90 94 92 93 95 96 88 86 85 97 85 81 80 93 81 72 67
95 96 96 95 94 92 84 81 86 94 96 95 94 94 89 88 85 86 95 98 96 97 93 96 95 94 93 93 93 96 99 98 98 88 81 79 87 86 87 91 94 77 72
91 90 89 90 82 85 79 72 72 75 81 81 78 76 79 87 88 89 95 96 98 94 98 97 98 96 92 92 89 90 95 100 97 96 85 84 86 94 95 91 94 95 91

GFSMA_sfc_rhum_117.txt.gz
RH
82 80 79 83 77 77 73 77 80 74 70 67 56 52 50 47 47 49 51 87 86 80 75 74 70 69 69 69 71 72 77 78 78 78 70 68 66 66 66 66 67 70 68
83 81 80 85 74 80 81 74 78 76 70 63 57 54 52 51 52 53 51 52 86 85 80 74 73 70 67 66 68 69 75 78 78 74 70 68 66 65 65 66 70 70 67
83 69 71 75 83 80 87 88 75 72 74 69 63 56 54 51 53 52 52 53 58 84 85 76 70 72 71 70 70 68 70 78 78 73 70 68 66 66 66 67 68 68 68
87 85 74 74 81 92 86 94 89 76 83 79 73 58 55 55 50 50 53 54 57 55 70 83 82 76 76 74 72 69 69 77 80 74 70 68 66 65 64 68 68 68 68
78 85 84 77 80 90 85 89 93 80 85 82 79 66 59 56 54 50 52 56 58 62 61 74 87 85 83 77 73 69 69 74 80 74 70 68 66 65 64 67 66 63 62
78 88 84 86 83 88 93 92 93 94 87 81 70 66 61 58 60 60 57 58 60 65 65 66 67 74 85 81 77 75 71 71 80 75 71 68 67 67 68 68 66 66 64
78 84 88 92 90 93 92 92 96 95 96 78 74 68 64 60 59 61 63 61 65 66 66 68 66 66 69 90 87 84 75 70 80 75 71 68 67 69 70 71 69 65 63
82 83 88 93 92 94 95 96 95 97 95 92 79 76 72 61 63 64 63 63 63 69 70 71 73 69 71 70 77 89 87 79 78 74 72 70 69 71 71 70 69 65 64
85 86 87 91 91 94 94 91 93 93 95 94 85 79 83 80 80 70 70 65 70 80 78 80 72 76 76 75 84 86 90 87 77 74 73 70 73 74 73 72 69 66 64
90 89 93 88 87 89 91 90 93 92 94 94 95 92 87 72 76 74 67 71 77 80 74 74 75 77 75 79 91 90 85 83 77 74 73 71 70 72 72 74 73 67 66
87 94 93 93 88 85 85 82 88 88 93 91 90 94 91 89 80 88 81 80 80 71 72 76 72 85 88 80 90 89 87 80 78 76 74 71 69 71 72 72 70 68 67
95 95 90 86 86 88 95 93 95 93 90 89 84 83 80 93 93 94 93 89 84 75 77 80 77 89 89 83 87 88 88 83 77 76 74 71 67 71 72 74 72 69 68
98 97 96 94 94 93 90 97 98 96 94 93 92 94 96 97 97 96 95 93 91 87 85 81 84 84 92 91 90 93 91 85 82 78 74 70 67 78 77 74 72 70 68
96 94 97 99 99 99 99 98 98 99 99 99 97 96 95 95 97 97 95 96 92 88 84 80 87 94 96 94 95 96 96 93 88 79 75 68 83 81 77 73 70 65 64
99 98 98 99 99 99 99 99 99 98 99 97 96 93 93 96 98 98 97 96 97 97 90 86 95 95 97 97 96 97 97 94 86 81 80 84 82 79 76 72 67 66 67
99 99 99 99 98 98 99 99 99 99 99 99 99 98 93 92 95 97 97 96 97 98 98 88 94 97 95 98 96 97 97 96 88 82 83 84 81 78 75 71 67 67 68
93 93 95 96 97 98 98 99 99 99 99 99 99 98 98 97 98 98 99 98 98 98 98 95 96 97 97 98 98 98 97 96 93 88 82 83 82 79 75 72 69 67 67
87 86 84 81 85 90 92 93 94 93 91 94 96 96 97 98 99 98 99 98 98 96 99 98 99 100 99 96 95 97 97 94 94 90 84 82 81 79 76 72 68 67 67
76 74 73 74 74 76 74 76 77 77 79 80 82 84 83 83 87 93 97 98 99 99 98 98 99 98 99 98 99 98 96 94 91 90 88 85 81 81 77 73 67 68 67
76 76 77 78 79 76 78 78 78 77 77 76 78 79 78 81 83 86 88 91 95 99 99 98 99 99 98 98 97 97 99 97 96 90 90 89 85 82 81 76 68 72 68
75 76 72 74 75 74 81 84 83 81 81 80 79 78 79 84 91 86 86 86 91 98 98 99 98 99 99 99 97 96 96 96 97 94 95 94 88 83 81 72 74 72 70
78 77 79 78 78 70 84 82 82 81 81 82 82 79 80 86 82 86 87 90 92 97 98 98 98 98 97 94 92 97 96 99 99 94 96 94 83 79 71 72 71 68 71
84 85 85 82 80 78 81 80 83 83 88 86 86 85 83 78 84 80 82 86 87 90 95 95 98 97 94 92 91 99 97 98 98 97 94 91 75 78 69 61 70 69 70
84 83 82 82 79 74 77 75 76 82 84 82 81 76 76 75 76 81 81 88 84 80 81 88 94 93 90 88 91 92 94 96 96 95 87 95 72 72 64 62 70 74 70
81 83 80 80 82 75 72 70 67 64 64 67 64 64 70 69 77 83 86 95 93 90 82 91 94 96 95 95 94 99 99 99 99 97 92 87 79 74 68 65 67 77 71
84 80 73 75 74 68 70 69 66 60 60 60 57 58 65 67 75 75 78 87 96 92 92 92 97 97 97 98 97 96 97 100 100 98 96 94 84 78 85 67 70 75 66